[[{"header":{"parameterUnit":"m.s-1","parameterCategory":1,"la1":30.6,"la2":28.766,"lo1":-90.7593,"lo2":-88.6598,"dy":0.0162,"dx":0.0183,"nx":116,"ny":114,"refTime":"2024-06-15T12:00:00:Z","depth":0,"parameterNumber":2,"parameterNumberName":"U-component_of_WINDS"},"data":[0.0,0.0,0.0,0.0,0.0,0.0,0.0,0.0,0.0,0.0,0.0,0.0,0.0,0.0,0.0,0.0,0.0,0.0,0.0,0.0,0.0,0.0,0.0,0.0,0.0,0.0,0.0,0.0,0.0,0.0,0.0,0.0,0.0,0.0,0.0,0.0,0.0,0.0,0.0,0.0,0.0,0.0,0.0,0.0,0.0,0.0,0.0,0.0,0.0,0.0,0.0,0.0,0.0,0.0,0.0,0.0,0.0,0.0,0.0,0.0,0.0,0.0,0.0,0.0,0.0,0.0,0.0,0.0,0.0,0.0,0.0,0.0,0.0,0.0,0.0,0.0,0.0,0.0,0.0,0.0,0.0,0.0,0.0,0.0,0.0,0.0,0.0,0.0,0.0,0.0,0.0,0.0,0.0,0.0,0.0,0.0,0.0,0.0,0.0,0.0,0.0,0.0,0.0,0.0,0.0,0.0,0.0,0.0,0.0,0.0,0.0,0.0,0.0,0.0,0.0,0.0,0.0,0.0,0.0,0.0,0.0,0.0,0.0,0.0,0.0,0.0,0.0,0.0,0.0,0.0,0.0,0.0,0.0,0.0,0.0,0.0,0.0,0.0,0.0,0.0,0.0,0.0,0.0,0.0,0.0,0.0,0.0,0.0,0.0,0.0,0.0,0.0,0.0,0.0,0.0,0.0,0.0,0.0,0.0,0.0,0.0,0.0,0.0,0.0,0.0,0.0,0.0,0.0,0.0,0.0,0.0,0.0,0.0,0.0,0.0,0.0,0.0,0.0,0.0,0.0,0.0,0.0,0.0,0.0,0.0,0.0,0.0,0.0,0.0,0.0,0.0,0.0,0.0,0.0,0.0,0.0,0.0,0.0,0.0,0.0,0.0,0.0,0.0,0.0,0.0,0.0,0.0,0.0,0.0,0.0,0.0,0.0,0.0,0.0,0.0,0.0,0.0,0.0,0.0,0.0,0.0,0.0,0.0,0.0,0.0,0.0,0.0,0.0,0.0,0.0,0.0,0.0,0.0,0.0,0.0,0.0,0.0,0.0,0.0,0.0,0.0,0.0,0.0,0.0,0.0,0.0,0.0,0.0,0.0,0.0,0.0,0.0,0.0,0.0,0.0,0.0,0.0,0.0,0.0,0.0,0.0,0.0,0.0,0.0,0.0,0.0,0.0,0.0,0.0,0.0,0.0,0.0,0.0,0.0,0.0,0.0,0.0,0.0,0.0,0.0,0.0,0.0,0.0,0.0,0.0,0.0,0.0,0.0,0.0,0.0,0.0,0.0,0.0,0.0,0.0,0.0,0.0,0.0,0.0,0.0,0.0,0.0,0.0,0.0,0.0,0.0,0.0,0.0,0.0,0.0,0.0,0.0,0.0,0.0,0.0,0.0,0.0,0.0,0.0,0.0,0.0,0.0,0.0,0.0,0.0,0.0,0.0,0.0,0.0,0.0,0.0,0.0,0.0,0.0,0.0,0.0,0.0,0.0,0.0,0.0,0.0,0.0,0.0,0.0,0.0,0.0,0.0,0.0,0.0,0.0,0.0,0.0,0.0,0.0,0.0,0.0,0.0,0.0,0.0,0.0,0.0,0.0,0.0,0.0,0.0,0.0,0.0,0.0,0.0,0.0,0.0,0.0,0.0,0.0,0.0,0.0,0.0,0.0,0.0,0.0,0.0,0.0,0.0,0.0,0.0,0.0,0.0,0.0,0.0,0.0,0.0,0.0,0.0,0.0,0.0,0.0,0.0,0.0,0.0,0.0,0.0,0.0,0.0,0.0,0.0,0.0,0.0,0.0,0.0,0.0,0.0,0.0,0.0,0.0,0.0,0.0,0.0,0.0,0.0,0.0,0.0,0.0,0.0,0.0,0.0,0.0,0.0,0.0,0.0,0.0,0.0,0.0,0.0,0.0,0.0,0.0,0.0,0.0,0.0,0.0,0.0,0.0,0.0,0.0,0.0,0.0,0.0,0.0,0.0,0.0,0.0,0.0,0.0,0.0,0.0,0.0,0.0,0.0,0.0,0.0,0.0,0.0,0.0,0.0,0.0,0.0,0.0,0.0,0.0,0.0,0.0,0.0,0.0,0.0,0.0,0.0,0.0,0.0,0.0,0.0,0.0,0.0,0.0,0.0,0.0,0.0,0.0,0.0,0.0,0.0,0.0,0.0,0.0,0.0,0.0,0.0,0.0,0.0,0.0,0.0,0.0,0.0,0.0,0.0,0.0,0.0,0.0,0.0,0.0,0.0,0.0,0.0,0.0,0.0,0.0,0.0,0.0,0.0,0.0,0.0,0.0,0.0,0.0,0.0,0.0,0.0,0.0,0.0,0.0,0.0,0.0,0.0,0.0,0.0,0.0,0.0,0.0,0.0,0.0,0.0,0.0,0.0,0.0,0.0,0.0,0.0,0.0,0.0,0.0,0.0,0.0,0.0,0.0,0.0,0.0,0.0,0.0,0.0,0.0,0.0,0.0,0.0,0.0,0.0,0.0,0.0,0.0,0.0,0.0,0.0,0.0,0.0,0.0,0.0,0.0,0.0,0.0,0.0,0.0,0.0,0.0,0.0,0.0,0.0,0.0,0.0,0.0,0.0,0.0,0.0,0.0,0.0,0.0,0.0,0.0,0.0,0.0,0.0,0.0,0.0,0.0,0.0,0.0,0.0,0.0,0.0,0.0,0.0,0.0,0.0,0.0,0.0,0.0,0.0,0.0,0.0,0.0,0.0,0.0,0.0,0.0,0.0,0.0,0.0,0.0,0.0,0.0,0.0,0.0,0.0,0.0,0.0,0.0,0.0,0.0,0.0,0.0,0.0,0.0,0.0,0.0,0.0,0.0,0.0,0.0,0.0,0.0,0.0,0.0,0.0,0.0,0.0,0.0,0.0,0.0,0.0,0.0,0.0,0.0,0.0,0.0,0.0,0.0,0.0,0.0,0.0,0.0,0.0,0.0,0.0,0.0,0.0,0.0,0.0,0.0,0.0,0.0,0.0,0.0,0.0,0.0,0.0,0.0,0.0,0.0,0.0,0.0,0.0,0.0,0.0,0.0,0.0,0.0,0.0,0.0,0.0,0.0,0.0,0.0,0.0,0.0,0.0,0.0,0.0,0.0,0.0,0.0,0.0,0.0,0.0,0.0,0.0,0.0,0.0,0.0,0.0,0.0,0.0,0.0,0.0,0.0,0.0,0.0,0.0,0.0,0.0,0.0,0.0,0.0,0.0,0.0,0.0,0.0,0.0,0.0,0.0,0.0,0.0,0.0,0.0,0.0,0.0,0.0,0.0,0.0,0.0,0.0,0.0,0.0,0.0,0.0,0.0,0.0,0.0,0.0,0.0,0.0,0.0,0.0,0.0,0.0,0.0,0.0,0.0,0.0,0.0,0.0,0.0,0.0,0.0,0.0,0.0,0.0,0.0,0.0,0.0,0.0,0.0,0.0,0.0,0.0,0.0,0.0,0.0,0.0,0.0,0.0,0.0,0.0,0.0,0.0,0.0,0.0,0.0,0.0,0.0,0.0,0.0,0.0,0.0,0.0,0.0,0.0,0.0,0.0,0.0,0.0,0.0,0.0,0.0,0.0,0.0,0.0,0.0,0.0,0.0,0.0,0.0,0.0,0.0,0.0,0.0,0.0,0.0,0.0,0.0,0.0,0.0,0.0,0.0,0.0,0.0,0.0,0.0,0.0,0.0,0.0,0.0,0.0,0.0,0.0,0.0,0.0,0.0,0.0,0.0,0.0,0.0,0.0,0.0,0.0,0.0,0.0,0.0,0.0,0.0,0.0,0.0,0.0,0.0,0.0,0.0,0.0,0.0,0.0,0.0,0.0,0.0,0.0,0.0,0.0,0.0,0.0,0.0,0.0,0.0,0.0,0.0,0.0,0.0,0.0,0.0,0.0,0.0,0.0,0.0,0.0,0.0,0.0,0.0,0.0,0.0,0.0,0.0,0.0,0.0,0.0,0.0,0.0,0.0,0.0,0.0,0.0,0.0,0.0,0.0,0.0,0.0,0.0,0.0,0.0,0.0,0.0,0.0,0.0,0.0,0.0,0.0,0.0,0.0,0.0,0.0,0.0,0.0,0.0,0.0,0.0,0.0,0.0,0.0,0.0,0.0,0.0,0.0,0.0,0.0,0.0,0.0,0.0,0.0,0.0,0.0,0.0,0.0,0.0,0.0,0.0,0.0,0.0,0.0,0.0,0.0,0.0,0.0,0.0,0.0,0.0,0.0,0.0,0.0,0.0,0.0,0.0,0.0,0.0,0.0,0.0,0.0,0.0,0.0,0.0,0.0,0.0,0.0,0.0,0.0,0.0,0.0,0.0,0.0,0.0,0.0,0.0,0.0,0.0,0.0,0.0,0.0,0.0,0.0,0.0,0.0,0.0,0.0,0.0,0.0,0.0,0.0,0.0,0.0,0.0,0.0,0.0,0.0,0.0,0.0,0.0,0.0,0.0,0.0,0.0,0.0,0.0,0.0,0.0,0.0,0.0,0.0,0.0,0.0,0.0,0.0,0.0,0.0,0.0,0.0,0.0,0.0,0.0,0.0,0.0,0.0,0.0,0.0,0.0,0.0,0.0,0.0,0.0,0.0,0.0,0.0,0.0,0.0,0.0,0.0,0.0,0.0,0.0,0.0,0.0,0.0,0.0,0.0,0.0,0.0,0.0,0.0,0.0,0.0,0.0,0.0,0.0,0.0,0.0,0.0,0.0,0.0,0.0,0.0,0.0,0.0,0.0,0.0,0.0,0.0,0.0,0.0,0.0,0.0,0.0,0.0,0.0,0.0,0.0,0.0,0.0,0.0,0.0,0.0,0.0,0.0,0.0,0.0,0.0,0.0,0.0,0.0,0.0,0.0,0.0,0.0,0.0,0.0,0.0,0.0,0.0,0.0,0.0,0.0,0.0,0.0,0.0,0.0,0.0,0.0,0.0,0.0,0.0,0.0,0.0,0.0,0.0,0.0,0.0,0.0,0.0,0.0,0.0,0.0,0.0,0.0,0.0,0.0,0.0,0.0,0.0,0.0,0.0,0.0,0.0,0.0,0.0,0.0,0.0,0.0,0.0,0.0,0.0,0.0,0.0,0.0,0.0,0.0,0.0,0.0,0.0,0.0,0.0,0.0,0.0,0.0,0.0,0.0,0.0,0.0,0.0,0.0,0.0,0.0,0.0,0.0,0.0,0.0,0.0,0.0,0.0,0.0,0.0,0.0,0.0,0.0,0.0,0.0,0.0,0.0,0.0,0.0,0.0,0.0,0.0,0.0,0.0,0.0,0.0,0.0,0.0,0.0,0.0,0.0,0.0,0.0,0.0,0.0,0.0,0.0,0.0,0.0,0.0,0.0,0.0,0.0,0.0,0.0,0.0,0.0,0.0,0.0,0.0,0.0,0.0,0.0,0.0,0.0,0.0,0.0,0.0,0.0,0.0,0.0,0.0,0.0,0.0,0.0,0.0,0.0,0.0,0.0,0.0,0.0,0.0,0.0,0.0,0.0,0.0,0.0,0.0,0.0,0.0,0.0,0.0,0.0,0.0,0.0,0.0,0.0,0.0,0.0,0.0,0.0,0.0,0.0,0.0,0.0,0.0,0.0,0.0,0.0,0.0,0.0,0.0,0.0,0.0,0.0,0.0,0.0,0.0,0.0,0.0,0.0,0.0,0.0,0.0,0.0,0.0,0.0,0.0,0.0,0.0,0.0,0.0,0.0,0.0,0.0,0.0,0.0,0.0,0.0,0.0,0.0,0.0,0.0,0.0,0.0,0.0,0.0,0.0,0.0,0.0,0.0,0.0,0.0,0.0,0.0,0.0,0.0,0.0,0.0,0.0,0.0,0.0,0.0,0.0,0.0,0.0,0.0,0.0,0.0,0.0,0.0,0.0,0.0,0.0,0.0,0.0,0.0,0.0,0.0,0.0,0.0,0.0,0.0,0.0,0.0,0.0,0.0,0.0,0.0,0.0,0.0,0.0,0.0,0.0,0.0,0.0,0.0,0.0,0.0,0.0,0.0,0.0,0.0,0.0,0.0,0.0,0.0,0.0,0.0,0.0,0.0,0.0,0.0,0.0,0.0,0.0,0.0,0.0,0.0,0.0,0.0,-2.6416,-2.319,0.0,0.0,0.0,0.0,0.0,0.0,0.0,0.0,0.0,0.0,0.0,0.0,0.0,0.0,0.0,0.0,0.0,0.0,0.0,0.0,0.0,0.0,0.0,-1.274,-1.3286,-1.3386,-1.3457,-1.3525,-1.3597,0.0,0.0,0.0,0.0,0.0,-1.5108,-1.5332,-1.6003,-1.7049,-1.7601,-1.8659,-2.019,-1.9265,-1.7429,-1.486,0.0,0.0,0.0,0.0,0.0,0.0,0.0,0.0,0.0,0.0,0.0,0.0,0.0,0.0,0.0,0.0,0.0,0.0,0.0,0.0,0.0,0.0,0.0,0.0,0.0,0.0,0.0,0.0,0.0,0.0,0.0,0.0,0.0,0.0,0.0,0.0,0.0,0.0,0.0,0.0,0.0,0.0,0.0,0.0,0.0,0.0,0.0,0.0,0.0,0.0,0.0,0.0,0.0,0.0,0.0,0.0,0.0,0.0,0.0,0.0,0.0,0.0,0.0,0.0,0.0,0.0,0.0,0.0,0.0,0.0,-3.1731,-2.8765,0.0,0.0,0.0,0.0,0.0,0.0,0.0,0.0,0.0,0.0,0.0,0.0,0.0,0.0,0.0,0.0,0.0,0.0,0.0,0.0,0.0,-1.1682,-1.2497,-1.3243,-1.3714,-1.3781,-1.3914,-1.3945,-1.3848,-1.405,0.0,0.0,0.0,-1.5199,-1.5404,-1.6217,-1.7395,-1.8931,-2.022,-2.1665,-2.3258,-2.3604,-2.172,-1.8069,-1.7238,0.0,0.0,0.0,0.0,0.0,0.0,0.0,0.0,0.0,0.0,0.0,0.0,0.0,0.0,0.0,0.0,0.0,0.0,0.0,0.0,0.0,0.0,0.0,0.0,0.0,0.0,0.0,0.0,0.0,0.0,0.0,0.0,0.0,0.0,0.0,0.0,0.0,0.0,0.0,0.0,0.0,0.0,0.0,0.0,0.0,0.0,0.0,0.0,0.0,0.0,0.0,0.0,0.0,0.0,0.0,0.0,0.0,0.0,0.0,0.0,0.0,0.0,0.0,-3.871,-3.9703,-4.1089,-4.0592,-4.088,-4.1535,-3.7343,-3.5223,-3.4413,-3.0985,0.0,0.0,0.0,0.0,0.0,0.0,0.0,0.0,0.0,0.0,0.0,0.0,0.0,0.0,0.0,0.0,0.0,0.0,0.0,-1.2655,-1.3307,-1.4222,-1.496,-1.5365,-1.5519,-1.5365,-1.4847,-1.4854,0.0,-1.5131,-1.5601,-1.6372,-1.7492,-1.7817,-1.8975,-2.1095,-2.3699,-2.5159,-2.5485,-2.6036,-2.5536,-2.4026,-2.1486,-2.0044,-1.9364,0.0,0.0,0.0,0.0,0.0,0.0,0.0,0.0,0.0,0.0,0.0,0.0,0.0,0.0,0.0,0.0,0.0,0.0,0.0,0.0,0.0,0.0,0.0,0.0,0.0,0.0,0.0,0.0,0.0,0.0,0.0,0.0,0.0,0.0,0.0,0.0,0.0,0.0,0.0,0.0,0.0,-2.5423,-2.6681,0.0,0.0,0.0,0.0,0.0,0.0,0.0,0.0,0.0,0.0,0.0,0.0,0.0,-3.7116,-3.8789,-4.1428,-4.2814,-4.2997,-4.5506,-4.6839,-4.7048,-4.697,-4.7022,-4.71,-4.5913,0.0,-3.736,-3.6028,0.0,0.0,0.0,0.0,0.0,0.0,0.0,0.0,0.0,0.0,0.0,0.0,0.0,0.0,0.0,0.0,0.0,0.0,0.0,0.0,0.0,-1.5159,-1.5978,-1.6394,-1.6988,-1.6991,-1.6266,-1.6383,-1.6322,-1.5984,-1.6526,-1.7247,-1.8147,-1.9397,-2.1639,-2.4853,-2.7471,-2.8907,-2.9238,-2.9807,-2.9702,-2.8875,-2.7315,-2.458,-2.1009,-1.9343,0.0,0.0,0.0,0.0,0.0,0.0,0.0,0.0,0.0,0.0,0.0,0.0,0.0,0.0,0.0,0.0,0.0,0.0,0.0,0.0,0.0,0.0,0.0,0.0,0.0,0.0,0.0,0.0,0.0,0.0,0.0,0.0,0.0,0.0,0.0,0.0,0.0,0.0,0.0,-2.5662,-2.8273,-2.849,-2.8856,-2.8386,0.0,0.0,0.0,0.0,0.0,0.0,0.0,0.0,0.0,-4.0278,-4.101,-4.2186,-4.3938,-4.5506,-4.6473,-4.6813,-4.8094,-4.8852,-4.9139,-4.9139,-4.9139,-4.9139,-4.8878,-4.7054,-4.3991,-4.0594,-3.7404,-3.4396,0.0,0.0,0.0,0.0,-3.1033,-3.1687,0.0,0.0,0.0,0.0,0.0,0.0,0.0,0.0,0.0,0.0,0.0,0.0,-1.5219,-1.6314,-1.7214,-1.7812,-1.8722,-1.8943,-1.8196,-1.8047,-1.7702,-1.7075,-1.7558,-1.8201,-1.899,-2.1796,-2.4883,-2.8169,-3.0372,-3.1653,-3.2032,-3.2489,-3.246,-3.1994,-3.1638,-2.8599,-2.3723,-2.2511,-2.0514,-1.8034,0.0,0.0,0.0,0.0,0.0,0.0,0.0,0.0,0.0,0.0,0.0,0.0,0.0,0.0,0.0,0.0,0.0,0.0,0.0,0.0,0.0,0.0,0.0,0.0,0.0,0.0,0.0,0.0,0.0,0.0,0.0,0.0,0.0,0.0,0.0,0.0,0.0,-2.883,-3.1235,-3.066,-3.1993,-3.194,0.0,0.0,0.0,0.0,0.0,0.0,-3.8658,-3.9991,-4.1951,-4.4696,-4.5767,-4.697,-4.8407,-4.9008,-4.9505,-4.9949,-5.0106,-5.0394,-5.0786,-5.0786,-5.0786,-5.0786,-5.0629,-5.0237,-4.9401,-4.4853,-4.185,-3.9854,-3.7518,-3.594,-3.5161,-3.5667,-3.5949,-3.6582,0.0,0.0,0.0,0.0,0.0,0.0,0.0,0.0,0.0,0.0,0.0,-1.4919,-1.6688,-1.7858,-1.8955,-2.0135,-2.1093,-2.1395,-2.0742,-1.9634,-1.8868,-1.8511,-1.8668,-1.9328,-2.0544,-2.5489,-2.8673,-2.997,-3.1757,-3.262,-3.2646,-3.2672,-3.2698,-3.2659,-3.2633,-3.1468,-2.9361,-2.608,-2.4434,-2.3637,-1.9667,0.0,0.0,0.0,0.0,0.0,0.0,0.0,0.0,0.0,0.0,0.0,0.0,0.0,0.0,0.0,0.0,0.0,0.0,0.0,0.0,0.0,0.0,0.0,0.0,0.0,0.0,0.0,0.0,0.0,0.0,0.0,0.0,0.0,0.0,0.0,0.0,0.0,0.0,-3.4214,-3.6619,0.0,0.0,0.0,0.0,-3.6698,-3.9337,-4.1716,-4.3441,-4.5166,-4.7153,-4.9479,-5.0159,-5.0786,-5.1387,-5.1988,-5.2302,-5.2328,-5.2903,-5.3191,-5.3217,-5.3217,-5.3217,-5.3191,-5.2616,-5.2014,-5.1282,-4.8878,-4.6808,-4.5083,-4.359,-4.2345,-4.1338,-4.1408,-4.1701,-4.2279,0.0,0.0,0.0,0.0,0.0,-1.0686,-1.1547,-1.1917,-1.2453,-1.3426,-1.5194,-1.6841,-1.8143,-1.9878,-2.139,-2.2509,-2.3442,-2.3683,-2.2938,-2.201,-2.1731,-2.2311,-2.1478,-2.263,-2.617,-2.8786,-3.0973,-3.2881,-3.3875,-3.4554,-3.4894,-3.4894,-3.4894,-3.4868,-3.4528,-3.3783,-3.2623,-2.9214,-2.6912,-2.5291,-2.2392,-2.0111,0.0,0.0,0.0,0.0,0.0,0.0,0.0,0.0,0.0,0.0,0.0,0.0,0.0,0.0,0.0,0.0,0.0,0.0,0.0,0.0,0.0,0.0,0.0,0.0,0.0,0.0,0.0,0.0,0.0,0.0,0.0,0.0,0.0,0.0,0.0,0.0,0.0,-3.7246,-3.973,0.0,-3.8214,-3.9939,-4.1402,-4.1925,-4.4304,-4.6316,-4.7675,-4.9035,-5.0315,-5.1518,-5.2145,-5.2563,-5.2746,-5.2955,-5.3086,-5.3086,-5.3295,-5.34,-5.34,-5.34,-5.34,-5.34,-5.3164,-5.2955,-5.2694,-5.1884,-5.008,-4.778,-4.6685,-4.6,-4.5633,-4.5417,-4.5681,-4.6108,0.0,0.0,0.0,0.0,-1.0409,-1.0825,-1.1875,-1.2104,-1.2684,-1.4113,-1.6337,-1.8318,-1.9776,-2.1909,-2.3653,-2.4614,-2.5504,-2.5743,-2.5075,-2.4145,-2.3878,-2.4474,-2.3994,-2.5657,-2.9771,-3.1182,-3.2803,-3.4711,-3.5286,-3.5757,-3.6096,-3.6096,-3.6096,-3.6096,-3.573,-3.5338,-3.4842,-3.2406,-2.9998,-2.7634,-2.5399,-2.3369,-2.1452,0.0,0.0,0.0,0.0,0.0,0.0,0.0,0.0,0.0,0.0,0.0,0.0,0.0,0.0,0.0,0.0,0.0,0.0,0.0,0.0,0.0,0.0,0.0,0.0,0.0,0.0,0.0,0.0,0.0,0.0,0.0,0.0,0.0,0.0,-3.7848,-4.054,-3.9939,-4.2762,-4.4016,-4.2082,-4.399,-4.5663,-4.6421,-4.8433,-4.9976,-5.0734,-5.204,-5.2955,-5.3347,-5.4131,-5.455,-5.455,-5.455,-5.455,-5.455,-5.455,-5.455,-5.455,-5.4341,-5.4236,-5.4236,-5.4053,-5.3844,-5.3661,-5.3661,-5.2433,-5.0472,-4.9481,-4.9049,-4.8997,-4.8249,-4.8172,-4.8247,0.0,0.0,0.0,-1.039,-1.0525,-1.0964,-1.194,-1.2232,-1.3126,-1.5359,-1.7231,-1.9237,-2.1606,-2.3813,-2.5515,-2.6477,-2.7191,-2.7478,-2.716,-2.5936,-2.5115,-2.4813,-2.6121,-2.8237,-3.1026,-3.2777,-3.4214,-3.5338,-3.5887,-3.6149,-3.6149,-3.6149,-3.6149,-3.6149,-3.6149,-3.6123,-3.6096,-3.5547,-3.3716,-3.0967,-2.8737,-2.7063,-2.5625,0.0,0.0,0.0,0.0,0.0,0.0,0.0,0.0,0.0,0.0,0.0,0.0,0.0,0.0,0.0,0.0,0.0,0.0,0.0,0.0,0.0,0.0,0.0,0.0,0.0,0.0,0.0,0.0,0.0,0.0,0.0,0.0,0.0,-3.8057,-4.0984,-4.2944,-4.2474,-4.5872,-4.7414,-4.5273,-4.8015,-4.9976,-5.0002,-5.1596,-5.2589,-5.2589,-5.421,-5.5151,-5.5151,-5.6223,-5.6798,-5.6798,-5.6798,-5.6798,-5.6798,-5.6798,-5.6798,-5.6798,-5.6196,-5.5935,-5.5909,-5.536,-5.4785,-5.4262,-5.4236,-5.3922,-5.3321,-5.2119,-5.1648,-5.1455,-5.0,-4.928,-4.8825,0.0,0.0,-1.0312,-1.039,-1.0785,-1.1348,-1.2001,-1.2458,-1.3331,-1.4966,-1.774,-2.0349,-2.251,-2.4895,-2.6752,-2.7862,-2.7756,-2.783,-2.829,-2.6702,-2.6184,-2.7185,-2.9673,-3.1784,-3.343,-3.4737,-3.5783,-3.6541,-3.7116,-3.7403,-3.7403,-3.7403,-3.7403,-3.7403,-3.6959,-3.675,-3.6724,-3.6123,-3.5409,-3.4484,-3.1796,-2.9555,-2.7632,0.0,0.0,0.0,0.0,0.0,0.0,0.0,0.0,0.0,0.0,0.0,0.0,0.0,0.0,0.0,0.0,0.0,0.0,0.0,0.0,0.0,0.0,0.0,0.0,0.0,0.0,0.0,0.0,0.0,0.0,0.0,-3.8867,-4.1611,-4.1611,-4.3885,-4.6081,-4.7597,-4.9139,-5.0159,-5.0342,-5.123,-5.1962,-5.2406,-5.3635,-5.4393,-5.4393,-5.5621,-5.6327,-5.6327,-5.6641,-5.6798,-5.6798,-5.6798,-5.6798,-5.6798,-5.6798,-5.6798,-5.6798,-5.6641,-5.6562,-5.6536,-5.5935,-5.5595,-5.5412,-5.502,-5.4759,-5.4524,-5.3347,-5.2903,-5.2798,-5.1977,-5.0732,-4.9537,0.0,-0.9863,-1.0312,-1.039,-1.0905,-1.149,-1.2022,-1.2561,-1.3535,-1.5339,-1.8378,-2.1143,-2.3104,-2.5733,-2.7617,-2.8254,-2.8229,-2.8123,-2.8064,-2.7348,-2.7782,-2.9626,-3.1876,-3.3718,-3.5077,-3.6018,-3.6776,-3.7377,-3.7743,-3.8031,-3.824,-3.824,-3.837,-3.8606,-3.7978,-3.7717,-3.7665,-3.7116,-3.6724,-3.6314,-3.4684,-3.2843,-3.0829,-2.9155,-2.778,-2.6688,-2.5601,-2.4981,-2.4539,-2.404,0.0,0.0,0.0,0.0,0.0,0.0,0.0,0.0,0.0,0.0,0.0,0.0,0.0,0.0,0.0,0.0,0.0,0.0,0.0,0.0,0.0,0.0,0.0,0.0,-4.2343,-4.5166,-4.6133,-4.744,-4.8852,-5.042,-5.1361,-5.2145,-5.2798,-5.3295,-5.3739,-5.4079,-5.5177,-5.583,-5.583,-5.6667,-5.7163,-5.7163,-5.7399,-5.7529,-5.7529,-5.7529,-5.7529,-5.7529,-5.7529,-5.7529,-5.7503,-5.7268,-5.7163,-5.7137,-5.6536,-5.6275,-5.6249,-5.5674,-5.5438,-5.5334,0.0,0.0,0.0,0.0,-5.1831,-5.065,0.0,-0.9705,-1.0312,-1.039,-1.0925,-1.151,-1.2022,-1.26,-1.3803,-1.6112,-1.8903,-2.1424,-2.3317,-2.6116,-2.7937,-2.8097,-2.8549,-2.8394,-2.7361,-2.8283,-2.9823,-3.1902,-3.3221,-3.4607,-3.6175,-3.6802,-3.7403,-3.8004,-3.8004,-3.8266,-3.8815,-3.8815,-3.9102,-3.9599,-3.905,-3.8815,-3.8789,-3.8214,-3.7691,-3.7194,-3.7063,-3.5992,-3.4267,-3.2176,-3.1339,-3.0999,-2.8882,-2.7859,-2.7387,-2.6251,0.0,0.0,0.0,0.0,0.0,0.0,0.0,0.0,0.0,0.0,0.0,0.0,0.0,0.0,0.0,0.0,0.0,0.0,0.0,0.0,0.0,0.0,0.0,0.0,-4.5506,-4.8512,-5.076,-5.1152,-5.1361,-5.1831,-5.2825,-5.353,-5.3661,-5.4602,-5.5229,-5.5282,-5.6301,-5.6902,-5.6902,-5.7451,0.0,0.0,0.0,-5.8523,-5.8523,-5.8523,-5.8523,-5.8523,-5.8523,-5.8523,-5.8497,-5.7974,-5.7835,-5.7739,-5.7163,-5.6902,-5.685,-5.6249,-5.5961,-5.5804,-5.4733,-5.4262,-5.4066,-5.3218,-5.2608,-5.1988,0.0,-0.9705,-1.0312,-1.039,-1.1124,-1.1788,-1.2062,-1.2779,-1.4055,-1.6125,-1.8085,-2.0217,-2.2682,-2.5063,-2.6907,-2.7999,-2.8197,-2.847,-2.8963,-3.0799,-3.228,-3.3221,-3.4763,-3.5992,-3.6802,-3.7429,-3.8004,-3.8553,-3.8553,-3.8867,-3.9442,-3.9442,-3.9494,-3.9599,-3.9494,-3.9442,-3.939,-3.8815,-3.8475,-3.8292,-3.7377,-3.6253,-3.5025,-3.4084,-3.3456,-3.296,-3.2019,-3.1641,-3.1538,-3.1275,-2.9881,-2.8213,-2.8074,-2.6297,0.0,0.0,0.0,0.0,0.0,0.0,0.0,0.0,0.0,0.0,0.0,0.0,0.0,0.0,0.0,0.0,0.0,0.0,0.0,-4.5245,-4.8172,-5.076,-5.2642,-5.3269,-5.3583,-5.3687,-5.3896,-5.4419,-5.5334,-5.5621,-5.5961,-5.6432,-5.7111,-5.7503,-5.7503,-5.8052,-5.834,-5.834,-5.8444,-5.8523,-5.8523,-5.8523,-5.8523,-5.8523,-5.8523,0.0,-5.8523,-5.8392,-5.834,-5.8314,-5.7739,-5.7503,-5.7451,-5.6876,-5.6353,-5.5857,-5.5177,-5.4628,-5.4184,-5.4014,-5.34,-5.2569,-0.8923,-0.9527,-1.0097,-1.0567,-1.1301,-1.1925,-1.2301,-1.2958,-1.4031,-1.5815,-1.7553,-1.9399,-2.1403,-2.3406,-2.4879,-2.5519,-2.6249,-2.7494,-2.942,-3.0993,-3.262,-3.4371,-3.5521,-3.6515,-3.7429,-3.8004,-3.8449,-3.871,-3.9024,-3.9442,-4.0017,-4.0017,-4.0174,-4.0461,-4.0148,-4.0017,-3.9965,-3.939,-3.8998,-3.8658,-3.8083,-3.7351,-3.6488,-3.56,-3.492,-3.4371,-3.377,-3.3378,-3.3091,-3.2803,-3.194,-3.0947,-3.066,-2.917,-2.7262,0.0,0.0,0.0,0.0,0.0,0.0,0.0,0.0,0.0,0.0,0.0,0.0,0.0,0.0,-3.8815,-4.0566,0.0,-4.595,-4.825,-5.0342,-5.2145,-5.3583,-5.4027,-5.421,-5.421,-5.4707,-5.5282,-5.5857,-5.6432,-5.6902,-5.7216,-5.7765,-5.8078,-5.8078,-5.8366,-5.8523,-5.8523,-5.8523,-5.8523,-5.8523,-5.8523,-5.8523,-5.8523,-5.8523,-5.8523,-5.8523,-5.8523,-5.8523,-5.8497,-5.8209,-5.8078,-5.8052,-5.7477,-5.6719,-5.5883,-5.5621,-5.5151,-5.4654,-5.4654,-5.4131,-5.3478,-0.8903,-0.9321,-0.9868,-1.0737,-1.1376,-1.1961,-1.2494,-1.303,-1.3904,-1.5353,-1.6987,-1.8515,-1.9798,-2.1512,-2.277,-2.3246,-2.4823,-2.6942,-2.9597,-3.0837,-3.2672,-3.5338,-3.5992,-3.6776,-3.7874,-3.8423,-3.8762,-3.8893,-3.9468,-4.0043,-4.0592,-4.0592,-4.0853,-4.1298,-4.0801,-4.0592,-4.054,-3.9991,-3.9416,-3.8867,-3.8762,-3.8397,-3.7795,-3.6698,-3.594,-3.5365,-3.4659,-3.4058,-3.3509,-3.2908,-3.2698,-3.262,-3.2111,-3.1327,-3.0257,-2.8508,-2.8012,0.0,0.0,0.0,0.0,0.0,0.0,0.0,0.0,-3.5809,-3.709,-4.0095,-4.1533,-4.3023,-4.548,-4.7257,-4.8982,-5.0969,-5.2145,-5.3191,-5.4236,-5.4367,-5.4367,-5.4367,-5.5282,-5.5961,-5.6066,-5.7033,-5.7782,-5.7817,-5.8261,-5.8523,-5.8523,-5.8523,-5.8523,-5.8523,-5.8523,-5.8523,-5.8523,-5.8523,-5.8523,-5.8523,-5.8523,-5.8523,-5.8523,-5.8523,-5.8523,-5.8523,-5.8523,-5.8523,-5.847,-5.7895,-5.7111,-5.6249,-5.6118,-5.5752,-5.5255,-5.5151,-5.4785,-5.4301,0.0,-0.9323,-0.9863,-1.0754,-1.1291,-1.1832,-1.2494,-1.296,-1.3658,-1.4919,-1.5972,-1.7063,-1.8221,-1.9705,-2.1486,-2.3716,-2.6179,-2.8379,-3.0201,-3.2188,-3.411,-3.594,-3.6593,-3.722,-3.79,-3.8423,-3.8972,-3.952,-4.0043,-4.0644,-4.1219,-4.1219,-4.1246,-4.1324,-4.1246,-4.1219,-4.1167,-4.0566,-4.0017,-3.9468,-3.8919,-3.8397,-3.7821,-3.7168,-3.6541,-3.5861,-3.4789,-3.4058,-3.3509,-3.2908,-3.2698,-3.2672,-3.262,-3.2515,-3.2071,-3.0309,-2.9813,-2.9657,-2.8987,-3.0529,-3.2803,-3.492,-3.594,-3.7926,0.0,-4.3833,-4.3781,-4.7205,-4.8407,-4.9087,-4.9949,-5.11,-5.2171,-5.2981,-5.3609,-5.4236,-5.4916,-5.4994,-5.4994,-5.4994,-5.5543,-5.6118,-5.6667,-5.7294,-5.7869,-5.8366,-5.847,-5.8523,-5.8523,-5.8523,-5.8523,-5.8523,-5.8523,-5.8523,-5.8523,-5.8523,-5.8523,-5.8523,-5.8523,-5.8523,-5.8523,-5.8523,-5.8523,-5.8523,-5.8523,-5.8523,-5.847,-5.7895,-5.7651,-5.7494,-5.6902,-5.6353,-5.5752,-5.5282,-5.5072,-5.4916,0.0,-0.9544,-1.0285,-1.1165,-1.166,-1.2158,-1.2799,-1.307,-1.3512,-1.4363,-1.5194,-1.5983,-1.6733,-1.8207,-1.9685,-2.1018,-2.4274,-2.6892,-2.8389,-3.1241,-3.3569,-3.5051,-3.5992,-3.675,-3.7351,-3.8266,-3.8998,-3.9599,-4.0148,-4.0723,-4.1324,-4.1324,-4.1324,-4.1324,-4.1324,-4.1324,-4.1298,-4.1036,-4.0435,-3.9599,-3.9337,-3.8475,-3.7351,-3.7116,-3.6201,-3.5051,-3.458,-3.3822,0.0,-3.2777,-3.2698,-3.2698,-3.2698,-3.2228,-3.1548,-3.0843,-3.1339,-3.2672,-3.5103,-3.6227,-3.7273,-3.9547,-4.1089,-4.2709,-4.5375,-4.5924,-4.6682,-4.9505,-5.0498,-5.1178,-5.2119,-5.2955,-5.3687,-5.4288,-5.4837,-5.5282,-5.5543,-5.5308,-5.4968,-5.4628,-5.5099,-5.5804,-5.6719,-5.732,-5.7895,-5.847,-5.8523,-5.8523,-5.8523,-5.8523,-5.8523,-5.8523,-5.8523,-5.8523,-5.8523,-5.8523,-5.8523,-5.8523,-5.8523,-5.8523,-5.8523,-5.8523,-5.8523,-5.8523,-5.8523,-5.8523,-5.8497,-5.8261,-5.7948,-5.7704,-5.7399,-5.6719,-5.5883,-5.5647,-5.536,-5.5072,0.0,-0.9786,-1.0613,-1.1594,-1.2109,-1.2543,-1.3025,-1.3166,-1.3363,-1.3834,-1.4513,-1.515,-1.5626,-1.6962,-1.813,-1.8815,-2.2417,-2.5311,-2.7002,-3.0106,-3.2682,-3.4345,-3.5182,-3.607,-3.6985,-3.7978,-3.8789,-3.9364,-3.9913,-4.0488,-4.1063,-4.1063,-4.1167,-4.1324,-4.1324,-4.1219,-4.1063,-4.1063,-4.0409,-3.9337,-3.9207,-3.8292,-3.6959,-3.6462,-3.5312,-3.3927,-3.3927,-3.3195,-3.215,-3.1679,-3.181,-3.2202,-3.2045,-3.1731,-3.1522,-3.1836,-3.3038,-3.4999,-3.8318,-3.9756,-4.0801,-4.2762,-4.4931,-4.6656,-4.697,-4.7702,-4.8904,-5.1073,-5.1675,-5.2171,-5.3217,-5.3844,-5.4393,-5.4994,-5.5569,-5.5909,-5.5909,-5.5438,-5.4889,-5.4262,-5.4445,-5.5072,-5.6223,-5.7137,-5.7895,-5.847,-5.8523,-5.8523,-5.8523,-5.8523,-5.8523,-5.8523,-5.8523,-5.8523,-5.8523,-5.8523,-5.8523,-5.8523,-5.8523,-5.8523,-5.8523,-5.8523,-5.8523,-5.8523,-5.8523,-5.8523,-5.8523,-5.8523,-5.8261,-5.7895,-5.7895,-5.7268,-5.6379,-5.6223,-5.57,-5.5099,0.0,0.0,-1.0696,-1.1968,-1.2578,-1.2944,-1.3085,-1.3166,-1.3242,-1.3406,-1.402,-1.4581,-1.5063,-1.605,-1.7083,-1.8232,-2.1472,-2.4496,-2.6942,-2.9393,-3.1824,-3.4293,-3.4424,-3.526,-3.6959,-3.7612,-3.8187,-3.8736,-3.9337,-3.9913,-4.0435,-4.0435,-4.0749,-4.1324,-4.1324,-4.0984,-4.0435,-4.0435,-3.9782,-3.8684,-3.8161,-3.756,-3.6828,-3.5129,-3.3744,-3.2751,-3.2751,-3.2019,-3.0764,-2.9127,-2.964,-3.0947,-3.0361,-3.1339,-3.2855,-3.3979,-3.5129,-3.6044,-3.6201,-3.9102,-4.2421,-4.3598,-4.6421,-4.927,-5.0394,-5.0655,-5.1178,-5.2955,-5.2877,-5.2668,-5.3295,-5.3844,-5.4393,-5.4994,-5.5569,-5.5909,-5.5909,-5.5438,-5.4889,-5.4262,-5.3766,-5.3896,-5.5046,-5.6667,-5.7895,-5.847,-5.8523,-5.8523,-5.8523,-5.8523,-5.8523,-5.8523,-5.8523,-5.8523,-5.8523,-5.8523,-5.8523,-5.8523,-5.8523,-5.8523,-5.8523,-5.8523,-5.8523,-5.8523,-5.8523,-5.8523,-5.8523,-5.8523,-5.8497,-5.8497,-5.8497,-5.8131,-5.7529,-5.6981,-5.6066,-5.5099,0.0,0.0,0.0,-1.2068,-1.2598,-1.2939,-1.2964,-1.3065,-1.3166,-1.3266,-1.3893,0.0,0.0,0.0,0.0,0.0,-2.0754,-2.3405,-2.5141,-2.8209,-3.0582,-3.1915,-3.3207,-3.4319,-3.526,-3.5861,-3.6645,-3.7586,-3.7795,-3.8187,-3.8736,-3.8736,-3.8867,-3.905,-3.905,-3.8945,-3.8736,-3.8736,-3.8736,-3.8579,-3.7246,-3.6593,-3.6253,-3.492,-3.3221,-3.1522,0.0,-3.0241,-2.9205,-2.8603,-2.8813,-2.9353,-2.9918,-3.0268,-3.0947,-3.3613,-3.5208,-3.6854,-4.0331,-4.2814,-4.5009,-4.731,-4.9322,-5.0864,-5.123,-5.1622,-5.1962,-5.2171,-5.1439,-5.0838,-5.1021,-5.1544,-5.238,-5.3739,-5.5072,-5.604,-5.6458,-5.6353,-5.5726,-5.4367,-5.4393,-5.468,-5.5072,-5.5621,-5.651,-5.7843,-5.7948,-5.8104,-5.8497,-5.8523,-5.8523,-5.8523,-5.8523,-5.8523,-5.8523,-5.8523,-5.8523,-5.8523,-5.8523,-5.8523,-5.8523,-5.8523,-5.8523,-5.8523,-5.8523,-5.8523,-5.8523,-5.8523,-5.8523,-5.8523,-5.8523,-5.8157,-5.7704,-5.7451,-5.6641,-5.5595,0.0,0.0,0.0,0.0,0.0,0.0,0.0,0.0,0.0,0.0,0.0,0.0,0.0,0.0,0.0,0.0,0.0,-2.2159,-2.3903,-2.6509,-2.8697,-3.0347,-3.1225,-3.2346,-3.377,-3.377,-3.4424,-3.5783,-3.5783,-3.6201,-3.6959,-3.6959,-3.7063,-3.7273,-3.7273,-3.7168,-3.6959,-3.6959,-3.7063,-3.7063,-3.573,-3.5077,-3.4763,-3.3613,-3.2019,0.0,-2.9448,-2.8595,-2.7766,-2.7523,-2.7863,-2.8577,-2.9536,-3.0712,-3.2202,-3.4633,-3.6593,-3.8919,-4.331,-4.5506,-4.7179,-4.9845,-5.1204,-5.1962,-5.2197,-5.2067,-5.1779,-5.1387,-5.0054,-4.8982,-4.8982,-4.9296,-5.0185,-5.2145,-5.3896,-5.536,-5.6353,-5.6484,-5.6066,-5.4942,-5.4994,-5.5177,-5.536,-5.5386,-5.6013,-5.7556,-5.7843,-5.8131,-5.8497,-5.8523,-5.8523,-5.8523,-5.8523,-5.8523,-5.8523,-5.8523,-5.8523,-5.8523,-5.8523,-5.8523,-5.8523,-5.8523,-5.8523,-5.8523,-5.8523,-5.8523,-5.8523,-5.8523,-5.8523,-5.8523,-5.8523,-5.8287,-5.7948,-5.7739,-5.7059,-5.6144,0.0,0.0,0.0,0.0,0.0,0.0,0.0,0.0,0.0,0.0,0.0,0.0,0.0,0.0,0.0,0.0,0.0,0.0,-2.3238,-2.4442,-2.6406,-2.9507,-2.8724,-2.9548,-3.2463,-3.1496,-3.1757,-3.3456,-3.3456,-3.4031,-3.5129,-3.5129,-3.5417,-3.594,-3.594,-3.5652,-3.5155,-3.5155,-3.4842,-3.4319,-3.3692,-3.3143,-3.2515,-3.1392,-3.0241,-2.9091,-2.7968,-2.721,-2.6667,-2.6138,-2.7183,-2.8839,-2.9467,-3.2646,-3.6332,-3.7011,-3.9259,-4.2134,-4.5009,-4.7074,-4.893,-5.1126,-5.2119,-5.2668,-5.3191,-5.2014,-5.0734,-5.0551,-4.8695,-4.7017,-4.6861,-4.7017,-4.7937,-5.0211,-5.2223,-5.4053,-5.5726,-5.6013,-5.6013,-5.5961,-5.5517,-5.5412,-5.5909,-5.5987,-5.6458,-5.7651,-5.8157,-5.847,-5.8523,-5.8523,-5.8523,-5.8523,-5.8523,-5.8523,-5.8523,-5.8523,-5.8523,-5.8523,-5.8523,-5.8523,-5.8523,-5.8523,-5.8523,-5.8523,-5.8523,-5.8523,-5.8523,-5.8523,-5.8523,-5.8523,-5.8523,-5.8523,-5.8444,-5.7895,-5.7346,-5.6771,0.0,0.0,0.0,0.0,0.0,0.0,0.0,0.0,0.0,0.0,0.0,0.0,0.0,0.0,0.0,0.0,0.0,0.0,-2.1898,-2.3593,-2.5033,-2.6279,-2.7387,-2.8582,-2.9902,-3.0047,-3.0615,-3.1653,-3.1653,-3.2019,-3.2685,-3.2685,-3.3012,-3.3561,-3.3561,-3.3483,-3.3352,-3.3352,-3.3535,-3.3666,-3.2228,-3.181,-3.1902,-3.0753,-2.9614,-2.8603,-2.8281,-2.7785,-2.734,-2.7628,-3.0006,-3.3038,-3.4058,-3.5783,-3.7821,-3.9677,-4.1951,-4.4513,-4.7414,-4.9766,-5.1648,-5.2668,-5.306,-5.2981,-5.2223,-5.1413,-5.0054,-4.7466,-4.5428,-4.3467,-4.1298,-4.3363,-4.5872,-4.7336,-5.157,-5.5125,-5.6405,-5.732,-5.7529,-5.6693,-5.6824,-5.6902,-5.6615,-5.6954,-5.7346,-5.7704,-5.7791,-5.8052,-5.8497,-5.8523,-5.8523,-5.8523,-5.8523,-5.8523,-5.8523,-5.8523,-5.8523,-5.8523,-5.8523,-5.8523,-5.8523,-5.8523,-5.8523,-5.8523,-5.8523,-5.8523,-5.8523,-5.8523,-5.8523,-5.8523,-5.8523,-5.8523,-5.8497,-5.834,-5.7948,-5.7425,0.0,0.0,0.0,0.0,0.0,0.0,0.0,0.0,0.0,0.0,0.0,0.0,0.0,0.0,0.0,0.0,0.0,0.0,0.0,-2.2337,-2.3563,-2.4696,-2.5498,-2.6499,-2.773,-2.8031,-2.8437,-2.896,-2.948,-2.9767,-2.9918,-2.9918,-3.0074,-3.0424,-3.0424,-3.0555,-3.079,-3.079,-3.1156,0.0,0.0,-3.0268,-3.0241,-2.9614,-2.8804,-2.802,-2.802,-2.8778,-3.0006,-3.1313,-3.3613,-3.6175,-3.756,-3.8998,-4.0592,-4.2892,-4.5036,-4.7179,-4.9531,-5.1675,-5.3269,-5.3373,-5.3191,-5.2433,-5.0237,-4.9087,-4.7466,-4.3755,-4.1821,-4.02,-3.8318,-4.0644,-4.3389,-4.5062,-4.9949,-5.4158,-5.583,-5.7268,-5.8,-5.7608,-5.7843,-5.7921,-5.7582,-5.7843,-5.8026,-5.8026,-5.8026,-5.8183,-5.8497,-5.8523,-5.8523,-5.8523,-5.8523,-5.8523,-5.8523,-5.8523,-5.8523,-5.8523,-5.8523,-5.8523,-5.8523,-5.8523,-5.8523,-5.8523,-5.8523,-5.8523,-5.8523,-5.8523,-5.8523,-5.8523,-5.8523,-5.8523,-5.8523,-5.8523,-5.8157,-5.773,0.0,0.0,0.0,0.0,0.0,0.0,0.0,0.0,0.0,0.0,0.0,0.0,0.0,0.0,0.0,0.0,0.0,0.0,0.0,0.0,-2.2171,-2.3954,-2.3695,-2.4238,-2.5916,-2.5953,-2.6044,-2.6239,-2.7248,-2.76,-2.7352,-2.7352,-2.7411,-2.749,-2.749,-2.7811,-2.8255,-2.8255,-2.8569,-2.9039,-2.9039,-2.8726,-2.8255,0.0,-2.7968,-2.7516,-2.7673,-2.9797,-3.2855,-3.5469,-3.7299,-3.8789,-4.054,-4.2239,-4.4042,-4.6369,-4.8172,-4.9793,-5.1492,-5.3112,-5.4184,-5.3635,-5.2929,-5.1492,-4.8094,-4.6264,-4.4147,-4.0095,-3.8344,-3.7299,-3.6462,-3.8449,-4.0984,-4.3363,-4.812,-5.238,-5.4968,-5.6667,-5.7869,-5.8444,-5.8523,-5.8523,-5.8523,-5.8523,-5.8523,-5.8523,-5.8523,-5.8523,-5.8523,-5.8523,-5.8523,-5.8523,-5.8523,-5.8523,-5.8523,-5.8523,-5.8523,-5.8523,-5.8523,-5.8523,-5.8523,-5.8523,-5.8523,-5.8523,-5.8523,-5.8523,-5.8523,-5.8523,-5.8523,-5.8523,-5.8523,-5.8523,-5.8523,-5.8523,-5.8209,-5.7835,0.0,0.0,0.0,0.0,0.0,0.0,0.0,0.0,0.0,0.0,-1.5202,0.0,0.0,0.0,0.0,0.0,0.0,0.0,0.0,0.0,0.0,-2.2602,-2.3432,-2.4103,-2.4544,-2.5001,-2.5352,-2.5512,-2.5692,-2.6065,-2.6596,-2.6596,-2.6921,-2.749,-2.749,-2.7542,-2.7646,-2.7646,-2.7699,-2.7803,-2.7803,-2.7725,-2.7646,-2.7646,0.0,0.0,-2.8621,-2.9954,-3.194,-3.6175,-3.9311,-4.1821,-4.4016,-4.5529,-4.7048,-4.9374,-5.0577,-5.1544,-5.3269,-5.4341,-5.4811,-5.421,-5.2903,-5.0969,-4.8015,-4.5268,-4.2317,-3.8292,-3.6541,-3.5129,-3.3077,-3.6175,-3.9913,-4.2709,-4.7519,-5.2223,-5.5987,-5.7163,-5.7869,-5.8444,-5.8523,-5.8523,-5.8523,-5.8523,-5.8523,-5.8523,-5.8523,-5.8523,-5.8523,-5.8523,-5.8523,-5.8523,-5.8523,-5.8523,-5.8523,-5.8523,-5.8523,-5.8523,-5.8523,-5.8523,-5.8523,-5.8523,-5.8523,-5.8523,-5.8523,-5.8523,-5.8523,-5.8523,-5.8523,-5.8523,-5.8523,-5.8523,-5.8523,-5.8523,-5.8444,-5.8366,0.0,0.0,0.0,0.0,0.0,0.0,0.0,0.0,0.0,0.0,-1.6943,-1.6878,0.0,0.0,0.0,0.0,0.0,0.0,0.0,0.0,0.0,0.0,-2.2919,-2.3558,-2.3649,-2.476,-2.5159,-2.4728,0.0,-2.5544,-2.5338,-2.5179,-2.5299,-2.5621,-2.5683,-2.5929,-2.6216,-2.6504,-2.6817,-2.7105,-2.7385,-2.7673,-2.7968,0.0,0.0,0.0,-2.9431,-3.066,-3.2306,-3.5129,-3.8397,-4.1821,-4.5062,-4.6865,-4.812,-4.9819,-5.1152,-5.2328,-5.3478,-5.4419,-5.4889,-5.4001,-5.2459,-4.9949,-4.5271,-4.2683,-3.9834,-3.4894,-3.3666,-3.3064,-3.1653,-3.4424,-3.7691,-3.9991,-4.446,-4.9165,-5.3504,-5.5099,-5.651,-5.8314,-5.8523,-5.8627,-5.8941,-5.8967,-5.9072,-5.9385,-5.9411,-5.915,-5.8549,-5.8523,-5.8523,-5.8523,-5.8523,-5.8523,-5.8523,-5.8523,-5.8523,-5.8523,-5.8523,-5.8523,-5.8523,-5.8523,-5.8523,-5.8523,-5.8523,-5.8523,-5.8523,-5.8523,-5.8523,-5.8523,-5.8523,-5.8523,-5.8523,-5.8523,-5.8523,-5.8523,0.0,0.0,0.0,0.0,0.0,0.0,0.0,-1.536,-1.6215,-1.7764,-1.8542,-1.852,-1.7293,-1.6789,-1.6688,0.0,0.0,0.0,0.0,0.0,0.0,0.0,0.0,-2.317,-2.3296,0.0,0.0,0.0,-2.5228,0.0,0.0,0.0,0.0,0.0,-2.4213,-2.4562,-2.514,-2.548,-2.6033,0.0,0.0,-2.7863,0.0,0.0,0.0,0.0,0.0,-3.0921,-3.2202,-3.3849,-3.6436,-3.9625,-4.3441,-4.6029,-4.7911,-4.9296,-5.0864,-5.2354,-5.3295,-5.4314,-5.4811,-5.353,-5.1884,-4.8956,-4.2735,-4.0252,-3.7717,-3.228,-3.1444,-3.1522,-3.1078,-3.3038,-3.5469,-3.7717,-4.1428,-4.5904,-5.1294,-5.3174,-5.5232,-5.8394,-5.8761,-5.8862,-5.9307,-5.9464,-5.9725,-6.0195,-6.0222,-5.9777,-5.8758,-5.8575,-5.8523,-5.8523,-5.8523,-5.8523,-5.8523,-5.8523,-5.8523,-5.8523,-5.8523,-5.8523,-5.8523,-5.8523,-5.8523,-5.8523,-5.8523,-5.8523,-5.8523,-5.8523,-5.8523,-5.8523,-5.8523,-5.8523,-5.8523,-5.8523,-5.8523,-5.8523,0.0,0.0,0.0,0.0,0.0,0.0,0.0,-1.6166,-1.7324,-1.9394,-1.9379,-1.9118,-1.8992,-1.8327,-1.785,0.0,0.0,0.0,0.0,0.0,0.0,0.0,0.0,0.0,0.0,0.0,0.0,0.0,0.0,0.0,0.0,0.0,0.0,0.0,0.0,0.0,-2.5444,-2.5188,0.0,0.0,0.0,0.0,0.0,0.0,0.0,0.0,0.0,-2.9902,-3.0085,-3.33,-3.4319,-3.4737,-3.7743,-4.2004,-4.629,-4.8512,-5.0002,-5.1413,-5.3556,-5.4602,-5.4707,-5.3008,-5.1256,-4.846,-4.2631,-3.9625,-3.6854,-3.2581,-3.1392,-3.1052,-3.0999,-3.2045,-3.4188,-3.8031,-4.0331,-4.4362,-5.2296,-5.3465,-5.4984,-5.9129,-5.9404,-5.9307,-5.9359,-5.983,-6.0169,-6.0222,-6.0222,-5.9934,-5.9333,-5.881,-5.8523,-5.8523,-5.8523,-5.8523,-5.8523,-5.8523,-5.8523,-5.8523,-5.8523,-5.8523,-5.8523,-5.8523,-5.8523,-5.8523,-5.8523,-5.8523,-5.8523,-5.8523,-5.8523,-5.8523,-5.8523,-5.8523,-5.8523,-5.8523,-5.8523,-5.8523,0.0,0.0,0.0,0.0,0.0,0.0,0.0,-1.583,-1.6937,-1.9251,-1.9703,-1.9836,-1.9982,-1.9455,-1.8724,0.0,0.0,0.0,0.0,0.0,0.0,0.0,0.0,0.0,0.0,0.0,0.0,-2.5812,0.0,0.0,0.0,0.0,0.0,0.0,0.0,0.0,-2.5516,-2.5866,0.0,0.0,0.0,0.0,0.0,0.0,0.0,0.0,0.0,0.0,-3.0529,-3.1888,-3.2908,-3.3718,-3.4528,-3.7116,-4.0697,-4.4748,-4.7492,-4.9714,-5.2014,-5.3347,-5.3739,-5.2302,-5.0132,-4.7022,-4.1925,-3.871,-3.5783,-3.2097,-3.1156,-3.0973,-3.0973,-3.1728,-3.3075,-3.5267,-3.6858,-3.9887,-4.5874,-4.7863,-5.0472,-5.5338,-5.7036,-5.8366,-5.9751,-6.1225,-6.2183,-6.2557,-6.1442,-6.0509,-5.9908,-5.9333,-5.8862,-5.8523,-5.8523,-5.8523,-5.8523,-5.8523,-5.8523,-5.8523,-5.8523,-5.8523,-5.8523,-5.8523,-5.8523,-5.8523,-5.8523,-5.8523,-5.8523,-5.8523,-5.8523,-5.8523,-5.8523,-5.8523,-5.8523,-5.8523,-5.8523,-5.8523,0.0,0.0,0.0,0.0,0.0,0.0,-1.5299,-1.5781,-1.6713,-1.8966,-1.9631,-1.9979,-2.0303,-1.9781,-1.9101,-1.8262,0.0,0.0,0.0,0.0,0.0,0.0,0.0,0.0,0.0,0.0,0.0,-2.6751,-2.6901,0.0,0.0,0.0,0.0,0.0,0.0,0.0,0.0,0.0,0.0,0.0,0.0,0.0,0.0,0.0,0.0,0.0,0.0,0.0,0.0,0.0,0.0,-3.2515,-3.2254,-3.3404,-3.5861,-4.1089,-4.4643,-4.744,-4.9923,-5.1701,-5.2537,-5.1204,-4.8956,-4.582,-4.101,-3.7926,-3.5129,-3.1679,-3.0973,-3.0973,-3.0973,-3.1431,-3.2204,-3.342,-3.4641,-3.7224,-4.2289,-4.4519,-4.7476,-5.2605,-5.4735,-5.6899,-5.9581,-6.2469,-6.4215,-6.4174,-6.2858,-6.16,-6.0509,-5.9934,-5.9281,-5.8549,-5.8523,-5.8523,-5.8523,-5.8523,-5.8523,-5.8523,-5.8523,-5.8523,-5.8523,-5.8523,-5.8523,-5.8523,-5.8523,-5.8523,-5.8523,-5.8523,-5.8523,-5.8523,-5.8523,-5.8523,-5.8523,-5.8523,-5.8523,-5.8523,0.0,0.0,0.0,0.0,0.0,0.0,0.0,-1.6217,-1.7065,-1.8957,-1.9094,-1.9218,-1.9857,-1.9058,-1.8866,-1.9706,0.0,0.0,0.0,0.0,0.0,0.0,0.0,0.0,0.0,0.0,-2.6751,-2.7268,-2.7821,-2.8097,-2.8072,-2.7519,0.0,0.0,0.0,0.0,0.0,0.0,0.0,0.0,0.0,0.0,0.0,0.0,0.0,0.0,0.0,0.0,0.0,0.0,0.0,0.0,0.0,-3.1418,-3.2868,-3.8135,-4.169,-4.4539,-4.744,-4.9871,-5.1204,-4.9531,-4.778,-4.5114,-3.9913,-3.7377,-3.5129,-3.1679,-3.0973,-3.0973,-3.0973,-3.1011,-3.1587,-3.33,-3.4554,-3.7555,-4.4043,-4.5315,-4.74,-5.2208,-5.3183,-5.4878,-5.8666,-6.3473,-6.5751,-6.4274,-6.4201,-6.3258,-6.121,-6.0535,-5.9699,-5.8549,-5.8523,-5.8523,-5.8523,-5.8523,-5.8523,-5.8523,-5.8523,-5.8523,-5.8523,-5.8523,-5.8523,-5.8523,-5.8523,-5.8523,-5.8523,-5.8523,-5.8523,-5.8523,-5.8523,-5.8523,-5.8523,-5.8523,-5.8523,-5.8523,0.0,0.0,0.0,0.0,0.0,0.0,0.0,-1.4772,-1.5676,-1.7045,-1.7536,-1.8081,-1.8857,-1.8676,-1.8677,-1.9124,0.0,0.0,0.0,0.0,0.0,0.0,0.0,0.0,0.0,0.0,-2.7329,-2.7846,-2.8361,-2.8674,-2.8637,-2.8461,-2.8197,-2.7821,0.0,0.0,0.0,0.0,0.0,0.0,0.0,0.0,0.0,0.0,0.0,0.0,0.0,0.0,0.0,0.0,0.0,0.0,0.0,0.0,0.0,-3.4162,-3.7769,-4.1246,-4.2526,-4.4278,-4.5323,-4.3598,-4.216,-4.0331,-3.7116,-3.5338,-3.3744,-3.1444,-3.0973,-3.0973,-3.0973,-3.1394,-3.2539,-3.4926,-3.6722,-3.9176,-4.3006,-4.6916,-5.0407,-5.3104,-5.7902,-6.2248,-6.5354,-6.5195,-6.5538,-6.7151,-6.4419,-6.2538,-6.2104,-6.1863,-6.0909,-5.9195,-5.8732,-5.8523,-5.8523,-5.8523,-5.8523,-5.8523,-5.8523,-5.8523,-5.8523,-5.8523,-5.8523,-5.8523,-5.8523,-5.8523,-5.8523,-5.8523,-5.8523,-5.8523,-5.8523,-5.8523,-5.8523,-5.8523,-5.8523,-5.8523,0.0,0.0,0.0,0.0,0.0,0.0,0.0,-1.405,-1.4852,-1.6008,-1.6377,-1.7056,-1.8442,-1.8281,-1.838,-1.9178,0.0,0.0,0.0,0.0,0.0,0.0,0.0,0.0,0.0,-2.6816,-2.7645,-2.8423,-2.8976,-2.9314,-2.9515,-2.9314,-2.895,-2.8398,-2.7954,0.0,0.0,0.0,0.0,0.0,0.0,0.0,0.0,0.0,0.0,0.0,0.0,0.0,0.0,0.0,0.0,0.0,0.0,0.0,0.0,0.0,-3.4447,-3.7413,-3.8778,-4.0578,-4.1726,-4.0144,-3.8919,-3.7508,-3.5443,-3.4084,-3.2829,-3.1287,-3.0973,-3.0973,-3.0973,-3.1357,-3.2471,-3.4883,-3.6907,-3.9409,-4.2979,-4.7528,-5.1358,-5.3772,-5.9996,-6.4481,-6.5277,-6.6166,-6.6775,-6.7012,-6.4895,-6.3541,-6.3143,-6.2113,-6.1238,-6.0606,-5.974,-5.9035,-5.8523,-5.8523,-5.8523,-5.8523,-5.8523,-5.8523,-5.8523,-5.8523,-5.8523,-5.8523,-5.8523,-5.8523,0.0,-5.8523,-5.8523,-5.8523,-5.8523,-5.8523,-5.8523,-5.8523,-5.8523,-5.8523,0.0,0.0,0.0,0.0,0.0,0.0,0.0,0.0,0.0,0.0,-1.5574,-1.6207,-1.8405,-1.7845,-1.797,0.0,0.0,0.0,0.0,0.0,0.0,0.0,0.0,0.0,0.0,-2.7042,-2.7846,-2.8838,-2.9528,-3.0105,-3.0608,-3.0131,-2.9603,-2.8988,-2.8473,0.0,0.0,0.0,0.0,0.0,0.0,0.0,0.0,0.0,0.0,0.0,0.0,0.0,0.0,0.0,0.0,0.0,0.0,0.0,0.0,0.0,0.0,0.0,0.0,-3.8334,-3.9872,-3.8503,-3.7377,-3.6201,-3.4528,-3.3352,0.0,-3.1209,-3.0973,-3.1026,-3.1156,-3.1179,-3.1876,-3.4059,-3.6046,-3.9086,-4.4114,-4.7829,-5.1417,-5.5034,-6.0369,-6.2899,-6.0733,-6.6562,-6.8797,-6.4769,-6.5553,-6.5569,-6.4084,-6.1714,-6.0959,-6.2188,-6.1147,-5.9889,-5.8523,-5.8523,-5.8523,-5.8523,-5.8523,-5.8523,-5.8523,-5.8523,-5.8523,-5.8523,-5.8523,-5.8523,-5.8523,-5.8523,-5.8523,-5.8523,-5.8523,-5.8523,-5.8523,-5.8523,-5.8523,-5.8523,0.0,0.0,0.0,0.0,0.0,0.0,0.0,0.0,0.0,0.0,-1.5107,-1.5764,-1.6992,-1.7327,-1.7911,0.0,0.0,0.0,0.0,0.0,0.0,0.0,0.0,0.0,0.0,-2.7108,-2.8047,-2.8298,-2.9729,-3.0482,-3.0633,-3.0884,-3.0733,-3.0206,-2.9654,-2.9378,0.0,0.0,0.0,0.0,0.0,0.0,0.0,0.0,0.0,0.0,-2.9448,-2.9771,0.0,0.0,0.0,0.0,0.0,0.0,0.0,0.0,-3.0663,-3.1126,-3.1581,0.0,-3.5009,-3.3238,-3.2934,-3.2789,0.0,-3.1914,-3.1797,-3.113,-3.0973,-3.1392,-3.2725,-3.2771,-3.4089,-3.857,-4.1081,-4.4021,-4.8461,-5.4381,-5.9753,-6.3644,-6.5757,-6.6856,-6.6872,-6.6834,-6.685,-6.6918,-6.5125,-6.3472,-6.2264,-6.2563,-6.1723,-5.9528,-6.0188,-5.9889,-5.8523,-5.8523,-5.8523,-5.8523,-5.8523,-5.8523,-5.8523,-5.8523,-5.8523,-5.8523,-5.8523,-5.8523,-5.8523,-5.8523,-5.8523,-5.8523,-5.8523,-5.8523,-5.8523,-5.8523,-5.8523,-5.8523,0.0,0.0,0.0,0.0,0.0,0.0,0.0,0.0,0.0,0.0,0.0,0.0,0.0,0.0,0.0,0.0,0.0,0.0,0.0,0.0,0.0,0.0,0.0,0.0,-2.5826,-2.7115,-2.8097,-2.8875,-3.0055,-3.0859,-3.1361,-3.1386,-3.111,-3.0583,-3.0147,-2.9872,0.0,0.0,0.0,0.0,0.0,0.0,0.0,0.0,0.0,0.0,-2.8856,-2.9248,0.0,-3.0022,-3.0503,-3.0947,0.0,0.0,0.0,0.0,-2.9864,-2.9991,-3.0056,-3.1931,-3.3542,-3.2449,-3.2411,-3.2568,-3.2254,-3.181,-3.1365,-3.1052,-3.0973,-3.1491,-3.309,-3.3943,-3.5635,-3.9282,-4.3123,-4.7662,-5.3583,-5.854,-6.2549,-6.5246,-6.6719,-6.7248,-6.6562,-6.6251,-6.6126,-6.626,-6.4138,-6.291,-6.2991,-6.2136,-6.1449,-6.0916,-6.0687,-5.9889,-5.8523,-5.8523,-5.8523,-5.8523,-5.8523,-5.8523,-5.8523,-5.8523,-5.8523,-5.8523,-5.8523,-5.8523,-5.8523,-5.8523,-5.8523,-5.8523,-5.8523,-5.8523,-5.8523,-5.8523,-5.8523,-5.8523,0.0,0.0,0.0,0.0,0.0,0.0,0.0,0.0,0.0,0.0,0.0,0.0,0.0,0.0,0.0,0.0,0.0,0.0,0.0,0.0,0.0,0.0,0.0,-2.5375,-2.6427,-2.7082,-2.8147,-2.9654,-3.0457,-3.1311,-3.2215,-3.1913,-3.1411,-3.0708,-3.0351,-3.0164,0.0,0.0,0.0,0.0,0.0,0.0,0.0,0.0,0.0,0.0,0.0,0.0,0.0,-2.9693,-3.032,-3.0764,-3.0153,0.0,0.0,0.0,0.0,0.0,-3.0151,-3.2163,-3.3924,-3.3434,-3.3535,-3.3666,-3.3483,-3.2306,-3.1235,-3.1235,-3.1235,-3.1853,-3.3745,-3.5311,-3.7126,-3.948,-4.4694,-5.1052,-5.8513,-6.1283,-6.297,-6.4126,-6.5875,-6.6218,-6.4301,-6.5655,-6.6096,-6.4798,-6.346,-6.3156,-6.4279,-6.1538,-6.1059,-6.3504,-6.1616,-6.0027,-5.885,-5.885,-5.8709,-5.8523,-5.8523,-5.8523,-5.8523,-5.8523,-5.8523,-5.8523,-5.8523,-5.8523,-5.8523,-5.8523,-5.8523,-5.8523,-5.8523,-5.8523,-5.8523,-5.8523,-5.8523,-5.8523,0.0,0.0,0.0,0.0,0.0,0.0,0.0,0.0,0.0,0.0,0.0,0.0,0.0,0.0,0.0,0.0,0.0,0.0,0.0,0.0,0.0,0.0,-2.5832,-2.6183,-2.6154,-2.7345,-2.8348,-2.9013,-3.1009,-3.2064,-3.224,-3.3119,-3.2717,-3.126,-3.0773,-3.0388,-3.0126,0.0,0.0,0.0,0.0,0.0,0.0,0.0,0.0,0.0,0.0,0.0,0.0,-2.8621,-2.9379,-3.0127,-2.9588,0.0,0.0,0.0,0.0,0.0,-3.0869,-3.3275,-3.4616,-3.2568,-3.3195,-3.4005,-3.3064,-3.262,-3.2437,-3.2437,-3.2437,-3.3688,-3.776,-3.8184,-3.9628,-4.4785,-5.0383,-5.582,-6.0906,-6.3348,-6.4815,-6.5589,-6.6458,-6.6844,-6.6533,-6.6119,-6.5824,-6.5694,-6.431,-6.3348,-6.3083,-6.2571,-6.2448,-6.2914,-6.1396,-6.0483,-6.0303,-6.0303,-5.9707,-5.8523,-5.8523,-5.8523,-5.8523,-5.8523,-5.8523,-5.8523,-5.8523,-5.8523,-5.8523,-5.8523,-5.8523,-5.8523,-5.8523,-5.8523,-5.8523,-5.8523,-5.8523,-5.8523,0.0,0.0,0.0,0.0,0.0,0.0,0.0,0.0,0.0,0.0,0.0,0.0,0.0,0.0,0.0,0.0,0.0,0.0,0.0,0.0,0.0,-2.5673,-2.6505,-2.6876,-2.6769,-2.8238,-2.9428,-3.0256,-3.1888,-3.2993,-3.3571,-3.3169,-3.2265,-3.0959,-3.0407,-3.0069,-2.9934,-3.0049,0.0,0.0,0.0,0.0,0.0,0.0,0.0,0.0,0.0,0.0,0.0,0.0,-2.9064,-2.9996,-2.9457,0.0,0.0,0.0,0.0,0.0,-2.9928,-3.1914,-3.3442,-3.3666,-3.5704,-3.7508,-3.6985,-3.6149,-3.5417,-3.5077,-3.5025,-3.5901,-3.8753,-4.0938,-4.4508,-5.1266,-5.4367,-5.7369,-6.141,-6.3417,-6.4844,-6.5892,-6.6281,-6.6274,-6.589,-6.546,-6.4994,-6.425,-6.3593,-6.3083,-6.2802,-6.2773,-6.2773,-6.2773,-6.2175,-6.1436,-6.062,-6.062,-5.9889,-5.8523,-5.8523,-5.8523,-5.8523,-5.8523,-5.8523,-5.8523,-5.8523,-5.8523,-5.8523,-5.8523,-5.8523,-5.8523,-5.8523,-5.8523,-5.8523,-5.8523,-5.8523,-5.8523,0.0,0.0,0.0,0.0,0.0,0.0,0.0,0.0,0.0,0.0,0.0,0.0,0.0,0.0,0.0,0.0,0.0,0.0,0.0,0.0,-2.4798,-2.6287,-2.7072,-2.7595,-2.7871,-2.9252,-3.0507,-3.1587,-3.2842,-3.3897,-3.47,-3.3144,-3.1838,-3.0758,-3.0231,-2.9905,-2.9804,-2.9856,-2.9934,0.0,0.0,0.0,0.0,0.0,0.0,0.0,0.0,0.0,0.0,0.0,0.0,0.0,0.0,0.0,0.0,-2.8752,-2.8177,-2.8072,-2.964,-3.1052,-3.2581,-3.5077,-3.7351,-3.9285,-4.0383,-3.9207,-3.8004,-3.8344,-3.8318,-3.8701,-4.0318,-4.4316,-4.9269,-5.5253,-5.6809,-5.8427,-6.1446,-6.2954,-6.4122,-6.5126,-6.552,-6.5388,-6.4503,-6.5007,-6.4688,-6.2906,-6.3103,-6.33,-6.33,-6.33,-6.33,-6.33,-6.2972,-6.2109,-6.062,-6.0303,-5.9568,-5.8523,-5.8523,-5.8523,-5.8523,-5.8523,-5.8523,-5.8523,-5.8523,-5.8523,-5.8523,-5.8523,-5.8523,-5.8523,-5.8523,-5.8523,-5.8523,-5.8523,-5.8523,-5.8523,0.0,0.0,0.0,0.0,0.0,0.0,0.0,0.0,0.0,0.0,0.0,0.0,0.0,0.0,0.0,0.0,0.0,0.0,0.0,0.0,-2.5051,-2.7101,-2.7734,-2.8549,-2.9603,-3.0231,-3.1085,-3.2164,-3.3796,-3.4605,-3.47,-3.3545,-3.2416,-3.1311,-3.0783,-3.0281,-2.9804,-3.0011,-2.9972,-2.9818,0.0,0.0,0.0,0.0,0.0,0.0,0.0,0.0,0.0,0.0,0.0,0.0,0.0,0.0,-2.9918,-2.9379,-2.8839,-2.8935,-3.1679,-3.2542,-3.3326,-3.6175,-3.5835,-3.5966,-4.0278,-3.952,-3.8789,-4.1951,-4.216,-4.2464,-4.4624,-4.8964,-5.2575,-5.3695,-5.7243,-6.028,-6.1602,-6.2408,-6.2934,-6.3018,-6.4153,-6.4438,-6.3103,-6.5353,-6.5731,-6.2972,-6.4016,-6.4752,-6.4752,-6.4752,-6.4752,-6.4752,-6.3496,-6.2109,-6.062,-5.9315,-5.8567,-5.8523,-5.8523,-5.8523,-5.8523,-5.8523,-5.8523,-5.8523,-5.8523,-5.8523,-5.8523,-5.8523,-5.8523,-5.8523,-5.8523,-5.8523,-5.8523,-5.8523,-5.8523,-5.8523,0.0,0.0,0.0,0.0,0.0,0.0,0.0,0.0,0.0,0.0,0.0,0.0,0.0,0.0,0.0,0.0,0.0,0.0,0.0,0.0,-2.4933,-2.7673,-2.7996,-2.88,-3.0281,-3.116,-3.2315,-3.3727,-3.4705,-3.4831,-3.4198,-3.3068,-3.1964,-3.0884,-3.0357,-2.998,-2.9804,-3.0011,-2.9972,-2.9818,-3.0011,0.0,0.0,0.0,0.0,0.0,0.0,0.0,0.0,0.0,-2.8352,-2.9222,-2.8865,-2.9379,-2.9996,-2.9457,-2.8856,-2.8778,-3.0607,-3.2664,-3.4727,-3.6534,-3.7325,-3.8452,-4.1631,-4.2814,-4.3702,-4.5349,-4.6107,-4.6866,-4.8164,-5.1035,-5.3535,-5.444,-5.7973,-6.0681,-6.0981,-6.2103,-6.3103,-6.4016,-6.3822,-6.3366,-6.284,-6.3757,-6.3235,-6.0303,-6.3103,-6.4146,-6.2347,-6.3952,-6.4081,-6.2281,-6.1706,-6.0756,-5.9315,-5.8779,-5.8523,-5.8523,-5.8523,-5.8523,-5.8523,-5.8523,-5.8523,-5.8523,-5.8523,-5.8523,-5.8523,-5.8523,-5.8523,-5.8523,-5.8523,-5.8523,-5.8523,-5.8523,-5.8523,-5.8523,0.0,0.0,0.0,0.0,0.0,0.0,0.0,0.0,0.0,0.0,0.0,0.0,0.0,0.0,0.0,0.0,0.0,0.0,-2.2661,-2.3237,-2.4814,-2.7698,-2.8021,-2.89,-3.0583,-3.1662,-3.2867,-3.4198,-3.4705,-3.455,-3.3621,-3.2491,-3.1562,-3.0834,-3.0105,-2.988,-3.003,-3.0009,-2.9934,-2.9804,-2.9934,-2.9542,0.0,0.0,0.0,0.0,0.0,0.0,0.0,0.0,-2.8161,-2.8917,-2.8935,-2.9483,-3.0022,-2.9666,-2.964,-2.9928,-3.0712,-3.2821,-3.5197,-3.6867,-3.8459,-4.0374,-4.3441,-4.5062,-4.6525,-4.8538,-4.9165,-4.9568,-5.0184,-5.2112,-5.3883,-5.4727,-5.8071,-6.0386,-5.9962,-6.0784,-6.1773,-6.2745,-6.2442,-6.1908,-6.1504,-6.2641,-6.2109,-5.8779,-6.2877,-6.4081,-6.0756,-6.3337,-6.3562,-6.0688,-6.062,-5.9889,-5.8523,-5.8523,-5.8523,-5.8523,-5.8523,-5.8523,-5.8523,-5.8523,-5.8523,-5.8523,-5.8523,-5.8523,-5.8523,-5.8523,-5.8523,-5.8523,-5.8523,-5.8523,-5.8523,-5.8523,-5.8523,-5.8523,0.0,0.0,0.0,0.0,0.0,0.0,0.0,0.0,0.0,0.0,0.0,0.0,0.0,0.0,0.0,0.0,0.0,0.0,-2.2638,-2.3237,-2.4648,-2.7208,-2.7821,-2.89,-3.0557,-3.1662,-3.2491,-3.3136,-3.3621,-3.3621,-3.3086,-3.1913,-3.1386,-3.1336,-3.0281,-3.0105,-3.0583,-3.003,-2.9804,-2.9804,-2.9804,-2.9453,0.0,0.0,0.0,0.0,0.0,0.0,0.0,0.0,-2.811,-2.8317,-2.9673,-3.01,-3.01,-3.01,-3.1339,-3.2672,-3.2672,-3.3143,-3.4319,-3.7194,-3.8815,-4.088,-4.548,-4.5637,-4.629,-5.1465,-5.1126,-5.0106,-5.0707,-5.2372,-5.3766,-5.4118,-5.7304,-5.9383,-5.863,-5.8523,-5.8497,-5.8523,-5.9777,-6.0027,-5.8638,-6.2375,-6.3103,-5.885,-6.3728,-6.5071,-6.0825,-6.3272,-6.3562,-6.0688,-6.0551,-5.9889,-5.8523,-5.8523,-5.8523,-5.8523,-5.8523,-5.8523,-5.8523,-5.8523,-5.8523,-5.8523,-5.8523,-5.8523,-5.8523,-5.8523,-5.8523,-5.8523,-5.8523,-5.8523,-5.8523,-5.8523,-5.8523,-5.8523,0.0,0.0,0.0,0.0,0.0,0.0,0.0,0.0,0.0,0.0,0.0,0.0,0.0,0.0,0.0,0.0,0.0,0.0,-2.2075,-2.3142,-2.4774,-2.7218,-2.7821,-2.8774,-3.0238,-3.1066,-3.2203,-3.3646,-3.3997,-3.3391,-3.1888,-3.1537,-3.0984,-3.0281,-3.0331,-3.0256,-3.003,-3.0009,-2.9934,-2.9804,-2.9934,-2.9833,0.0,0.0,0.0,0.0,0.0,0.0,0.0,0.0,0.0,0.0,-2.8804,-2.9996,-3.1066,-2.9876,-3.0738,-3.1954,-3.1601,-3.4606,-3.8038,-3.8891,-4.274,-4.6731,-4.851,-4.8956,-5.0028,-5.3583,-5.3269,-5.2276,-5.204,-5.4207,-5.5616,-5.438,-5.7304,-5.9383,-5.863,-5.8523,-5.885,-5.9846,-5.9498,-5.9385,-5.9889,-6.0234,-5.9846,-5.8567,-6.0961,-6.1476,-5.9245,-6.0893,-6.1029,-5.9175,-5.9105,-5.892,-5.8523,-5.8523,-5.8523,-5.8523,-5.8523,-5.8523,-5.8523,-5.8523,-5.8523,-5.8523,-5.8523,-5.8523,-5.8523,-5.8523,-5.8523,-5.8523,-5.8523,-5.8523,-5.8523,-5.8523,-5.8523,-5.8523,0.0,0.0,0.0,0.0,0.0,0.0,0.0,0.0,0.0,0.0,-1.7822,0.0,0.0,0.0,0.0,0.0,0.0,0.0,0.0,-2.3475,-2.4841,-2.7218,-2.7821,-2.8762,-3.0275,-3.1187,-3.203,-3.2718,-3.3157,-3.2583,-3.1085,-3.1367,-3.114,-3.0432,-3.0783,-3.0733,-3.0407,-3.0363,-3.0097,-2.9804,-2.9934,-2.9895,-2.9704,0.0,0.0,0.0,0.0,0.0,0.0,0.0,0.0,0.0,-2.8307,-2.9327,-3.0451,-3.032,-3.1522,-3.3038,-3.3849,-3.6953,-4.0308,-4.1944,-4.5367,-4.8965,-5.1128,-5.1884,-5.272,-5.4707,-5.4184,-5.3478,-5.3792,-5.522,-5.6146,-5.5651,-5.7656,-5.9057,-5.8612,-5.8523,-5.885,-5.9638,-5.9035,-5.885,-5.9707,-5.9498,-5.9105,-5.8523,-6.0372,-6.0578,-5.8567,-5.9846,-5.9958,-5.8497,-5.8523,-5.8523,-5.8523,-5.8523,-5.8523,-5.8523,-5.8523,-5.8523,-5.8523,-5.8523,-5.8523,-5.8523,-5.8523,-5.8523,-5.8523,-5.8523,-5.8523,-5.8523,-5.8523,-5.8523,-5.8523,-5.8523,-5.8523,-5.8523,0.0,0.0,0.0,0.0,0.0,0.0,0.0,0.0,0.0,0.0,-1.8133,-1.8579,0.0,0.0,0.0,0.0,0.0,0.0,0.0,0.0,-2.489,-2.7218,-2.7932,-2.9013,-3.0507,-3.165,-3.1794,-3.0863,-3.1672,-3.1552,-3.0597,-3.1337,-3.159,-3.1351,-3.1361,-3.1336,-3.121,-3.0683,-3.0156,-2.9692,-2.9742,-2.9717,-2.9566,-2.8586,0.0,0.0,0.0,0.0,0.0,0.0,0.0,0.0,-2.8169,-2.8472,-2.8935,-3.0962,-3.2934,-3.4972,-3.7612,-3.9416,-4.1507,-4.5428,-4.7153,-4.9008,-5.3295,-5.4288,-5.4445,-5.4994,-5.4288,-5.4027,-5.5621,-5.5543,-5.5778,-5.7468,-5.8131,-5.8523,-5.8523,-5.8523,-5.8523,-5.8523,-5.8523,-5.8523,-5.8523,-5.9638,-5.9889,-5.8567,-6.092,-6.1233,-5.8638,-5.9707,-5.982,-5.8523,-5.8523,-5.8523,-5.8523,-5.8523,-5.8523,-5.8523,-5.8523,-5.8523,-5.8523,-5.8523,-5.8523,-5.8523,-5.8523,-5.8523,-5.8523,-5.8523,-5.8523,-5.8523,-5.8523,-5.8523,-5.8523,-5.8523,-5.8523,-5.8523,0.0,0.0,0.0,0.0,0.0,0.0,0.0,0.0,0.0,0.0,0.0,0.0,0.0,0.0,0.0,0.0,0.0,0.0,0.0,0.0,-2.5213,-2.7218,-2.8835,-2.9847,-3.0227,-3.0637,-3.0714,-3.0509,-3.1731,-3.1666,-3.0458,-3.132,-3.1468,-3.1023,-3.1291,-3.0909,-3.0105,-2.9528,-2.9051,-2.8746,-2.915,-2.9074,-2.872,-2.8897,-2.8344,0.0,0.0,0.0,0.0,0.0,0.0,0.0,-2.8203,-2.9013,-2.9735,-2.9823,-3.1993,-3.4528,-3.5155,-3.8501,-4.2448,-4.514,-4.8982,-5.2589,-5.4471,-5.4916,-5.4942,-5.5072,-5.4916,-5.4968,-5.5778,-5.6196,-5.6719,-5.7529,-5.8131,-5.8523,-5.8523,-5.8523,-5.8523,-5.8523,-5.8523,-5.8523,-5.8523,-5.8779,-5.885,-5.8523,-5.9035,-5.9175,-5.8523,-5.8779,-5.885,-5.8523,-5.8523,-5.8523,-5.8523,-5.8523,-5.8523,-5.8523,-5.8523,-5.8523,-5.8523,-5.8523,-5.8523,-5.8523,-5.8523,-5.8523,-5.8523,-5.8523,-5.8523,-5.8523,-5.8523,-5.8523,-5.8523,-5.8523,-5.8523,-5.8523,0.0,0.0,0.0,0.0,0.0,0.0,0.0,0.0,0.0,0.0,0.0,0.0,0.0,0.0,0.0,0.0,0.0,0.0,0.0,-2.4755,-2.5802,-2.762,-2.9252,-3.0126,-3.0126,-2.9998,-3.0188,-3.052,-3.097,-3.1023,-3.0804,-3.1891,-3.2281,-3.2117,-3.2396,-3.1766,-3.0507,-2.9871,-2.9264,-2.8819,-2.9173,-2.9159,-2.8904,-2.8624,-2.813,-2.7475,-2.7139,0.0,0.0,0.0,0.0,0.0,0.0,0.0,-2.9004,-2.9849,-3.1365,-3.3352,-3.6149,-3.9285,-4.284,-4.7362,-5.0969,-5.3687,-5.4837,-5.5099,-5.5099,-5.5099,-5.5099,-5.5255,-5.5804,-5.617,-5.6667,-5.7529,-5.7895,-5.8209,-5.847,-5.8523,-5.8523,-5.8523,-5.8523,-5.8523,-5.8523,-5.8523,-5.8523,-5.8523,-5.8523,-5.8523,-5.8523,-5.8523,-5.8523,-5.8523,-5.8523,-5.8523,-5.8523,-5.8523,-5.8523,-5.8523,-5.8523,-5.8523,-5.8523,-5.8523,-5.8523,-5.8523,-5.8523,-5.8523,-5.8523,-5.8523,-5.8523,-5.8523,-5.8523,-5.8523,-5.8523,-5.8523,-5.8523,-5.8523,0.0,0.0,0.0,0.0,0.0,0.0,0.0,0.0,0.0,0.0,0.0,0.0,0.0,0.0,0.0,0.0,0.0,0.0,0.0,-2.5737,-2.654,-2.8047,-2.9265,-2.9897,-2.9935,-2.9592,-2.9753,-3.0543,-3.0014,-3.0481,-3.1923,-3.2791,-3.3338,-3.3513,-3.3538,-3.2673,-3.1155,-3.0356,-2.959,-2.8904,-2.9153,-2.9226,-2.9021,-2.8071,-2.7635,-2.7396,-2.6535,-2.6634,-2.7159,-2.7326,0.0,0.0,0.0,0.0,-2.7881,-2.9954,-3.0738,-3.2071,-3.7063,-3.9991,-4.3206,-4.9819,-5.2276,-5.3426,-5.4654,-5.4942,-5.4968,-5.5072,-5.5099,-5.5255,-5.5804,-5.5909,-5.6249,-5.7346,-5.7651,-5.7817,-5.8314,-5.8444,-5.8523,-5.8523,-5.8523,-5.8523,-5.8523,-5.8523,-5.8523,-5.8523,-5.8523,-5.8523,-5.8523,-5.8523,-5.8523,-5.8523,-5.8523,-5.8523,-5.8523,-5.8523,-5.8523,-5.8523,-5.8523,-5.8523,-5.8523,-5.8523,-5.8523,-5.8523,-5.8523,-5.8523,-5.8523,-5.8523,-5.8523,-5.8523,-5.8523,-5.8523,-5.8523,-5.8523,-5.8523,-5.8523,0.0,0.0,0.0,0.0,0.0,0.0,0.0,0.0,0.0,0.0,-1.9584,-1.9966,-1.9966,-2.1069,0.0,0.0,0.0,0.0,-2.4818,0.0,0.0,-2.8072,-2.8699,-2.9139,-2.9327,-2.9101,-2.9313,-2.9921,-2.9685,-3.1306,-3.4731,-3.3664,-3.3504,-3.3979,-3.3296,-3.2085,-3.0484,-2.9358,-2.8389,-2.7575,-2.8092,-2.8023,-2.7558,-2.7403,-2.694,-2.6268,-2.5788,-2.6007,-2.6531,-2.6726,-2.7131,0.0,0.0,0.0,-2.7646,-2.849,-2.9833,-3.1365,-3.3143,-3.8109,-4.4095,-4.9531,-5.1361,-5.2276,-5.3949,-5.4314,-5.4471,-5.4994,-5.5099,-5.5255,-5.5804,-5.5909,-5.6118,-5.6824,-5.7346,-5.7756,-5.7835,-5.8209,-5.8523,-5.8523,-5.8523,-5.8523,-5.8523,-5.8523,-5.8523,-5.8523,-5.8523,-5.8523,-5.8523,-5.8523,-5.8523,-5.8523,-5.8523,-5.8523,-5.8523,-5.8523,-5.8523,-5.8523,-5.8523,-5.8523,-5.8523,-5.8523,-5.8523,-5.8523,-5.8523,-5.8523,-5.8523,-5.8523,-5.8523,-5.8523,-5.8523,-5.8523,-5.8523,-5.8523,-5.8523,-5.8523,0.0,0.0,0.0,0.0,0.0,0.0,0.0,0.0,0.0,0.0,0.0,-2.0368,-2.1037,-2.138,0.0,0.0,0.0,0.0,-2.5176,-2.6239,0.0,0.0,-2.8172,-2.8547,-2.8743,-2.8257,-2.8591,-2.9818,-2.9016,-3.1035,-3.573,-3.5106,-3.5591,-3.6884,-3.5711,-3.415,-3.2177,-3.0286,-2.9025,-2.8248,-2.8274,-2.909,-3.0079,-2.7814,-2.7754,-2.8542,-2.6115,-2.5777,-2.659,-2.6687,-2.7053,-2.749,-2.749,0.0,0.0,0.0,-2.8001,-2.9536,-3.3927,-3.8972,-4.4121,-4.8695,-5.0498,-5.1518,-5.2929,-5.3504,-5.3818,-5.4079,-5.4158,-5.4419,-5.5308,-5.5465,-5.5647,-5.6223,-5.651,-5.6798,-5.7137,-5.7399,-5.7686,-5.8,-5.8026,-5.8157,-5.847,-5.8523,-5.8523,-5.8523,-5.8523,-5.8523,-5.8523,-5.8523,-5.8523,-5.8523,-5.8523,-5.8523,-5.8523,-5.8523,-5.8523,-5.8523,-5.8523,-5.8523,-5.8523,-5.8523,-5.8523,-5.8523,-5.8523,-5.8523,-5.8523,-5.8523,-5.8523,-5.8523,-5.8523,-5.8523,-5.8523,-5.8523,-5.8523,-5.8523,0.0,0.0,0.0,0.0,0.0,0.0,0.0,0.0,0.0,0.0,0.0,0.0,-2.1855,0.0,0.0,0.0,0.0,0.0,-2.5101,0.0,0.0,0.0,0.0,-2.8005,-2.8185,-2.7672,-2.8053,-2.9378,-2.8573,-3.0879,-3.6096,-3.6253,-3.7704,-4.0089,-3.8408,-3.6207,-3.3601,-3.1603,-3.0377,-2.9694,-2.9552,-3.0764,-3.2437,-3.0006,-3.032,-3.1575,-2.7871,-2.7085,-2.7687,-2.6955,-2.7053,-2.7464,-2.7333,-2.7027,0.0,0.0,0.0,-2.7811,-3.4005,-3.8109,-4.1742,-4.6395,-4.8407,-4.9714,-5.1439,-5.2302,-5.2825,-5.3112,-5.3295,-5.3661,-5.4497,-5.4785,-5.5046,-5.5621,-5.583,-5.6066,-5.651,-5.6719,-5.6981,-5.7399,-5.7451,-5.7608,-5.8052,-5.8209,-5.8314,-5.8314,-5.8418,-5.8523,-5.8523,-5.8523,-5.8523,-5.8523,-5.8523,-5.8523,-5.8523,-5.8523,-5.8523,-5.8523,-5.8523,-5.8523,-5.8523,-5.8523,-5.8523,-5.8523,-5.8523,-5.8523,-5.8523,-5.8523,-5.8523,-5.8523,-5.8523,-5.8523,-5.8523,-5.8523,-5.8523,-5.8523,0.0,0.0,0.0,0.0,0.0,0.0,0.0,0.0,0.0,0.0,0.0,0.0,-2.2073,-2.2456,-2.2805,-2.3024,0.0,0.0,0.0,0.0,0.0,0.0,0.0,0.0,-2.7627,-2.7601,-2.7777,-2.8178,-2.8679,-3.1421,-3.6123,-3.6698,-3.9076,-4.2684,-4.0488,-3.7299,-3.3546,-3.2855,-3.2228,-3.1719,-3.2254,-3.2568,-3.2908,-3.4868,-3.5391,-3.4685,-3.1731,-3.0749,-3.0383,-2.7635,-2.7053,-2.7411,-2.6896,-2.6719,-2.6614,0.0,0.0,0.0,-3.0936,-3.3064,-3.5574,-4.1794,-4.4146,-4.5924,-4.927,-5.0498,-5.123,-5.2328,-5.3008,-5.3426,-5.3478,-5.3896,-5.4445,-5.5046,-5.5569,-5.5909,-5.5961,-5.6458,-5.6824,-5.685,-5.685,-5.6876,-5.6902,-5.7399,-5.7782,-5.7782,-5.8209,-5.8523,-5.8523,-5.8523,-5.8523,-5.8523,-5.8523,-5.8523,-5.8523,-5.8523,-5.8523,-5.8523,-5.8523,-5.8523,-5.8523,-5.8523,-5.8523,-5.8523,-5.8523,-5.8523,-5.8523,-5.8523,-5.8523,-5.8523,-5.8523,-5.8523,-5.8523,-5.8523,-5.8523,-5.8523,0.0,0.0,0.0,0.0,0.0,0.0,0.0,0.0,0.0,0.0,0.0,0.0,0.0,-2.3332,-2.2924,-2.3604,-2.3678,0.0,0.0,0.0,0.0,0.0,0.0,0.0,-2.6905,-2.7364,-2.7717,-2.7962,-2.8247,-3.05,-3.4528,-3.5809,-3.7403,-3.9128,-3.871,-3.79,-3.6671,-3.3483,-3.2228,-3.2437,-3.3038,-3.458,-3.6436,-3.5391,-3.6724,-3.8632,-3.4607,-3.296,-3.2437,-3.1026,-2.9693,-2.849,-2.7523,-2.6713,-2.5955,-2.5014,-2.5741,-2.7438,-2.9996,-3.215,-3.458,-3.871,-4.1428,-4.3598,-4.5584,-4.7937,-4.9897,-5.0655,-5.1309,-5.1936,-5.2694,-5.3583,-5.4262,-5.4497,-5.502,-5.5386,-5.5386,-5.5569,-5.583,-5.6196,-5.6223,-5.6379,-5.6771,-5.7007,-5.7111,-5.7111,-5.7634,-5.7974,-5.7974,-5.8314,-5.8523,-5.8523,-5.8523,-5.8523,-5.8523,-5.8523,-5.8523,-5.8523,-5.8523,-5.8523,-5.8523,-5.8523,-5.8523,-5.8523,-5.8523,-5.8523,-5.8523,-5.8523,-5.8523,-5.8523,-5.8523,-5.8523,-5.8523,-5.8523,-5.8523,-5.8523,0.0,0.0,0.0,0.0,0.0,0.0,0.0,0.0,0.0,-2.2241,0.0,0.0,0.0,0.0,-2.398,-2.4486,-2.4381,-2.4582,-2.5285,0.0,0.0,0.0,0.0,0.0,-2.6776,-2.7576,-2.7931,-2.7866,-2.8282,-3.0053,-3.3038,-3.4345,-3.5678,-3.6985,-3.641,-3.7011,-3.824,-3.5322,-3.4136,-3.4267,-3.5626,-3.7194,-3.871,-3.8736,-4.0174,-4.1742,-3.8475,-3.6802,-3.5966,-3.4607,-3.2881,-3.0999,-2.9248,-2.7236,-2.5354,-2.4357,-2.5427,-2.7229,-2.8595,-3.0529,-3.296,-3.6436,-3.8449,-4.0357,-4.352,-4.5663,-4.7492,-4.9008,-4.9793,-5.0577,-5.1727,-5.2694,-5.3452,-5.387,-5.4419,-5.4811,-5.4811,-5.4968,-5.5229,-5.5595,-5.5647,-5.5804,-5.6196,-5.6405,-5.651,-5.651,-5.7216,-5.773,-5.773,-5.8209,-5.8523,-5.8523,-5.8523,-5.8523,-5.8523,-5.8523,-5.8523,-5.8523,-5.8523,-5.8523,-5.8523,-5.8523,-5.8523,-5.8523,-5.8523,-5.8523,-5.8523,-5.8523,-5.8523,-5.8523,-5.8523,-5.8523,-5.8523,-5.8523,-5.8523,-5.8523,0.0,0.0,0.0,0.0,0.0,0.0,0.0,0.0,-2.24,-2.1708,0.0,0.0,0.0,0.0,0.0,-2.5661,-2.5151,-2.4818,-2.485,-2.536,0.0,0.0,0.0,0.0,-2.7293,-2.8242,-2.8421,-2.7806,-2.8811,-3.0137,-3.1719,-3.2359,-3.4136,-3.6724,-3.3979,-3.4633,-3.7821,-3.8292,-3.7926,-3.7299,-4.0095,-4.0305,-3.9547,-4.514,-4.595,-4.4016,-4.3415,-4.2448,-4.1036,-3.8214,-3.641,-3.4842,-3.1888,-2.8263,-2.494,-2.436,-2.4958,-2.5976,0.0,0.0,0.0,-3.4789,-3.5129,-3.6123,-4.2892,-4.3624,-4.3885,-4.731,-4.8538,-4.9322,-5.0524,-5.1178,-5.191,-5.3138,-5.3792,-5.4184,-5.4184,-5.4707,-5.5072,-5.5072,-5.5099,-5.5099,-5.5099,-5.5569,-5.5883,-5.5883,-5.6954,-5.7678,-5.7704,-5.8209,-5.8523,-5.8523,-5.8523,-5.8523,-5.8523,-5.8523,-5.8523,-5.8523,-5.8523,-5.8523,-5.8523,-5.8523,-5.8523,-5.8523,-5.8523,-5.8523,-5.8523,-5.8523,-5.8523,-5.8523,-5.8523,-5.8523,-5.8523,-5.8523,-5.8523,-5.8523,0.0,0.0,0.0,0.0,0.0,-2.1214,-2.2213,-2.276,-2.356,0.0,0.0,0.0,-2.7058,-2.6457,-2.6154,-2.6517,-2.5619,-2.5453,-2.6531,-2.6399,-2.6248,-2.6248,-2.7293,-2.7695,-2.7329,-2.8453,-2.866,-2.7806,-2.8669,-2.9158,-2.9353,-3.079,-3.2097,-3.3259,-3.3718,-3.4476,-3.526,-3.377,-3.5103,-3.8266,-3.8684,-4.1063,-4.4408,-4.5166,-4.7127,-4.927,-4.7911,-4.6395,-4.4853,-4.365,-4.0252,-3.5809,-3.1679,-2.8464,-2.6196,-2.6039,-2.6791,-2.7628,-2.7366,0.0,0.0,0.0,0.0,0.0,-3.6149,-3.8344,-4.0775,-4.3833,-4.5271,-4.6708,-4.9113,-4.9688,-5.0159,-5.1309,-5.2694,-5.3609,-5.3609,-5.4105,-5.4445,-5.4445,-5.4837,-5.5099,-5.5099,-5.5229,-5.5334,-5.5334,-5.5987,-5.6588,-5.7033,-5.7974,-5.8523,-5.8523,-5.8523,-5.8523,-5.8523,-5.8523,-5.8523,-5.8523,-5.8523,-5.8523,-5.8523,-5.8523,-5.8523,-5.8523,-5.8523,-5.8523,-5.8523,-5.8523,-5.8523,-5.8523,-5.8523,-5.8523,-5.8523,-5.8523,-5.8523,-5.8452,0.0,0.0,0.0,0.0,0.0,-2.2488,-2.3054,-2.3958,-2.4811,0.0,0.0,0.0,-2.9026,-2.8793,-2.8488,-2.8134,-2.725,-2.6856,-2.7258,-2.7027,-2.6725,-2.6499,-2.7519,-2.7946,-2.7645,-2.8997,-2.9182,-2.8129,-2.8773,-2.8881,-2.842,-2.9467,-3.0215,-3.0817,-3.1548,-3.2306,-3.2855,-3.1052,-3.3117,-3.7821,-4.0174,-4.2709,-4.5218,-4.6944,-4.8826,-5.0498,-5.0237,-4.9348,-4.8198,-4.7597,-4.3415,-3.7717,-3.3587,-3.0686,-2.8595,-2.7392,-2.8203,-2.9301,-2.849,-2.9353,-3.0581,-3.0973,0.0,0.0,-3.5103,-3.6541,-3.837,-4.2239,-4.3572,-4.4853,-4.7519,-4.7989,-4.846,-4.9845,-5.0943,-5.1936,-5.2877,-5.3504,-5.387,-5.387,-5.4184,-5.4471,-5.4707,-5.4733,-5.4837,-5.5072,-5.5595,-5.6275,-5.7111,-5.7791,-5.8261,-5.8497,-5.8523,-5.8523,-5.8523,-5.8523,-5.8523,-5.8523,-5.8523,-5.8523,-5.8523,-5.8523,-5.8523,-5.8523,-5.8523,-5.8523,-5.8523,-5.8523,-5.8523,-5.8523,-5.8523,-5.8523,-5.8452,-5.8284,-5.8212,-5.8239,0.0,0.0,-2.3225,-2.3329,-2.3681,-2.3909,-2.3762,-2.5279,-2.6194,0.0,-2.7732,-2.9841,-3.0959,-3.173,-3.1614,-3.0357,-2.9426,-2.8487,-2.762,-2.7394,-2.7102,-2.66,-2.7544,-2.8122,-2.8234,-2.9643,-2.983,-2.8754,-2.9087,-2.9013,-2.8525,-2.836,-2.8629,-2.9179,-2.8656,-2.931,-3.0764,-3.0147,-3.2359,-3.6802,-4.2552,-4.4434,-4.4356,-4.9453,-5.0707,-4.9949,-5.1361,-5.1544,-5.0943,-5.0002,-4.5872,-4.0461,-3.6907,-3.4319,-3.198,-2.903,-2.9797,-3.1313,-3.02,-3.0686,-3.1862,-3.3169,-3.2097,0.0,-3.6671,-3.6384,-3.6436,-4.1115,-4.2108,-4.2866,-4.5192,-4.5715,-4.6342,-4.7963,-4.8538,-4.961,-5.1962,-5.2825,-5.3217,-5.3295,-5.3347,-5.3583,-5.4053,-5.4158,-5.4419,-5.4968,-5.5569,-5.6353,-5.7399,-5.7651,-5.7895,-5.8392,-5.847,-5.8523,-5.8523,-5.8523,-5.8523,-5.8523,-5.8523,-5.8523,-5.8523,-5.8523,-5.8523,-5.8523,-5.8523,-5.8523,-5.8523,-5.8523,-5.8523,-5.8523,-5.8523,-5.8523,-5.8452,-5.807,-5.7927,-5.7856,0.0,-2.306,-2.3412,-2.4115,-2.4301,-2.4952,-2.6711,-2.7273,-2.8138,-2.9899,-3.1755,-3.3169,-3.3847,-3.2684,-3.2209,-3.305,-3.0327,-2.8782,-2.9264,-2.8047,-2.7243,-2.7153,-2.7745,-2.8371,-2.8973,-2.977,-2.996,-2.9563,-2.9223,-2.908,-2.9127,-2.815,-2.7994,-2.8577,-2.8472,-2.8865,-2.9771,-3.2333,-3.4999,-3.7691,-3.939,-4.3467,-4.8669,-4.9793,-5.1779,-5.3896,-5.3739,-5.3347,-5.2433,-4.9505,-4.7074,-4.4539,-4.0148,-3.8135,-3.6724,-3.3378,-3.3692,-3.4868,-3.3718,-3.4241,-3.4737,-3.3247,-3.3587,0.0,-3.2137,-3.2908,-3.4345,-3.5783,-3.6462,-3.7508,-3.9808,-4.0984,-4.1873,-4.2709,-4.5166,-4.7963,-5.0734,-5.1596,-5.2119,-5.2616,-5.3086,-5.3452,-5.353,-5.3949,-5.4262,-5.4367,-5.5334,-5.6013,-5.6249,-5.7137,-5.7782,-5.7817,-5.8261,-5.8523,-5.8523,-5.8523,-5.8523,-5.8523,-5.8523,-5.8523,-5.8523,-5.8523,-5.8523,-5.8523,-5.8523,-5.8523,-5.8523,-5.8523,-5.8523,-5.8523,-5.8523,-5.8523,-5.8523,-5.8426,-5.8141,-5.7856,0.0,-2.3701,-2.4074,-2.4735,-2.5024,-2.5813,-2.7782,-2.8099,-2.9238,-3.2091,-3.4502,-3.573,-3.5157,-3.4761,-3.4322,-3.3928,-3.1985,-3.053,-2.9816,-2.9001,-2.8273,-2.772,-2.8222,-2.8724,-2.92,-2.9897,-3.0086,-2.9818,-2.9382,-2.9073,-2.8839,-2.7941,-2.843,-3.0059,-2.8908,-2.9666,-3.1862,-3.2437,-3.4528,-3.7769,-4.1507,-4.5767,-5.008,-5.1831,-5.3583,-5.5072,-5.4759,-5.4288,-5.3321,-5.0106,-4.7885,-4.5872,-4.2396,-4.0906,-3.9808,-3.6671,-3.675,-3.7482,-3.573,-3.5652,-3.5887,-3.5051,-3.4842,0.0,0.0,-3.3117,-3.3796,-3.607,-3.5887,-3.6096,-3.8684,-3.9155,-3.9547,-4.0671,-4.3049,-4.5166,-4.6316,-4.8721,-5.0551,-5.1126,-5.123,-5.157,-5.2406,-5.2746,-5.3269,-5.4131,-5.4733,-5.5308,-5.5883,-5.6458,-5.7059,-5.7704,-5.7948,-5.8235,-5.8523,-5.8523,-5.8523,-5.8523,-5.8523,-5.8523,-5.8523,-5.8523,-5.8523,-5.8523,-5.8523,-5.8523,-5.8523,-5.8284,-5.8212,-5.8212,-5.8212,-5.8212,-5.8141,-5.7784,-5.7667,-5.7595,-2.3784,-2.424,-2.4652,-2.5106,-2.5826,-2.6822,-2.8245,-2.905,-3.0672,-3.3855,-3.6848,-3.8315,-3.7134,-3.781,-3.7783,-3.6467,-3.5052,-3.3442,-3.1609,-3.0802,-2.9932,-2.9026,-2.8963,-2.9277,-2.9948,-3.0291,-3.0326,-3.0047,-2.9542,-2.9091,-2.8699,-2.802,-2.903,-3.1406,-2.9902,-3.1078,-3.4136,-3.2751,-3.4607,-3.8998,-4.4957,-4.7885,-4.9139,-5.2851,-5.4262,-5.4341,-5.4916,-5.4785,-5.3922,-5.1047,-4.8826,-4.6813,-4.3938,-4.3023,-4.2421,-3.9181,-3.9285,-3.9913,-3.756,-3.7168,-3.7377,-3.7063,-3.6358,-3.5678,0.0,0.0,0.0,-3.6959,-3.607,-3.5521,-3.7848,-3.7612,-3.7482,-3.8736,-4.0775,-4.1925,-4.1115,-4.4696,-4.7702,-4.8486,-4.8773,-4.9401,-5.0655,-5.0681,-5.1518,-5.3713,-5.3478,-5.3896,-5.5491,-5.5778,-5.6405,-5.7451,-5.7678,-5.7921,-5.8497,-5.8523,-5.8523,-5.8523,-5.8523,-5.8523,-5.8523,-5.8523,-5.8523,-5.8523,-5.8523,-5.8523,-5.8452,-5.8141,-5.7927,-5.7784,-5.7784,-5.7784,-5.7713,-5.7163,-5.7091,-5.7163,-2.3784,-2.424,-2.4652,-2.5106,-2.6726,-2.8289,-2.9233,-3.132,-3.3929,-3.7045,-3.9752,-4.1656,-4.2493,-4.2509,-4.3156,-4.5012,-4.0901,-3.806,-3.7613,-3.4328,-3.2301,-3.2092,-3.0201,-3.033,-3.2794,-3.1384,-3.0722,-3.0857,-2.9797,-2.951,-2.9865,-2.8804,-2.9013,-3.0361,-3.1653,-3.2751,-3.3796,-3.5574,-3.9233,-4.4042,-4.6338,-4.6212,-4.5036,-4.9557,-5.1282,-5.1622,-5.4184,-5.5072,-5.455,-5.1675,-5.0524,-4.9453,-4.4565,-4.4382,-4.5114,-4.0697,-4.1298,-4.2892,-4.0566,-4.1063,-4.1402,-3.7874,-3.8789,-3.9233,-3.4214,0.0,-3.4685,-3.3613,0.0,-3.3091,-3.3404,0.0,0.0,-3.3613,-3.6724,-3.8632,-3.7011,-3.9442,-4.2004,-4.3598,-4.6447,-4.8172,-4.78,-4.7362,-4.8616,-5.2406,-5.0812,-5.1047,-5.4236,-5.536,-5.6223,-5.6876,-5.7399,-5.7921,-5.8497,-5.8523,-5.8523,-5.8523,-5.8523,-5.8523,-5.8523,-5.8523,-5.8523,-5.8523,-5.8523,-5.8523,-5.8523,-5.8452,-5.8025,-5.7451,-5.7451,-5.7451,-5.7451,-5.7379,-5.7163,-5.6874,-2.3784,-2.424,-2.4652,-2.5106,-2.6299,-2.7988,-3.0305,-3.5429,-3.8993,-3.9063,-4.1954,-4.4198,-4.474,-4.4108,-4.4292,-4.5942,-4.3499,-4.1132,-3.9415,-3.7134,-3.5372,-3.4331,-3.2439,-3.2012,-3.329,-3.1902,-3.1123,-3.0973,-2.9886,-2.9405,-2.9614,-2.8778,-2.9902,-3.2646,-3.3352,-3.5678,-3.905,-3.8684,-4.0148,-4.2892,-4.4643,-4.4539,-4.4173,-5.1492,-5.4288,-5.4393,-5.5255,-5.5569,-5.5125,-5.2223,-5.0368,-4.9008,-4.7492,-4.6055,-4.4722,-4.3467,-4.3232,-4.2944,-4.0958,-4.169,-4.2291,-3.9259,-3.9651,-3.973,-3.56,-3.4476,-3.4371,-3.4633,0.0,0.0,0.0,0.0,0.0,0.0,-3.5182,-3.6123,-3.4371,-3.6907,-3.9468,-4.088,-4.2317,-4.3885,-4.5607,-4.6212,-4.7597,-5.0315,-4.9636,-5.0289,-5.306,-5.4288,-5.5334,-5.6249,-5.685,-5.7425,-5.8,-5.834,-5.8523,-5.8523,-5.8523,-5.8523,-5.8523,-5.8523,-5.8523,-5.8523,-5.8523,-5.8523,-5.8452,-5.8212,-5.7882,-5.7379,-5.7163,-5.7019,-5.7019,-5.6801,-5.6729,-5.6801,-2.3805,0.0,-2.4955,-2.5312,-2.6736,-2.9047,-3.2737,-3.8317,-4.1792,-4.0821,-4.3619,-4.6,-4.6643,-4.6315,-4.6708,-4.8368,-4.7179,-4.5288,-4.2859,-4.077,-3.9043,-3.7758,-3.5182,-3.4082,-3.476,-3.3019,-3.1785,-3.1209,-3.0085,-2.9588,-2.9745,-2.9144,-3.0581,-3.3744,-3.4868,-3.7952,-4.2239,-4.1376,-4.2317,-4.4487,-4.5558,-4.6499,-4.7885,-5.3504,-5.6223,-5.6954,-5.6379,-5.604,-5.5491,-5.2772,-5.0629,-4.9165,-4.9348,-4.7519,-4.5401,-4.595,-4.5297,-4.399,-4.1925,-4.2526,-4.2997,-3.9913,-3.9677,-3.939,-3.6332,-3.5051,-3.4789,-3.5678,-3.4946,0.0,0.0,0.0,0.0,0.0,0.0,-3.458,-3.2515,-3.4685,-3.6854,-3.7848,-3.8658,-4.0252,-4.3049,-4.365,-4.5009,-4.7702,-4.7466,-4.8616,-5.1858,-5.3112,-5.4341,-5.5647,-5.6405,-5.7085,-5.773,-5.8235,-5.8523,-5.8523,-5.8523,-5.8523,-5.8523,-5.8523,-5.8523,-5.8523,-5.8523,-5.8523,-5.8452,-5.807,-5.7713,-5.7379,-5.6946,-5.6729,-5.6583,-5.6292,-5.6365,-5.6583,-2.3929,-2.4912,-2.5735,-2.5757,-2.8761,-3.266,-3.713,-3.8953,-4.0593,-4.2721,-4.4793,-4.6933,-4.9136,-5.0549,-5.2511,-5.536,-5.3556,-5.1601,-5.0156,-4.5875,-4.3358,-4.3227,-3.8407,-3.6605,-3.8501,-3.526,-3.296,-3.1771,-3.0623,-3.0361,-3.0921,-3.0346,-3.0701,-3.2058,-3.6044,-3.8789,-4.0671,-4.3441,-4.7519,-5.2093,-5.157,-5.4027,-5.7634,-5.4001,-5.4707,-5.7625,-5.6981,-5.6405,-5.5569,-5.3243,-5.2014,-5.11,-4.893,-4.8564,-4.8695,-4.7597,-4.7623,-4.7388,-4.4539,-4.4643,-4.433,-3.9233,-3.8815,-3.8736,-3.5234,-3.573,-3.6593,-3.5547,-3.6619,-3.756,-3.7037,0.0,0.0,0.0,0.0,0.0,0.0,-3.2097,-3.3091,-3.3718,-3.6253,-3.8423,-3.9651,-3.8266,-3.9416,-4.4539,-4.3389,-4.4907,-5.0551,-5.1936,-5.3347,-5.5072,-5.6223,-5.7085,-5.773,-5.8235,-5.8523,-5.8523,-5.8523,-5.8523,-5.8523,-5.8523,-5.8523,-5.8523,-5.8523,-5.8523,-5.8452,-5.807,-5.7713,-5.7379,-5.6946,-5.6583,-5.6219,-5.6219,-5.6219,-5.6219,-2.4716,-2.6346,-2.7287,-2.6012,-2.7995,-3.17,-3.7386,-4.0972,-4.4113,-4.7178,-4.8856,-5.0923,-5.4,-5.4405,-5.5151,-5.6928,-5.6013,-5.4484,-5.2514,-4.9124,-4.7195,-4.7195,-4.2241,-3.992,-4.0984,-3.7612,-3.5077,-3.3535,-3.198,-3.1327,-3.1484,-3.0544,-3.091,-3.2568,-3.6253,-3.9913,-4.3467,-4.5976,-4.8695,-5.1413,-5.1962,-5.4497,-5.7843,-5.685,-5.7216,-5.8157,-5.7582,-5.7242,-5.6824,-5.5282,-5.3609,-5.2197,-5.2171,-5.0472,-4.8564,-4.893,-4.8616,-4.7885,-4.6525,-4.7571,-4.7806,-4.2579,-4.1873,-4.1219,-3.6593,-3.6593,-3.7168,-3.5626,-3.685,-3.7976,-3.7123,0.0,0.0,0.0,0.0,0.0,0.0,-3.185,-3.2163,-3.2372,-3.4293,-3.5887,-3.6671,-3.7273,-3.8945,-4.2239,-4.2997,-4.4826,-4.8329,-5.1047,-5.2772,-5.3347,-5.5595,-5.6902,-5.7085,-5.8052,-5.8523,-5.8523,-5.8523,-5.8523,-5.8523,-5.8523,-5.8523,-5.8523,-5.8523,-5.8381,-5.807,-5.7927,-5.7569,-5.7019,-5.6874,-5.6583,-5.6219,-5.6219,-5.6219,-5.6219,-2.544,-2.6908,-2.7875,-2.6986,-2.9569,-3.3543,-3.881,-4.2944,-4.6647,-4.9819,-5.1387,-5.34,-5.6484,-5.6641,-5.7007,-5.8227,-5.8104,-5.6876,-5.4184,-5.225,-5.0864,-5.0028,-4.6369,-4.4356,-4.4304,-4.1115,-3.8187,-3.5652,-3.3927,-3.2815,-3.2398,-3.1249,-3.151,-3.3143,-3.6227,-4.0043,-4.433,-4.7257,-5.008,-5.272,-5.4079,-5.5961,-5.8,-5.8366,-5.8392,-5.8183,-5.8026,-5.7843,-5.7573,-5.6536,-5.5099,-5.3792,-5.4341,-5.2589,-5.0472,-5.1204,-5.076,-4.9819,-4.8826,-4.9662,-4.974,-4.5349,-4.4382,-4.3284,-3.8684,-3.8553,-3.8972,-3.7429,-3.7996,-3.9068,-3.9745,0.0,0.0,0.0,0.0,0.0,0.0,-3.1667,-3.1719,-3.151,-3.2698,-3.3979,-3.5182,-3.5574,-3.722,-4.0723,-4.1638,-4.3493,-4.6839,-4.9923,-5.1858,-5.2485,-5.5099,-5.6588,-5.6798,-5.7739,-5.8314,-5.8523,-5.8523,-5.8523,-5.8523,-5.8523,-5.8452,-5.831,-5.831,-5.807,-5.7713,-5.7569,-5.721,-5.6801,-5.6656,-5.6438,-5.6219,-5.6219,-5.6219,-5.6219,-2.6107,-2.6827,-2.7906,-2.896,-3.3399,-3.7916,-4.1388,-4.4753,-4.7873,-5.062,-5.2537,-5.4497,-5.6824,-5.7556,-5.8358,-5.9359,-5.996,-5.8862,-5.5569,-5.5282,-5.4236,-5.204,-5.0734,-4.9531,-4.8433,-4.548,-4.2056,-3.8115,-3.6253,-3.4763,-3.3639,-3.2398,-3.2424,-3.3613,-3.5966,-3.9233,-4.3258,-4.7336,-5.1753,-5.6144,-5.7843,-5.8497,-5.847,-5.8497,-5.8157,-5.7739,-5.8314,-5.8157,-5.7608,-5.7033,-5.6458,-5.5857,-5.5308,-5.4733,-5.4236,-5.421,-5.387,-5.3112,-5.1413,-5.0969,-5.0315,-4.744,-4.629,-4.4931,-4.1455,-4.1585,-4.2082,-4.0827,-4.0204,-4.0965,-4.4338,-4.0923,0.0,0.0,0.0,0.0,0.0,0.0,-3.1667,-3.1209,-3.1601,0.0,0.0,-3.3155,-3.4225,-3.9834,-3.9285,-4.0958,-4.6081,-4.8486,-5.0524,-5.2302,-5.4654,-5.617,-5.6798,-5.7373,-5.7948,-5.8523,-5.8523,-5.8523,-5.8523,-5.8452,-5.8284,-5.7927,-5.7856,-5.7641,-5.7307,-5.6946,-5.6801,-5.6729,-5.6365,-5.6219,-5.6219,-5.6219,-5.6219,-5.6219,-2.7427,-3.0357,-3.3421,-3.5233,-3.6749,-3.9028,-4.3043,-4.5671,-4.8811,-5.34,-5.5491,-5.7608,-6.0352,-6.0771,-6.0823,-6.0692,-6.0797,-6.0326,-5.8993,-5.7712,-5.6928,-5.6745,-5.4001,-5.2145,-5.1413,-4.731,-4.3935,-4.1386,-3.7704,-3.5461,-3.4562,-3.3141,-3.2411,-3.2398,-3.56,-3.8998,-4.2683,-4.7179,-5.2223,-5.7294,-5.8157,-5.8261,-5.7921,-5.834,-5.8157,-5.7739,-5.8314,-5.8418,-5.8209,-5.7634,-5.7059,-5.6484,-5.5883,-5.5308,-5.4785,-5.4341,-5.4419,-5.4471,-5.3583,-5.3661,-5.34,-5.0917,-4.9531,-4.8015,-4.4983,-4.5192,-4.5428,-4.3389,-4.3903,-4.4252,-4.2915,-4.1235,-3.9367,0.0,0.0,0.0,0.0,0.0,0.0,-3.343,-3.33,-3.2855,-3.215,-3.3091,-3.4894,-3.7665,-3.8397,-4.0409,-4.4383,-4.6316,-4.8329,-5.0498,-5.3635,-5.5804,-5.6798,-5.7373,-5.7948,-5.8523,-5.8523,-5.8523,-5.8523,-5.8212,-5.7999,-5.7856,-5.7667,-5.7307,-5.6946,-5.6874,-5.6656,-5.6365,-5.6219,-5.6219,-5.6219,-5.6219,-5.6219,-5.6219,-2.9719,-3.3629,-3.7354,-3.8963,-4.1205,-4.3624,-4.5974,-4.7633,-5.0158,-5.455,-5.6824,-5.8758,-6.064,-6.1973,-6.26,-6.226,-6.1999,-6.1293,-5.9934,-5.9411,-5.8862,-5.8183,-5.6771,-5.5621,-5.4759,-5.0995,-4.7487,-4.4297,-4.0002,-3.6884,-3.502,-3.3086,-3.2202,-3.2293,-3.5286,-3.8266,-4.1455,-4.7858,-5.2877,-5.6667,-5.7974,-5.8314,0.0,-5.8392,-5.8314,-5.8078,-5.8392,-5.8523,-5.8418,-5.7843,-5.7268,-5.6693,-5.6092,-5.5543,-5.5046,-5.4707,-5.4837,-5.502,-5.468,-5.4837,-5.4785,-5.3452,-5.2459,-5.11,-4.8486,-4.7989,-4.767,-4.6226,-4.5628,-4.5376,-4.5135,-4.2378,-3.9042,0.0,0.0,0.0,0.0,0.0,0.0,0.0,-3.2964,-3.2342,-3.0903,-3.2515,-3.4476,-3.6462,-3.7456,-3.9259,-4.2213,-4.5218,-4.778,-4.9819,-5.2798,-5.5151,-5.6798,-5.7137,-5.7616,-5.8212,-5.8452,-5.831,-5.8025,-5.7927,-5.7713,-5.7426,-5.7235,-5.6946,-5.651,-5.651,-5.6438,-5.6219,-5.6219,-5.6219,-5.6219,-5.6219,-5.6219,-5.6219,-3.2606,-3.6714,-4.025,-4.1028,-4.5761,-4.9548,-4.9893,-5.0721,-5.2322,-5.5345,-5.7765,-5.9385,-5.9882,-6.2182,-6.3672,-6.3672,-6.3227,-6.2051,-5.996,-6.0771,-6.0378,-5.8209,-5.9072,-5.9019,-5.7791,-5.4968,-5.1282,-4.6652,-4.2372,-3.8548,-3.5217,-3.2864,-3.2071,0.0,0.0,-3.7795,-4.1141,-4.9113,-5.3583,-5.5517,-5.766,-5.8523,-5.8523,-5.8523,-5.8523,-5.8523,-5.8523,-5.8523,-5.8444,-5.7948,-5.7399,-5.6824,-5.6223,-5.5647,-5.5203,-5.5125,-5.5099,-5.5099,-5.5099,-5.5099,-5.5099,-5.5099,-5.4707,-5.3792,-5.1701,-5.042,-4.955,-4.9084,-4.6895,-4.5865,-4.8502,-4.3812,-3.8309,0.0,0.0,0.0,-3.3002,0.0,0.0,0.0,0.0,0.0,-3.074,-3.1824,-3.348,-3.5583,-3.6079,-3.7488,-4.0278,-4.4173,-4.7388,-4.9714,-5.2067,-5.4367,-5.6667,-5.6771,-5.7164,-5.7927,-5.8212,-5.8096,-5.7379,-5.7641,-5.7426,-5.6801,-5.6729,-5.651,-5.6219,-5.6219,-5.6219,-5.6219,-5.6219,-5.6219,-5.6219,-5.6219,-5.6219,-5.6219,-3.5786,-3.9514,-4.2362,-4.2063,-4.7428,-5.2553,-5.4676,-5.5793,-5.7068,-5.9072,-6.1346,-6.2809,-6.2914,-6.3384,-6.3672,-6.3672,-6.3593,-6.3149,-6.2287,-6.2417,-6.1921,-6.0561,-6.0718,-6.0039,-5.8392,-5.5543,-5.1914,-4.7561,-4.3205,-3.9012,-3.4934,-3.3777,-3.2789,0.0,0.0,0.0,-4.6264,-5.0655,-5.4053,-5.6641,-5.7974,-5.8523,-5.8523,-5.8523,-5.8523,-5.8523,-5.8523,-5.8523,-5.8497,-5.8392,-5.8,-5.7399,-5.6824,-5.6249,-5.5674,-5.5229,-5.5099,-5.5099,-5.5099,-5.5099,-5.5099,-5.5099,-5.502,-5.4707,-5.3818,-5.3112,-5.2421,-5.152,-5.0389,-4.8989,-4.7536,-4.3934,-4.0463,-3.7904,-3.7017,-3.701,-3.8041,0.0,0.0,0.0,0.0,-3.4589,-3.2023,-3.2037,-3.2647,-3.368,-3.2953,-3.4803,-4.0148,-4.0775,-4.3493,-4.9035,-5.1465,-5.3739,-5.604,-5.6562,-5.7164,-5.7927,-5.7999,-5.7784,-5.7379,-5.7091,-5.6946,-5.6801,-5.6438,-5.6292,-5.6219,-5.6219,-5.6219,-5.6219,-5.6219,-5.6219,-5.6219,-5.6219,-5.6219,-5.6219,-4.0522,-4.2658,-4.4801,-4.6687,-5.123,-5.5227,-5.7214,-5.9636,-6.098,-6.03,-6.1476,-6.2339,-6.2339,-6.3672,-6.456,-6.456,-6.4299,-6.4012,-6.3724,-6.3149,-6.2574,-6.2025,-6.145,-6.0588,-5.9411,-5.7163,-5.3648,-4.8908,-4.4898,-4.0369,-3.5505,-3.4116,-3.3036,-3.2463,0.0,-4.1533,-4.7127,-5.089,-5.3818,-5.6066,-5.7817,-5.8523,-5.8523,-5.8523,-5.8523,-5.8523,-5.8523,-5.8523,-5.8523,-5.8523,-5.8131,-5.7678,-5.7346,-5.685,-5.6249,-5.5674,-5.5517,-5.5465,-5.5177,-5.5099,-5.5099,-5.5099,-5.5099,-5.502,-5.4733,-5.4001,-5.3166,-5.2336,-5.1332,-4.9796,-4.7066,-4.4042,-4.149,-4.0129,-3.8692,-3.8086,-3.9044,-3.8413,-3.7329,0.0,0.0,0.0,0.0,-3.1229,-3.1286,-3.2143,-3.234,-3.4328,-3.8652,-3.9629,-4.2526,-4.7989,-5.021,-5.2658,-5.5465,-5.5968,-5.6674,-5.7667,-5.7667,-5.7379,-5.6801,-5.6801,-5.6729,-5.651,-5.6292,-5.6219,-5.6219,-5.6219,-5.6219,-5.6219,-5.6219,-5.6219,-5.6219,-5.6219,-5.6219,-5.6219,-4.4731,-4.5783,-4.7423,-5.1449,-5.5152,-5.7896,-5.916,-6.2406,-6.3907,-6.1607,-6.1738,-6.2025,-6.2025,-6.4038,-6.5371,-6.5371,-6.4979,-6.4665,-6.4534,-6.3698,-6.3071,-6.2835,-6.1973,-6.1136,-6.0431,-5.8836,-5.5595,-5.0629,-4.6877,-4.2242,-3.6985,-3.5027,-3.4194,-3.4528,-3.8972,-4.3363,-4.7623,-5.1178,-5.3844,-5.5804,-5.7739,-5.8523,-5.8523,-5.8523,-5.8523,-5.8523,-5.8523,-5.8523,-5.8523,-5.8523,-5.8209,-5.7817,-5.7756,-5.7346,-5.6876,-5.6275,-5.6092,-5.5987,-5.5412,-5.5282,-5.5255,-5.5125,-5.5099,-5.5099,-5.5099,-5.4144,-5.3114,-5.2411,-5.1254,-4.9545,-4.6824,-4.4694,-4.3011,-4.1882,-4.03,-3.9346,-3.9697,-3.9698,-3.8793,0.0,0.0,0.0,-3.2416,-3.0884,-3.0388,-3.1363,-3.2243,-3.4185,-3.7433,-3.8943,-4.1903,-4.6699,-4.8713,-5.1172,-5.4209,-5.5169,-5.6207,-5.7235,-5.7235,-5.6874,-5.6219,-5.651,-5.651,-5.6219,-5.6219,-5.6219,-5.6219,-5.6219,-5.6219,-5.6219,-5.6219,-5.6219,-5.6219,-5.6219,-5.6219,-5.6219,-4.6646,-4.8499,-5.051,-5.369,-5.767,-6.0706,-6.1542,-6.3751,-6.5214,-6.4926,-6.4953,-6.4979,-6.4979,-6.5214,-6.5371,-6.5371,-6.5345,-6.5083,-6.456,-6.443,-6.3907,-6.2862,-6.2731,-6.2156,-6.1058,-5.983,-5.719,-5.306,-4.9001,-4.4615,-3.9965,-3.7671,-3.7769,-3.9782,-4.1847,-4.5611,-5.0524,-5.2485,-5.4889,-5.7547,-5.8209,-5.8523,-5.8523,-5.8523,-5.8523,-5.8523,-5.8523,-5.8523,-5.8523,-5.8523,-5.847,-5.834,-5.7817,-5.7704,-5.7477,-5.6902,-5.6719,-5.6588,-5.5987,-5.583,-5.5726,-5.5229,-5.5099,-5.5099,-5.5099,-5.3921,-5.2737,-5.2411,-5.093,-4.8976,-4.6728,-4.6878,-4.6376,-4.3313,-4.3062,-4.3112,-4.266,-4.2213,-4.1257,-3.9496,0.0,0.0,-3.5182,-3.2323,-3.0959,-3.203,-3.1478,-3.3122,-3.7646,-3.7591,-3.987,-4.5167,-4.7254,-4.9286,-5.1431,-5.4235,-5.6065,-5.6874,-5.6874,-5.6656,-5.6219,-5.6219,-5.6219,-5.6219,-5.6219,-5.6219,-5.6219,-5.6219,-5.6219,-5.6219,-5.6219,-5.6219,-5.6219,-5.6219,-5.6219,-5.6219,-5.219,-5.2705,-5.4003,-5.8402,-6.0324,-6.2016,-6.4221,-6.5606,-6.6416,-6.6416,-6.5815,-6.5371,-6.5371,-6.5371,-6.5371,-6.5371,-6.5371,-6.5292,-6.5057,-6.4717,-6.4325,-6.3881,-6.3201,-6.2443,-6.1659,-6.0823,-5.8444,-5.4419,-5.1387,-4.7545,-4.2997,-4.1716,-4.2369,-4.4643,-4.6761,-4.9427,-5.2485,-5.455,-5.6301,-5.7782,-5.8287,-5.8523,-5.8523,-5.8523,-5.8523,-5.8523,-5.8523,-5.8523,-5.8523,-5.8523,-5.8523,-5.847,-5.8235,-5.8183,-5.8052,-5.7477,-5.732,-5.719,-5.6615,-5.6196,-5.5857,-5.5647,-5.52,-5.4738,-5.4738,-5.3849,-5.2781,-5.2159,-5.076,-4.9314,-4.8435,-4.7556,-4.6728,-4.605,-4.502,-4.4217,-4.3991,-4.379,0.0,-4.0927,0.0,-3.7538,-3.6609,-3.3847,-3.2692,-3.4053,-3.2129,-3.2311,-3.557,-3.6913,-3.9387,-4.3321,-4.6908,-4.9618,-5.1319,-5.3835,-5.5614,-5.6801,-5.6583,-5.6365,-5.6219,-5.6219,-5.6219,-5.6219,-5.6219,-5.6219,-5.6219,-5.6219,-5.6219,-5.6219,-5.6219,-5.6219,-5.6219,-5.6219,-5.6219,-5.6219,-5.6386,-5.6309,-5.7368,-6.2406,-6.2949,-6.3571,-6.6101,-6.6834,-6.7096,-6.7096,-6.639,-6.5894,-6.5894,-6.5894,-6.5894,-6.5894,-6.5737,-6.5632,-6.5632,-6.5109,-6.4717,-6.4534,-6.375,-6.2992,-6.2234,-6.1659,-5.9803,-5.6615,-5.3922,-5.0812,-4.7283,-4.6003,-4.663,-4.893,-5.076,-5.2616,-5.4524,-5.6301,-5.7373,-5.7948,-5.834,-5.8523,-5.8523,-5.8523,-5.8523,-5.8523,-5.8523,-5.8523,-5.8523,-5.8523,-5.8523,-5.8523,-5.8523,-5.8523,-5.8444,-5.8026,-5.7921,-5.7791,-5.7216,-5.6677,-5.619,-5.5919,-5.5258,-5.4583,-5.4537,-5.367,-5.268,-5.1611,-5.0438,-4.959,-4.959,-4.8184,-4.7129,-4.7405,-4.6276,-4.507,-4.4242,-4.4418,0.0,-4.1551,-3.9722,-3.8442,-3.7965,-3.5429,-3.45,-3.6085,-3.4382,-3.411,-3.6008,-3.7594,-3.9879,-4.2997,-4.6983,-4.9799,-5.1266,-5.3608,-5.5433,-5.6656,-5.6365,-5.6219,-5.6219,-5.6219,-5.6219,-5.6219,-5.6219,-5.6219,-5.6219,-5.6219,-5.6219,-5.6219,-5.6219,-5.6219,-5.6219,-5.6394,-5.6445,-5.647,-5.7972,-5.8662,-6.0094,-6.4746,-6.5563,-6.5932,-6.691,-6.7096,-6.7096,-6.7096,-6.707,-6.707,-6.7122,-6.7096,-6.707,-6.707,-6.6573,-6.6286,-6.6286,-6.5711,-6.5109,-6.456,-6.4534,-6.3985,-6.2835,-6.226,-6.1372,-6.0169,-5.6745,-5.4445,-5.3217,-5.0368,-5.0237,-5.2459,-5.3086,-5.4628,-5.6798,-5.7399,-5.7974,-5.8497,-5.8523,-5.8523,-5.8523,-5.8523,-5.8523,-5.8523,-5.8523,-5.8523,-5.8523,-5.8523,-5.8523,-5.8523,-5.8523,-5.8523,-5.8523,-5.8497,-5.8497,-5.8366,-5.7817,-5.7424,-5.6928,-5.6128,-5.5365,-5.4731,-5.4573,-5.3535,-5.2152,-5.071,-4.9992,-4.959,-4.959,-4.9138,-4.8209,-4.6602,-4.6753,-4.615,-4.3388,-4.394,0.0,-4.1551,-3.9371,-3.8442,-3.9546,-3.7088,-3.616,-3.7864,-3.8467,-3.927,-4.0375,-3.9948,-4.1285,-4.4839,-4.7428,-4.9442,-5.0811,-5.3872,-5.5666,-5.6219,-5.6219,-5.6219,-5.6219,-5.6219,-5.6219,-5.6219,-5.6219,-5.6219,-5.6219,-5.6219,-5.6219,-5.6219,-5.6219,-5.6219,-5.6269,-5.6821,-5.7022,-5.7097,-6.2033,-6.294,-6.3988,-6.5727,-6.6669,-6.7324,-6.7671,-6.8037,-6.8272,-6.8272,-6.8272,-6.8298,-6.8298,-6.7566,-6.7096,-6.7096,-6.6599,-6.6286,-6.6286,-6.5711,-6.5292,-6.5109,-6.4743,-6.4351,-6.3985,-6.3045,-6.2182,-6.1424,-5.8732,-5.6641,-5.5099,-5.4158,-5.455,-5.6013,-5.6223,-5.6928,-5.7974,-5.8157,-5.834,-5.8523,-5.8523,-5.8523,-5.8523,-5.8523,-5.8523,-5.8523,-5.8523,-5.8523,-5.8523,-5.8523,-5.8284,-5.807,-5.807,-5.807,-5.807,-5.807,-5.807,-5.8044,-5.7862,-5.7455,-5.6996,-5.6398,-5.5406,-5.4472,-5.4406,-5.33,-5.201,-5.1147,-5.0544,-5.0042,-4.9665,-4.9464,-4.8912,-4.7606,-4.7531,-4.6828,-4.4443,-4.4392,-4.4091,-4.2635,-4.1505,-4.1031,-4.1383,-3.9898,-3.8843,-3.8617,-3.8768,-3.8693,-3.8266,-4.0953,-4.2866,-4.3601,-4.8096,-5.0886,-5.1708,-5.418,-5.5666,-5.6219,-5.6219,-5.6219,-5.6219,-5.6219,-5.6219,-5.6219,-5.6219,-5.6219,-5.6219,-5.6219,-5.6219,-5.6219,-5.6219,-5.6219,-5.6269,-5.6821,-5.7022,-5.7123,-6.4456,-6.5401,-6.6166,-6.6806,-6.7514,-6.8063,-6.8272,-6.8612,-6.8764,-6.8764,-6.8764,-6.8764,-6.8764,-6.8194,-6.7749,-6.7749,-6.7044,-6.6519,-6.6357,-6.5761,-6.5318,-6.5159,-6.4978,-6.4743,-6.4534,-6.3829,-6.3071,-6.2287,-6.0405,-5.881,-5.7529,-5.7529,-5.7921,-5.8627,-5.8627,-5.881,-5.915,-5.915,-5.9019,-5.8836,-5.8836,-5.8706,-5.8523,-5.8523,-5.8523,-5.8523,-5.8523,-5.8355,-5.8284,-5.8284,-5.7999,-5.7713,-5.7498,-5.7498,-5.7498,-5.7641,-5.7713,-5.7713,-5.7713,-5.7384,-5.6932,-5.6559,-5.5573,-5.4612,-5.4182,-5.3017,-5.2,-5.1649,-5.0971,-5.0318,-4.9967,-4.9741,-4.9163,-4.7832,-4.7782,-4.7079,-4.4644,-4.4493,-4.4141,-4.2866,-4.2615,-4.2439,-4.2238,-4.2082,-4.1781,-4.1078,-4.1806,-4.1781,-4.0676,-4.2836,-4.4618,-4.5723,-4.9941,-5.2553,-5.3331,-5.4913,-5.5867,-5.6219,-5.6219,-5.6219,-5.6219,-5.6219,-5.6219,-5.6219,-5.6219,-5.6219,-5.6219,-5.6219,-5.6219,-5.6219,-5.6219,-5.6344,-5.6595,-5.7148,-5.7499,-5.775,-6.553,-6.6132,-6.6866,-6.7824,-6.8011,-6.822,-6.8769,-6.8764,-6.8764,-6.8764,-6.8764,-6.8764,-6.8764,-6.8764,-6.8764,-6.8764,-6.7802,-6.6985,-6.6603,-6.5862,-6.529,-6.4918,-6.5264,-6.5136,-6.4587,-6.456,-6.3985,-6.2835,-6.1764,-6.0901,-6.0274,-6.0274,-6.0248,-6.0222,-6.0222,-6.0222,-6.0222,-6.0222,-5.9908,-5.9411,-5.9385,-5.9045,-5.8575,-5.8523,-5.8523,-5.8523,-5.8523,-5.8212,-5.7927,-5.7927,-5.7667,-5.7307,-5.6946,-5.6801,-5.6874,-5.7235,-5.7379,-5.7379,-5.7379,-5.7091,-5.6747,-5.6545,-5.5893,-5.5089,-5.4009,-5.2955,-5.2201,-5.2176,-5.1297,-5.0519,-5.0444,-4.9992,-4.9113,-4.7456,-4.7556,-4.6928,-4.4242,-4.4342,-4.4091,-4.2564,-4.2916,-4.3011,-4.2539,-4.384,-4.4694,-4.4568,-4.6577,-4.7355,-4.6351,-4.5497,-4.6677,-5.0293,-5.2553,-5.4235,-5.539,-5.5942,-5.6219,-5.6219,-5.6219,-5.6219,-5.6219,-5.6219,-5.6219,-5.6219,-5.6219,-5.6219,-5.6219,-5.6219,-5.6219,-5.6219,-5.6244,-5.657,-5.7123,-5.7725,-5.8278,-5.8805,-6.618,-6.7056,-6.7746,-6.7958,-6.835,-6.869,-6.8738,-6.8764,-6.8764,-6.8764,-6.8764,-6.8764,-6.8764,-6.8764,-6.8764,-6.8764,-6.8194,-6.7611,-6.7116,-6.6461,-6.6076,-6.5916,-6.5632,-6.5318,-6.5188,-6.477,-6.3985,-6.2835,-6.2548,-6.1894,-6.0901,-6.0901,-6.0666,-6.0222,-6.0222,-6.0222,-6.0222,-6.0222,-6.0143,-5.9986,-5.9542,-5.9281,-5.9124,-5.8679,-5.8523,-5.8523,-5.8523,-5.8212,-5.7927,-5.7927,-5.7498,-5.6946,-5.6801,-5.6583,-5.6438,-5.6801,-5.6946,-5.6946,-5.6946,-5.6874,-5.6678,-5.6334,-5.5836,-5.5214,-5.4511,-5.3808,-5.3206,-5.2829,-5.2176,-5.1448,-5.0569,-5.0318,-4.9665,-4.7983,-4.7481,-4.6652,-4.4694,-4.492,-4.497,-4.4141,-4.492,-4.5472,-4.5347,-4.5673,-4.5372,-4.4091,-4.5673,-4.6577,-4.6326,-4.8058,-4.9464,-5.0393,-5.2553,-5.4235,-5.539,-5.5942,-5.6219,-5.6219,-5.6219,-5.6219,-5.6219,-5.6219,-5.6219,-5.6219,-5.6219,-5.6219,-5.6219,-5.6219,-5.6219,-5.6244,-5.6671,-5.6922,-5.7148,-5.8152,-5.8604,-5.8805,-6.6775,-6.7654,-6.8377,-6.8377,-6.8472,-6.8513,-6.8513,-6.8345,-6.8235,-6.8235,-6.8235,-6.8235,-6.8235,-6.8235,-6.8151,-6.7899,-6.7717,-6.7489,-6.7074,-6.6344,-6.5857,-6.5696,-6.5445,-6.5371,-6.5371,-6.5083,-6.4482,-6.362,-6.3097,-6.2522,-6.1894,-6.1633,-6.1346,-6.1032,-6.1032,-6.1032,-6.1032,-6.1032,-6.0875,-6.0614,-6.03,-6.0013,-5.9725,-5.9411,-5.9307,-5.9183,-5.8778,-5.8387,-5.7976,-5.7528,-5.6993,-5.651,-5.651,-5.6365,-5.6219,-5.6438,-5.651,-5.651,-5.651,-5.651,-5.651,-5.6292,-5.5792,-5.5315,-5.5013,-5.4511,-5.4009,-5.3733,-5.303,-5.2302,-5.1674,-5.0946,-4.9791,-4.7857,-4.7305,-4.6451,-4.4518,-4.497,-4.5547,-4.5748,-4.6753,-4.7531,-4.7782,-4.8284,-4.7983,-4.6552,-4.8008,-4.8837,-4.8586,-5.0695,-5.1925,-5.1925,-5.3582,-5.4888,-5.5767,-5.6068,-5.6219,-5.6219,-5.6219,-5.6219,-5.6219,-5.6219,-5.6219,-5.6219,-5.6219,-5.6344,-5.6595,-5.6595,-5.6746,-5.7022,-5.7323,-5.7575,-5.7876,-5.8504,-5.888,-5.9106,-6.7286,-6.8008,-6.8597,-6.8597,-6.8345,-6.8119,-6.8119,-6.7756,-6.7477,-6.7477,-6.7477,-6.7477,-6.7477,-6.7477,-6.7307,-6.6967,-6.7125,-6.7119,-6.6726,-6.614,-6.5659,-6.5124,-6.5415,-6.5475,-6.5371,-6.5371,-6.5109,-6.4534,-6.3567,-6.3045,-6.294,-6.2365,-6.2104,-6.2104,-6.2025,-6.1973,-6.1898,-6.1973,-6.1685,-6.1167,-6.1088,-6.0749,-6.0352,-6.0175,-6.0076,-5.9997,-5.9212,-5.8594,-5.8079,-5.7251,-5.6637,-5.6319,-5.6244,-5.6219,-5.6219,-5.6219,-5.6219,-5.6219,-5.6219,-5.6219,-5.6219,-5.6219,-5.5867,-5.5516,-5.5516,-5.5089,-5.4687,-5.4687,-5.3884,-5.313,-5.2955,-5.1699,-4.9891,-4.7469,-4.7068,-4.6351,-4.4116,-4.4995,-4.62,-4.7129,-4.8385,-4.9339,-4.9816,-5.0645,-5.0845,-5.0142,-5.1348,-5.2,-5.18,-5.3155,-5.3959,-5.3959,-5.4888,-5.5641,-5.6194,-5.6219,-5.6219,-5.6219,-5.6219,-5.6244,-5.6344,-5.6344,-5.6394,-5.647,-5.647,-5.6721,-5.7173,-5.7173,-5.7449,-5.7901,-5.8001,-5.8303,-5.873,-5.8805,-5.9106,-5.9483,-6.7348,-6.7594,-6.773,-6.773,-6.7646,-6.7561,-6.7561,-6.7561,-6.7477,-6.7477,-6.7477,-6.7477,-6.7477,-6.7477,-6.7477,-6.7392,-6.7061,-6.684,-6.6755,-6.6901,-6.6749,-6.6232,-6.6175,-6.5894,-6.5397,-6.5371,-6.5109,-6.4534,-6.4351,-6.4012,-6.3541,-6.2966,-6.2705,-6.2679,-6.2182,-6.1823,-6.1495,-6.1898,-6.177,-6.1339,-6.0772,-6.0762,-6.0853,-6.0038,-5.9683,-5.9683,-5.9506,-5.8991,-5.8322,-5.7689,-5.7217,-5.6821,-5.6369,-5.6219,-5.6219,-5.6219,-5.6219,-5.6219,-5.6219,-5.6219,-5.6219,-5.6219,-5.6143,-5.6093,-5.6093,-5.5666,-5.5265,-5.5265,-5.4762,-5.4034,-5.3105,-5.2327,-5.082,-4.7657,-4.7068,-4.6351,-4.4116,-4.5949,-4.7606,-4.7782,-4.9615,-5.0921,-5.1021,-5.0745,-5.1071,-5.2327,-5.2226,-5.2678,-5.3984,-5.4737,-5.5139,-5.5139,-5.529,-5.5641,-5.6194,-5.6219,-5.6219,-5.6219,-5.6219,-5.647,-5.6897,-5.6897,-5.7173,-5.765,-5.765,-5.7675,-5.775,-5.775,-5.7826,-5.7951,-5.8403,-5.8629,-5.873,-5.9207,-5.9433,-5.9483,-6.7052,-6.7477,-6.7646,-6.7561,-6.7392,-6.7222,-6.7137,-6.6882,-6.6711,-6.6711,-6.6711,-6.6711,-6.6711,-6.6711,-6.6711,-6.6711,-6.654,-6.6455,-6.6455,-6.6543,-6.64,-6.6058,-6.6007,-6.5758,-6.5397,-6.5371,-6.524,-6.4979,-6.4691,-6.4404,-6.4116,-6.3541,-6.3123,-6.2809,-6.2548,-6.2185,-6.1747,-6.1898,-6.1747,-6.142,-6.1059,-6.0956,-6.0855,-6.0345,-6.0167,-6.0142,-5.9609,-5.9207,-5.8756,-5.8049,-5.7649,-5.7449,-5.7198,-5.7123,-5.7072,-5.6746,-5.6445,-5.6219,-5.6219,-5.6219,-5.6219,-5.6219,-5.6219,-5.6219,-5.6219,-5.6018,-5.5842,-5.5842,-5.539,-5.4863,-5.4336,-5.3306,-5.195,-5.0117,-4.8812,-4.7757,-4.7029,-4.7757,-4.8812,-5.0017,-5.1348,-5.2402,-5.298,-5.2804,-5.298,-5.3758,-5.3582,-5.3884,-5.4938,-5.5239,-5.5516,-5.5817,-5.5842,-5.5968,-5.6219,-5.6219,-5.6369,-5.6646,-5.6646,-5.6947,-5.7499,-5.7499,-5.765,-5.7901,-5.7901,-5.8052,-5.8353,-5.8353,-5.8504,-5.878,-5.9031,-5.9131,-5.9156,-5.9408,-5.9483,-5.9483,-6.6626,-6.7112,-6.7451,-6.7222,-6.6967,-6.6797,-6.6626,-6.6369,-6.6112,-6.6112,-6.6112,-6.6112,-6.6112,-6.6112,-6.6112,-6.6112,-6.6112,-6.6112,-6.6112,-6.6076,-6.6018,-6.6016,-6.5943,-6.586,-6.5606,-6.558,-6.5528,-6.5371,-6.4953,-6.4743,-6.4717,-6.4065,-6.3491,-6.3074,-6.2841,-6.24,-6.1778,-6.188,-6.1549,-6.1117,-6.1117,-6.0965,-6.066,-6.0584,-6.0584,-6.0457,-5.9693,-5.9389,-5.9161,-5.7924,-5.7749,-5.7976,-5.7473,-5.7574,-5.7801,-5.7374,-5.6947,-5.6545,-5.6269,-5.6219,-5.6219,-5.6219,-5.6219,-5.6219,-5.6219,-5.6219,-5.6219,-5.6219,-5.5867,-5.5541,-5.5415,-5.426,-5.2955,-5.1875,-5.0393,-4.9364,-4.9389,-4.949,-5.0218,-5.2076,-5.2904,-5.3632,-5.4486,-5.4561,-5.4612,-5.4737,-5.4762,-5.4988,-5.5541,-5.5591,-5.5767,-5.6194,-5.6219,-5.6219,-5.6219,-5.6344,-5.662,-5.7022,-5.7173,-5.7524,-5.8102,-5.8102,-5.8152,-5.8278,-5.8278,-5.8504,-5.8905,-5.8905,-5.9131,-5.9483,-5.9483,-5.9483,-5.9483,-5.9483,-5.9483,-5.9483,-6.6112,-6.6197,-6.6197,-6.6197,-6.6197,-6.6197,-6.6112,-6.6112,-6.6112,-6.6112,-6.6112,-6.6112,-6.6112,-6.6112,-6.6112,-6.6112,-6.6112,-6.6112,-6.6112,-6.6086,-6.6237,-6.6522,-6.684,-6.6782,-6.6233,-6.6207,-6.5946,-6.5371,-6.5345,-6.5318,-6.5318,-6.4324,-6.3882,-6.383,-6.2817,-6.1888,-6.1092,-6.1479,-6.107,-6.0201,-6.0201,-6.0431,-6.066,-6.0278,-6.0125,-6.0125,-6.0074,-5.9818,-5.9178,-5.6955,-5.7352,-5.8249,-5.6148,-5.6639,-5.7901,-5.7851,-5.7801,-5.7549,-5.6495,-5.6219,-5.6219,-5.6219,-5.6219,-5.6219,-5.6219,-5.6219,-5.6219,-5.6219,-5.6168,-5.5993,-5.5491,-5.4863,-5.3582,-5.0971,-5.0845,-5.0569,-4.9038,-5.0569,-5.2101,-5.2779,-5.3808,-5.4486,-5.4561,-5.4561,-5.4787,-5.529,-5.534,-5.5566,-5.6118,-5.6143,-5.6168,-5.6219,-5.6219,-5.6219,-5.6219,-5.6721,-5.6997,-5.7047,-5.7575,-5.8127,-5.8654,-5.8654,-5.893,-5.9382,-5.9382,-5.9408,-5.9433,-5.9433,-5.9458,-5.9483,-5.9483,-5.9483,-5.9483,-5.9483,-5.9483,-5.9483,-6.6112,-6.6112,-6.6112,-6.6112,-6.6112,-6.6112,-6.6112,-6.6112,-6.6112,-6.6112,-6.6112,-6.6112,-6.6112,-6.6112,-6.6112,-6.6112,-6.6112,-6.6112,-6.6112,-6.6112,-6.6288,-6.6573,-6.6671,-6.6747,-6.6782,-6.6442,-6.6181,-6.5946,-6.5341,-6.5,-6.5,-6.4368,-6.3846,-6.3512,-6.3122,-6.2554,-6.1861,-6.2017,-6.1554,-6.0657,-6.0657,-6.0352,-5.9971,-5.9817,-5.974,-5.974,-5.974,-5.8915,-5.7903,-5.8122,-5.7892,-5.7634,-5.7826,-5.8318,-5.883,-5.8504,-5.8177,-5.7801,-5.7374,-5.6997,-5.6646,-5.6294,-5.6219,-5.6219,-5.6219,-5.6219,-5.6219,-5.6219,-5.6219,-5.6143,-5.5942,-5.544,-5.4838,-5.4135,-5.3331,-5.2804,-5.2854,-5.3005,-5.3432,-5.4336,-5.4813,-5.5214,-5.5541,-5.5591,-5.5666,-5.5892,-5.5892,-5.5993,-5.6194,-5.6219,-5.6219,-5.6219,-5.6545,-5.6721,-5.6721,-5.6922,-5.7374,-5.8077,-5.8303,-5.8679,-5.9207,-5.9207,-5.9307,-5.9483,-5.9483,-5.9483,-5.9483,-5.9483,-5.9483,-5.9483,-5.9483,-5.9483,-5.9483,-5.9483,-5.9483,-5.9483,-6.6112,-6.6112,-6.6112,-6.6112,-6.6112,-6.6112,-6.6112,-6.6112,-6.6112,-6.6112,-6.6112,-6.6112,-6.6112,-6.6112,-6.6112,-6.6112,-6.6112,-6.6112,-6.6112,-6.6112,-6.6278,-6.666,-6.6695,-6.6801,-6.6948,-6.6747,-6.6383,-6.5857,-6.5307,-6.4862,-6.4547,-6.4119,-6.3673,-6.3396,-6.3236,-6.2825,-6.229,-6.229,-6.1827,-6.1084,-6.1084,-6.0622,-6.0035,-6.0035,-6.0035,-6.0035,-6.0035,-5.8862,-5.7437,-5.7929,-5.73,-5.6453,-5.7503,-5.8603,-5.9433,-5.9056,-5.8704,-5.8378,-5.8202,-5.7876,-5.7424,-5.6872,-5.6595,-5.647,-5.647,-5.6344,-5.6219,-5.6219,-5.6219,-5.6219,-5.6219,-5.5892,-5.5717,-5.5917,-5.4988,-5.4511,-5.529,-5.4712,-5.4587,-5.5541,-5.5641,-5.5792,-5.6168,-5.6219,-5.6219,-5.6219,-5.6219,-5.6219,-5.6219,-5.6369,-5.647,-5.647,-5.7022,-5.7399,-5.7575,-5.7575,-5.7951,-5.873,-5.888,-5.9156,-5.9483,-5.9483,-5.9483,-5.9483,-5.9483,-5.9483,-5.9483,-5.9483,-5.9483,-5.9483,-5.9483,-5.9483,-5.9483,-5.9483,-5.9483,-5.9483,-6.6112,-6.6112,-6.6112,-6.6112,-6.6112,-6.6112,-6.6112,-6.6112,-6.6112,-6.6112,-6.6112,-6.6112,-6.6112,-6.6112,-6.6112,-6.6112,-6.6112,-6.6112,-6.6112,-6.6112,-6.6283,-6.6797,-6.7222,-6.722,-6.6656,-6.7074,-6.6506,-6.4939,-6.5372,-6.5088,-6.4039,-6.3635,-6.3473,-6.3473,-6.2985,-6.2521,-6.2019,-6.2019,-6.1692,-6.119,-6.119,-6.119,-6.119,-6.119,-6.119,-6.119,-6.119,-5.9996,-5.8065,-5.5881,-5.5036,-5.4884,-5.4462,-5.6741,-5.9508,-5.9508,-5.9483,-5.9382,-5.8855,-5.873,-5.8604,-5.8052,-5.7474,-5.7047,-5.7047,-5.662,-5.6219,-5.6219,-5.6219,-5.6219,-5.6219,-5.6219,-5.6043,-5.5491,-5.539,-5.539,-5.539,-5.539,-5.5591,-5.6143,-5.6219,-5.6219,-5.6219,-5.6219,-5.6219,-5.6219,-5.6219,-5.6219,-5.6219,-5.6746,-5.7047,-5.7047,-5.76,-5.8177,-5.8704,-5.873,-5.873,-5.873,-5.9257,-5.9483,-5.9483,-5.9483,-5.9483,-5.9483,-5.9483,-5.9483,-5.9483,-5.9483,-5.9483,-5.9483,-5.9483,-5.9483,-5.9483,-5.9483,-5.9483,-5.9483,-6.6112,-6.6112,-6.6112,-6.6112,-6.6112,-6.6112,-6.6112,-6.6112,-6.6112,-6.6112,-6.6112,-6.6112,-6.6112,-6.6112,-6.6112,-6.6112,-6.6112,-6.6112,-6.6112,-6.6112,-6.6197,-6.6283,-6.6797,-6.7061,-6.722,-6.692,-6.6355,-6.5529,-6.4981,-6.4358,-6.3635,-6.323,-6.2985,-6.2985,-6.2822,-6.2747,-6.2571,-6.2571,-6.227,-6.1768,-6.1768,-6.1542,-6.119,-6.119,-6.119,-6.119,-6.119,-5.9244,-5.6688,-5.7208,-5.5731,-5.4029,-5.6397,-5.8489,-6.006,-6.006,-5.9809,-5.9458,-5.9307,-5.9257,-5.9056,-5.8127,-5.7775,-5.765,-5.765,-5.7524,-5.7399,-5.7399,-5.7072,-5.6796,-5.6796,-5.647,-5.6168,-5.5993,-5.5968,-5.5968,-5.5968,-5.5968,-5.6018,-5.6194,-5.6219,-5.6219,-5.6219,-5.6219,-5.6219,-5.6219,-5.657,-5.6796,-5.6796,-5.7323,-5.765,-5.765,-5.8177,-5.8554,-5.873,-5.873,-5.8905,-5.9257,-5.9408,-5.9483,-5.9483,-5.9483,-5.9483,-5.9483,-5.9483,-5.9483,-5.9483,-5.9483,-5.9483,-5.9483,-5.9483,-5.9483,-5.9483,-5.9483,-5.9483,-5.9483,-6.6112,-6.6112,-6.6112,-6.6112,-6.6112,-6.6112,-6.6112,-6.6112,-6.6112,-6.6112,-6.6112,-6.6112,-6.6112,-6.6112,-6.6112,-6.6112,-6.6112,-6.6112,-6.6112,-6.6112,-6.6112,-6.6112,-6.6369,-6.6626,-6.6967,-6.6806,-6.6372,-6.5619,-6.5002,-6.4279,-6.3584,-6.3004,-6.2822,-6.2822,-6.2822,-6.2822,-6.2822,-6.2822,-6.2647,-6.2345,-6.2345,-6.2119,-6.1843,-6.1843,-6.1843,-6.1843,-6.1843,-5.9959,-5.7569,-5.7691,-5.6122,-5.4445,-5.6711,-5.8839,-6.0663,-6.0663,-6.0437,-6.0161,-6.0161,-5.9985,-5.9659,-5.9006,-5.8529,-5.8227,-5.8227,-5.8052,-5.7901,-5.7901,-5.7625,-5.7374,-5.7374,-5.7097,-5.6872,-5.6872,-5.6872,-5.6872,-5.6872,-5.6671,-5.662,-5.6846,-5.6671,-5.6545,-5.6545,-5.6746,-5.6872,-5.6872,-5.7198,-5.7374,-5.7374,-5.7901,-5.8227,-5.8227,-5.8755,-5.9031,-5.9031,-5.9031,-5.9182,-5.9483,-5.9483,-5.9483,-5.9483,-5.9483,-5.9483,-5.9483,-5.9483,-5.9483,-5.9483,-5.9483,-5.9483,-5.9483,-5.9483,-5.9483,-5.9483,-5.9483,-5.9483,-5.9483,-6.6112,-6.6112,-6.6112,-6.6112,-6.6112,-6.6112,-6.6112,-6.6112,-6.6112,-6.6112,-6.6112,-6.6112,-6.6112,-6.6112,-6.6112,-6.6112,-6.6112,-6.6112,-6.6112,-6.6112,-6.6112,-6.6112,-6.6112,-6.6026,-6.5828,-6.6455,-6.6092,-6.4747,-6.4865,-6.4337,-6.3153,-6.263,-6.2438,-6.2577,-6.2577,-6.2659,-6.2822,-6.2822,-6.2822,-6.2822,-6.2822,-6.2822,-6.2822,-6.2822,-6.2822,-6.2822,-6.2822,-6.1622,-5.9751,-5.7291,-5.6237,-5.5931,-5.5931,-5.842,-6.1266,-6.1266,-6.1215,-6.119,-6.119,-6.0788,-6.0387,-6.0387,-5.9659,-5.8905,-5.8805,-5.8403,-5.8052,-5.8052,-5.8001,-5.7976,-5.7976,-5.7926,-5.7901,-5.7901,-5.7901,-5.7901,-5.7901,-5.7449,-5.7298,-5.7826,-5.7424,-5.7123,-5.7123,-5.76,-5.7901,-5.7901,-5.7951,-5.7976,-5.7976,-5.8504,-5.878,-5.878,-5.9257,-5.9483,-5.9483,-5.9483,-5.9483,-5.9483,-5.9483,-5.9483,-5.9483,-5.9483,-5.9483,-5.9483,-5.9483,-5.9483,-5.9483,-5.9483,-5.9483,-5.9508,-5.9558,-5.9558,-5.9583,-5.9633,-5.9608,-5.9558,-6.6112,-6.6112,-6.6112,-6.6112,-6.6112,-6.6112,-6.6112,-6.6112,-6.6112,-6.6112,-6.6112,-6.6112,-6.6112,-6.6112,-6.6112,-6.6112,-6.6112,-6.6112,-6.6112,-6.6112,-6.6112,-6.6112,-6.6112,-6.5397,-6.3841,-6.5372,-6.4494,-6.0762,-6.2312,-6.1696,-5.9218,-5.91,-5.9612,-6.0685,-6.0685,-6.1457,-6.2822,-6.2822,-6.2822,-6.2822,-6.2822,-6.2822,-6.2822,-6.2822,-6.2822,-6.2822,-6.2822,-6.1622,-5.9547,-5.6181,-5.5873,-5.6987,-5.6987,-5.9176,-6.1818,-6.1818,-6.1517,-6.119,-6.119,-6.109,-6.0989,-6.0989,-6.0814,-6.0412,-5.9533,-5.9232,-5.9156,-5.9156,-5.883,-5.8554,-5.8554,-5.8177,-5.7901,-5.7901,-5.7901,-5.7901,-5.7901,-5.7801,-5.775,-5.7876,-5.7775,-5.77,-5.77,-5.7826,-5.7901,-5.7901,-5.8303,-5.8554,-5.8554,-5.9056,-5.9332,-5.9332,-5.9433,-5.9483,-5.9483,-5.9483,-5.9483,-5.9483,-5.9483,-5.9483,-5.9483,-5.9483,-5.9483,-5.9483,-5.9483,-5.9483,-5.9483,-5.9483,-5.9483,-5.9533,-5.996,-6.0136,-6.0186,-6.0638,-6.0537,-6.0085,-6.6112,-6.6112,-6.6112,-6.6112,-6.6112,-6.6112,-6.6112,-6.6112,-6.6112,-6.6112,-6.6112,-6.6112,-6.6112,-6.6112,-6.6112,-6.6112,-6.6112,-6.6112,-6.6112,-6.6112,-6.6112,-6.6112,-6.6112,-6.474,-6.1846,-6.3754,-6.3169,-5.9836,-6.0655,-6.0193,-5.8713,-5.8461,-5.8617,-5.9162,-6.0037,-6.0844,-6.154,-6.2388,-6.2822,-6.2822,-6.2822,-6.2822,-6.2822,-6.2822,-6.2822,-6.2822,-6.2822,-6.1018,-5.8445,-5.6554,-5.6554,-5.7309,-5.7309,-5.9631,-6.2395,-6.2395,-6.2195,-6.1969,-6.1969,-6.1768,-6.1567,-6.1567,-6.1391,-6.104,-6.0437,-6.0286,-6.0211,-5.9935,-5.9684,-5.9408,-5.9131,-5.8855,-5.8654,-5.8654,-5.8654,-5.8654,-5.8654,-5.8453,-5.8378,-5.8629,-5.8453,-5.8378,-5.8629,-5.8428,-5.8403,-5.8629,-5.893,-5.9081,-5.9081,-5.9357,-5.9483,-5.9483,-5.9483,-5.9608,-5.9885,-5.9885,-6.0035,-6.0286,-6.001,-5.9885,-5.991,-6.0186,-6.0286,-6.0286,-6.0286,-6.0286,-6.0286,-6.0286,-6.0286,-6.0337,-6.0613,-6.0738,-6.0763,-6.1065,-6.0989,-6.0688,-6.6112,-6.6112,-6.6112,-6.6112,-6.6112,-6.6112,-6.6112,-6.6112,-6.6112,-6.6112,-6.6112,-6.6112,-6.6112,-6.6112,-6.6112,-6.6112,-6.6112,-6.6112,-6.6112,-6.6112,-6.6112,-6.6112,-6.6112,-6.4478,-6.0836,-6.2024,-6.1577,-5.9316,-5.9159,-5.8932,-5.8503,-5.8098,-5.7825,-5.7679,-5.9271,-6.0067,-6.0448,-6.2001,-6.277,-6.3099,-6.2998,-6.3023,-6.3099,-6.2998,-6.3023,-6.3099,-6.3099,-6.0879,-5.7877,-5.7877,-5.7808,-5.7761,-5.7761,-6.0075,-6.2822,-6.2822,-6.2822,-6.2822,-6.2822,-6.2496,-6.2144,-6.2144,-6.1793,-6.1466,-6.1466,-6.1316,-6.104,-6.0563,-6.0462,-6.0337,-5.9859,-5.9784,-5.9784,-5.9784,-5.9709,-5.9633,-5.9633,-5.9182,-5.9006,-5.9433,-5.9106,-5.9031,-5.9458,-5.9106,-5.9031,-5.9458,-5.9483,-5.9483,-5.9483,-5.9483,-5.9533,-5.9633,-5.9633,-5.991,-6.0462,-6.0462,-6.0713,-6.1165,-6.0788,-6.0563,-6.0487,-6.0964,-6.119,-6.119,-6.119,-6.119,-6.119,-6.119,-6.119,-6.119,-6.1291,-6.1316,-6.1316,-6.1316,-6.1316,-6.1316,-6.6112,-6.6112,-6.6112,-6.6112,-6.6112,-6.6112,-6.6112,-6.6112,-6.6112,-6.6112,-6.6112,-6.6112,-6.6112,-6.6112,-6.6112,-6.6112,-6.6112,-6.6112,-6.6112,-6.6112,-6.6112,-6.6112,-6.6112,-6.5112,-6.2848,-6.1398,-5.895,-5.5262,-5.6896,-5.6658,-5.4569,-5.4506,-5.5116,-5.6168,-5.6439,-5.8334,-6.1384,-6.1641,-6.2773,-6.4203,-6.3751,-6.3852,-6.4203,-6.3751,-6.3852,-6.4254,-6.4254,-6.2623,-6.0408,-6.0408,-6.0122,-5.9739,-5.9739,-6.1125,-6.2822,-6.2822,-6.2822,-6.2822,-6.2822,-6.2772,-6.2722,-6.2722,-6.2672,-6.2596,-6.2596,-6.1868,-6.1165,-6.109,-6.1065,-6.104,-6.0964,-6.0964,-6.0964,-6.0964,-6.0537,-6.0211,-6.0211,-5.9734,-5.9408,-5.9483,-5.9433,-5.9408,-5.9483,-5.9433,-5.9408,-5.9483,-5.9483,-5.9483,-5.9483,-5.9483,-5.9709,-6.0186,-6.0211,-6.0487,-6.1065,-6.1065,-6.1115,-6.119,-6.1592,-6.1542,-6.1065,-6.114,-6.119,-6.119,-6.119,-6.119,-6.119,-6.119,-6.119,-6.124,-6.1718,-6.1893,-6.1893,-6.1893,-6.1893,-6.1818,-6.6112,-6.6112,-6.6112,-6.6112,-6.6112,-6.6112,-6.6112,-6.6112,-6.6112,-6.6112,-6.6112,-6.6112,-6.6112,-6.6112,-6.6112,-6.6112,-6.6112,-6.6112,-6.6112,-6.6112,-6.6112,-6.6112,-6.6112,-6.5199,-6.3201,-6.1309,-5.895,-5.6141,-5.588,-5.523,-5.4234,-5.4234,-5.4341,-5.479,-5.5781,-5.7671,-6.0077,-6.1144,-6.2714,-6.4454,-6.4228,-6.4254,-6.4429,-6.4203,-6.4279,-6.4454,-6.4454,-6.3161,-6.1326,-6.1326,-6.1157,-6.0965,-6.0965,-6.2258,-6.3751,-6.3751,-6.3751,-6.3676,-6.34,-6.3299,-6.3224,-6.2898,-6.2822,-6.2822,-6.2822,-6.2446,-6.2019,-6.1718,-6.1642,-6.1542,-6.124,-6.119,-6.119,-6.119,-6.0964,-6.0788,-6.0788,-6.0588,-6.0311,-5.9985,-5.996,-5.9834,-5.9533,-5.9483,-5.9483,-5.9483,-5.9483,-5.9633,-5.9935,-5.996,-6.0211,-6.0788,-6.0788,-6.1065,-6.1642,-6.1642,-6.1793,-6.2094,-6.2345,-6.2169,-6.1642,-6.1969,-6.2094,-6.2094,-6.2094,-6.2094,-6.2094,-6.2094,-6.2094,-6.2119,-6.237,-6.2471,-6.2471,-6.2471,-6.2471,-6.2421]},{"header":{"parameterUnit":"m.s-1","parameterCategory":1,"la1":30.6,"la2":28.766,"lo1":-90.7593,"lo2":-88.6598,"dy":0.0162,"dx":0.0183,"nx":116,"ny":114,"refTime":"2024-06-15T12:00:00:Z","depth":0,"parameterNumber":3,"parameterNumberName":"V-component_of_WINDS"},"data":[0.0,0.0,0.0,0.0,0.0,0.0,0.0,0.0,0.0,0.0,0.0,0.0,0.0,0.0,0.0,0.0,0.0,0.0,0.0,0.0,0.0,0.0,0.0,0.0,0.0,0.0,0.0,0.0,0.0,0.0,0.0,0.0,0.0,0.0,0.0,0.0,0.0,0.0,0.0,0.0,0.0,0.0,0.0,0.0,0.0,0.0,0.0,0.0,0.0,0.0,0.0,0.0,0.0,0.0,0.0,0.0,0.0,0.0,0.0,0.0,0.0,0.0,0.0,0.0,0.0,0.0,0.0,0.0,0.0,0.0,0.0,0.0,0.0,0.0,0.0,0.0,0.0,0.0,0.0,0.0,0.0,0.0,0.0,0.0,0.0,0.0,0.0,0.0,0.0,0.0,0.0,0.0,0.0,0.0,0.0,0.0,0.0,0.0,0.0,0.0,0.0,0.0,0.0,0.0,0.0,0.0,0.0,0.0,0.0,0.0,0.0,0.0,0.0,0.0,0.0,0.0,0.0,0.0,0.0,0.0,0.0,0.0,0.0,0.0,0.0,0.0,0.0,0.0,0.0,0.0,0.0,0.0,0.0,0.0,0.0,0.0,0.0,0.0,0.0,0.0,0.0,0.0,0.0,0.0,0.0,0.0,0.0,0.0,0.0,0.0,0.0,0.0,0.0,0.0,0.0,0.0,0.0,0.0,0.0,0.0,0.0,0.0,0.0,0.0,0.0,0.0,0.0,0.0,0.0,0.0,0.0,0.0,0.0,0.0,0.0,0.0,0.0,0.0,0.0,0.0,0.0,0.0,0.0,0.0,0.0,0.0,0.0,0.0,0.0,0.0,0.0,0.0,0.0,0.0,0.0,0.0,0.0,0.0,0.0,0.0,0.0,0.0,0.0,0.0,0.0,0.0,0.0,0.0,0.0,0.0,0.0,0.0,0.0,0.0,0.0,0.0,0.0,0.0,0.0,0.0,0.0,0.0,0.0,0.0,0.0,0.0,0.0,0.0,0.0,0.0,0.0,0.0,0.0,0.0,0.0,0.0,0.0,0.0,0.0,0.0,0.0,0.0,0.0,0.0,0.0,0.0,0.0,0.0,0.0,0.0,0.0,0.0,0.0,0.0,0.0,0.0,0.0,0.0,0.0,0.0,0.0,0.0,0.0,0.0,0.0,0.0,0.0,0.0,0.0,0.0,0.0,0.0,0.0,0.0,0.0,0.0,0.0,0.0,0.0,0.0,0.0,0.0,0.0,0.0,0.0,0.0,0.0,0.0,0.0,0.0,0.0,0.0,0.0,0.0,0.0,0.0,0.0,0.0,0.0,0.0,0.0,0.0,0.0,0.0,0.0,0.0,0.0,0.0,0.0,0.0,0.0,0.0,0.0,0.0,0.0,0.0,0.0,0.0,0.0,0.0,0.0,0.0,0.0,0.0,0.0,0.0,0.0,0.0,0.0,0.0,0.0,0.0,0.0,0.0,0.0,0.0,0.0,0.0,0.0,0.0,0.0,0.0,0.0,0.0,0.0,0.0,0.0,0.0,0.0,0.0,0.0,0.0,0.0,0.0,0.0,0.0,0.0,0.0,0.0,0.0,0.0,0.0,0.0,0.0,0.0,0.0,0.0,0.0,0.0,0.0,0.0,0.0,0.0,0.0,0.0,0.0,0.0,0.0,0.0,0.0,0.0,0.0,0.0,0.0,0.0,0.0,0.0,0.0,0.0,0.0,0.0,0.0,0.0,0.0,0.0,0.0,0.0,0.0,0.0,0.0,0.0,0.0,0.0,0.0,0.0,0.0,0.0,0.0,0.0,0.0,0.0,0.0,0.0,0.0,0.0,0.0,0.0,0.0,0.0,0.0,0.0,0.0,0.0,0.0,0.0,0.0,0.0,0.0,0.0,0.0,0.0,0.0,0.0,0.0,0.0,0.0,0.0,0.0,0.0,0.0,0.0,0.0,0.0,0.0,0.0,0.0,0.0,0.0,0.0,0.0,0.0,0.0,0.0,0.0,0.0,0.0,0.0,0.0,0.0,0.0,0.0,0.0,0.0,0.0,0.0,0.0,0.0,0.0,0.0,0.0,0.0,0.0,0.0,0.0,0.0,0.0,0.0,0.0,0.0,0.0,0.0,0.0,0.0,0.0,0.0,0.0,0.0,0.0,0.0,0.0,0.0,0.0,0.0,0.0,0.0,0.0,0.0,0.0,0.0,0.0,0.0,0.0,0.0,0.0,0.0,0.0,0.0,0.0,0.0,0.0,0.0,0.0,0.0,0.0,0.0,0.0,0.0,0.0,0.0,0.0,0.0,0.0,0.0,0.0,0.0,0.0,0.0,0.0,0.0,0.0,0.0,0.0,0.0,0.0,0.0,0.0,0.0,0.0,0.0,0.0,0.0,0.0,0.0,0.0,0.0,0.0,0.0,0.0,0.0,0.0,0.0,0.0,0.0,0.0,0.0,0.0,0.0,0.0,0.0,0.0,0.0,0.0,0.0,0.0,0.0,0.0,0.0,0.0,0.0,0.0,0.0,0.0,0.0,0.0,0.0,0.0,0.0,0.0,0.0,0.0,0.0,0.0,0.0,0.0,0.0,0.0,0.0,0.0,0.0,0.0,0.0,0.0,0.0,0.0,0.0,0.0,0.0,0.0,0.0,0.0,0.0,0.0,0.0,0.0,0.0,0.0,0.0,0.0,0.0,0.0,0.0,0.0,0.0,0.0,0.0,0.0,0.0,0.0,0.0,0.0,0.0,0.0,0.0,0.0,0.0,0.0,0.0,0.0,0.0,0.0,0.0,0.0,0.0,0.0,0.0,0.0,0.0,0.0,0.0,0.0,0.0,0.0,0.0,0.0,0.0,0.0,0.0,0.0,0.0,0.0,0.0,0.0,0.0,0.0,0.0,0.0,0.0,0.0,0.0,0.0,0.0,0.0,0.0,0.0,0.0,0.0,0.0,0.0,0.0,0.0,0.0,0.0,0.0,0.0,0.0,0.0,0.0,0.0,0.0,0.0,0.0,0.0,0.0,0.0,0.0,0.0,0.0,0.0,0.0,0.0,0.0,0.0,0.0,0.0,0.0,0.0,0.0,0.0,0.0,0.0,0.0,0.0,0.0,0.0,0.0,0.0,0.0,0.0,0.0,0.0,0.0,0.0,0.0,0.0,0.0,0.0,0.0,0.0,0.0,0.0,0.0,0.0,0.0,0.0,0.0,0.0,0.0,0.0,0.0,0.0,0.0,0.0,0.0,0.0,0.0,0.0,0.0,0.0,0.0,0.0,0.0,0.0,0.0,0.0,0.0,0.0,0.0,0.0,0.0,0.0,0.0,0.0,0.0,0.0,0.0,0.0,0.0,0.0,0.0,0.0,0.0,0.0,0.0,0.0,0.0,0.0,0.0,0.0,0.0,0.0,0.0,0.0,0.0,0.0,0.0,0.0,0.0,0.0,0.0,0.0,0.0,0.0,0.0,0.0,0.0,0.0,0.0,0.0,0.0,0.0,0.0,0.0,0.0,0.0,0.0,0.0,0.0,0.0,0.0,0.0,0.0,0.0,0.0,0.0,0.0,0.0,0.0,0.0,0.0,0.0,0.0,0.0,0.0,0.0,0.0,0.0,0.0,0.0,0.0,0.0,0.0,0.0,0.0,0.0,0.0,0.0,0.0,0.0,0.0,0.0,0.0,0.0,0.0,0.0,0.0,0.0,0.0,0.0,0.0,0.0,0.0,0.0,0.0,0.0,0.0,0.0,0.0,0.0,0.0,0.0,0.0,0.0,0.0,0.0,0.0,0.0,0.0,0.0,0.0,0.0,0.0,0.0,0.0,0.0,0.0,0.0,0.0,0.0,0.0,0.0,0.0,0.0,0.0,0.0,0.0,0.0,0.0,0.0,0.0,0.0,0.0,0.0,0.0,0.0,0.0,0.0,0.0,0.0,0.0,0.0,0.0,0.0,0.0,0.0,0.0,0.0,0.0,0.0,0.0,0.0,0.0,0.0,0.0,0.0,0.0,0.0,0.0,0.0,0.0,0.0,0.0,0.0,0.0,0.0,0.0,0.0,0.0,0.0,0.0,0.0,0.0,0.0,0.0,0.0,0.0,0.0,0.0,0.0,0.0,0.0,0.0,0.0,0.0,0.0,0.0,0.0,0.0,0.0,0.0,0.0,0.0,0.0,0.0,0.0,0.0,0.0,0.0,0.0,0.0,0.0,0.0,0.0,0.0,0.0,0.0,0.0,0.0,0.0,0.0,0.0,0.0,0.0,0.0,0.0,0.0,0.0,0.0,0.0,0.0,0.0,0.0,0.0,0.0,0.0,0.0,0.0,0.0,0.0,0.0,0.0,0.0,0.0,0.0,0.0,0.0,0.0,0.0,0.0,0.0,0.0,0.0,0.0,0.0,0.0,0.0,0.0,0.0,0.0,0.0,0.0,0.0,0.0,0.0,0.0,0.0,0.0,0.0,0.0,0.0,0.0,0.0,0.0,0.0,0.0,0.0,0.0,0.0,0.0,0.0,0.0,0.0,0.0,0.0,0.0,0.0,0.0,0.0,0.0,0.0,0.0,0.0,0.0,0.0,0.0,0.0,0.0,0.0,0.0,0.0,0.0,0.0,0.0,0.0,0.0,0.0,0.0,0.0,0.0,0.0,0.0,0.0,0.0,0.0,0.0,0.0,0.0,0.0,0.0,0.0,0.0,0.0,0.0,0.0,0.0,0.0,0.0,0.0,0.0,0.0,0.0,0.0,0.0,0.0,0.0,0.0,0.0,0.0,0.0,0.0,0.0,0.0,0.0,0.0,0.0,0.0,0.0,0.0,0.0,0.0,0.0,0.0,0.0,0.0,0.0,0.0,0.0,0.0,0.0,0.0,0.0,0.0,0.0,0.0,0.0,0.0,0.0,0.0,0.0,0.0,0.0,0.0,0.0,0.0,0.0,0.0,0.0,0.0,0.0,0.0,0.0,0.0,0.0,0.0,0.0,0.0,0.0,0.0,0.0,0.0,0.0,0.0,0.0,0.0,0.0,0.0,0.0,0.0,0.0,0.0,0.0,0.0,0.0,0.0,0.0,0.0,0.0,0.0,0.0,0.0,0.0,0.0,0.0,0.0,0.0,0.0,0.0,0.0,0.0,0.0,0.0,0.0,0.0,0.0,0.0,0.0,0.0,0.0,0.0,0.0,0.0,0.0,0.0,0.0,0.0,0.0,0.0,0.0,0.0,0.0,0.0,0.0,0.0,0.0,0.0,0.0,0.0,0.0,0.0,0.0,0.0,0.0,0.0,0.0,0.0,0.0,0.0,0.0,0.0,0.0,0.0,0.0,0.0,0.0,0.0,0.0,0.0,0.0,0.0,0.0,0.0,0.0,0.0,0.0,0.0,0.0,0.0,0.0,0.0,0.0,0.0,0.0,0.0,0.0,0.0,0.0,0.0,0.0,0.0,0.0,0.0,0.0,0.0,0.0,0.0,0.0,0.0,0.0,0.0,0.0,0.0,0.0,0.0,0.0,0.0,0.0,0.0,0.0,0.0,0.0,0.0,0.0,0.0,0.0,0.0,0.0,0.0,0.0,0.0,0.0,0.0,0.0,0.0,0.0,0.0,0.0,0.0,0.0,0.0,0.0,0.0,0.0,0.0,0.0,0.0,0.0,0.0,0.0,0.0,0.0,0.0,0.0,0.0,0.0,0.0,0.0,0.0,0.0,0.0,0.0,0.0,0.0,0.0,0.0,0.0,0.0,0.0,0.0,0.0,0.0,0.0,0.0,0.0,0.0,0.0,0.0,0.0,0.0,0.0,0.0,0.0,0.0,0.0,0.0,0.0,0.0,0.0,0.0,0.0,0.0,0.0,0.0,0.0,0.0,0.0,0.0,0.0,0.0,0.0,0.0,0.0,0.0,0.0,0.0,0.0,0.0,0.0,0.0,0.0,0.0,0.0,0.0,0.0,0.0,0.0,0.0,0.0,0.0,0.0,0.0,0.0,0.0,0.0,0.0,0.0,0.0,0.0,0.0,0.0,0.0,0.0,0.0,0.0,0.0,0.0,0.0,0.0,0.0,0.0,0.0,0.0,0.0,0.0,0.0,0.0,0.0,0.0,0.0,0.0,0.0,0.0,3.2189,3.0359,0.0,0.0,0.0,0.0,0.0,0.0,0.0,0.0,0.0,0.0,0.0,0.0,0.0,0.0,0.0,0.0,0.0,0.0,0.0,0.0,0.0,0.0,0.0,2.1737,2.2003,2.1897,2.1853,2.1857,2.1812,0.0,0.0,0.0,0.0,0.0,2.0746,2.0532,2.0808,2.1578,2.1736,2.2535,2.3955,2.4057,2.35,2.2346,0.0,0.0,0.0,0.0,0.0,0.0,0.0,0.0,0.0,0.0,0.0,0.0,0.0,0.0,0.0,0.0,0.0,0.0,0.0,0.0,0.0,0.0,0.0,0.0,0.0,0.0,0.0,0.0,0.0,0.0,0.0,0.0,0.0,0.0,0.0,0.0,0.0,0.0,0.0,0.0,0.0,0.0,0.0,0.0,0.0,0.0,0.0,0.0,0.0,0.0,0.0,0.0,0.0,0.0,0.0,0.0,0.0,0.0,0.0,0.0,0.0,0.0,0.0,0.0,0.0,0.0,0.0,0.0,0.0,0.0,3.7317,3.5364,0.0,0.0,0.0,0.0,0.0,0.0,0.0,0.0,0.0,0.0,0.0,0.0,0.0,0.0,0.0,0.0,0.0,0.0,0.0,0.0,0.0,2.0543,2.111,2.1663,2.2107,2.2433,2.2213,2.2101,2.2162,2.1895,0.0,0.0,0.0,2.0776,2.077,2.0342,2.1148,2.3222,2.3209,2.4434,2.6933,2.782,2.7245,2.5449,2.4505,0.0,0.0,0.0,0.0,0.0,0.0,0.0,0.0,0.0,0.0,0.0,0.0,0.0,0.0,0.0,0.0,0.0,0.0,0.0,0.0,0.0,0.0,0.0,0.0,0.0,0.0,0.0,0.0,0.0,0.0,0.0,0.0,0.0,0.0,0.0,0.0,0.0,0.0,0.0,0.0,0.0,0.0,0.0,0.0,0.0,0.0,0.0,0.0,0.0,0.0,0.0,0.0,0.0,0.0,0.0,0.0,0.0,0.0,0.0,0.0,0.0,0.0,0.0,4.2992,4.4095,4.5634,4.5082,4.5401,4.6231,4.3053,4.1424,4.083,3.8693,0.0,0.0,0.0,0.0,0.0,0.0,0.0,0.0,0.0,0.0,0.0,0.0,0.0,0.0,0.0,0.0,0.0,0.0,0.0,2.1061,2.1716,2.211,2.2982,2.453,2.3783,2.3324,2.3703,2.2818,0.0,2.0778,2.0378,2.0218,2.03,2.0999,2.2168,2.3791,2.6494,2.8437,2.9707,3.0417,3.0432,2.9803,2.7875,2.7589,2.8307,0.0,0.0,0.0,0.0,0.0,0.0,0.0,0.0,0.0,0.0,0.0,0.0,0.0,0.0,0.0,0.0,0.0,0.0,0.0,0.0,0.0,0.0,0.0,0.0,0.0,0.0,0.0,0.0,0.0,0.0,0.0,0.0,0.0,0.0,0.0,0.0,0.0,0.0,0.0,0.0,0.0,2.8359,2.9697,0.0,0.0,0.0,0.0,0.0,0.0,0.0,0.0,0.0,0.0,0.0,0.0,0.0,4.1221,4.3079,4.6011,4.755,4.7753,5.054,5.202,5.2252,5.2165,5.2223,5.231,5.1329,0.0,4.4426,4.2841,0.0,0.0,0.0,0.0,0.0,0.0,0.0,0.0,0.0,0.0,0.0,0.0,0.0,0.0,0.0,0.0,0.0,0.0,0.0,0.0,0.0,2.3968,2.5021,2.6236,2.6601,2.6227,2.4928,2.4288,2.3096,2.1068,2.0545,2.0509,2.0922,2.2216,2.4458,2.7663,3.051,3.2317,3.312,3.3765,3.4168,3.4259,3.2916,3.111,2.8916,2.6746,0.0,0.0,0.0,0.0,0.0,0.0,0.0,0.0,0.0,0.0,0.0,0.0,0.0,0.0,0.0,0.0,0.0,0.0,0.0,0.0,0.0,0.0,0.0,0.0,0.0,0.0,0.0,0.0,0.0,0.0,0.0,0.0,0.0,0.0,0.0,0.0,0.0,0.0,0.0,2.8564,3.1469,3.1642,3.2048,3.1526,0.0,0.0,0.0,0.0,0.0,0.0,0.0,0.0,0.0,4.4734,4.5547,4.6853,4.8798,5.054,5.1614,5.1991,5.3413,5.4255,5.4575,5.4575,5.4575,5.4575,5.4284,5.2719,5.0162,4.6904,4.4184,4.1912,0.0,0.0,0.0,0.0,4.1276,4.1859,0.0,0.0,0.0,0.0,0.0,0.0,0.0,0.0,0.0,0.0,0.0,0.0,2.4713,2.5918,2.7151,2.8575,2.9247,2.8825,2.6976,2.5655,2.3978,2.1806,2.1064,2.103,2.1845,2.4475,2.7636,3.1353,3.3732,3.5154,3.5654,3.6083,3.6529,3.6886,3.6315,3.4083,3.0639,2.9403,2.7534,2.5282,0.0,0.0,0.0,0.0,0.0,0.0,0.0,0.0,0.0,0.0,0.0,0.0,0.0,0.0,0.0,0.0,0.0,0.0,0.0,0.0,0.0,0.0,0.0,0.0,0.0,0.0,0.0,0.0,0.0,0.0,0.0,0.0,0.0,0.0,0.0,0.0,0.0,3.2019,3.469,3.4051,3.5532,3.5473,0.0,0.0,0.0,0.0,0.0,0.0,4.2934,4.4414,4.6592,4.964,5.083,5.2165,5.3762,5.4429,5.4981,5.5474,5.5649,5.5968,5.6403,5.6403,5.6403,5.6403,5.6229,5.5794,5.4865,5.0808,4.8038,4.6355,4.521,4.4382,4.4006,4.5549,4.622,4.6717,0.0,0.0,0.0,0.0,0.0,0.0,0.0,0.0,0.0,0.0,0.0,2.3934,2.6836,2.7434,2.8911,3.2144,3.1052,3.0273,3.0535,2.6533,2.3774,2.2859,2.1762,2.1703,2.2817,2.8246,3.1845,3.3358,3.527,3.6228,3.6257,3.6286,3.6315,3.6351,3.6322,3.636,3.6339,3.3607,3.1916,3.0804,2.7572,0.0,0.0,0.0,0.0,0.0,0.0,0.0,0.0,0.0,0.0,0.0,0.0,0.0,0.0,0.0,0.0,0.0,0.0,0.0,0.0,0.0,0.0,0.0,0.0,0.0,0.0,0.0,0.0,0.0,0.0,0.0,0.0,0.0,0.0,0.0,0.0,0.0,0.0,3.7999,4.067,0.0,0.0,0.0,0.0,4.0757,4.3689,4.633,4.8246,5.0162,5.2368,5.4952,5.5707,5.6403,5.7071,5.7739,5.8087,5.8116,5.8755,5.9074,5.9103,5.9103,5.9103,5.9074,5.8435,5.7768,5.6955,5.4284,5.21,5.029,4.9161,4.7968,4.7033,4.8162,4.9042,4.9832,0.0,0.0,0.0,0.0,0.0,1.8096,1.9265,1.959,2.0223,2.1643,2.3342,2.5204,2.7153,2.961,3.1936,3.4007,3.451,3.406,3.2531,2.9342,2.7137,2.6355,2.4599,2.5354,2.9,3.1901,3.4399,3.6519,3.7622,3.8376,3.8754,3.8754,3.8754,3.8725,3.8347,3.8018,3.7529,3.4739,3.2792,3.1442,2.9248,2.7055,0.0,0.0,0.0,0.0,0.0,0.0,0.0,0.0,0.0,0.0,0.0,0.0,0.0,0.0,0.0,0.0,0.0,0.0,0.0,0.0,0.0,0.0,0.0,0.0,0.0,0.0,0.0,0.0,0.0,0.0,0.0,0.0,0.0,0.0,0.0,0.0,0.0,4.1366,4.4124,0.0,4.244,4.4356,4.5982,4.6563,4.9204,5.1439,5.2949,5.4458,5.5881,5.7216,5.7913,5.8377,5.8581,5.8813,5.8958,5.8958,5.919,5.9306,5.9306,5.9306,5.9306,5.9306,5.9045,5.8813,5.8523,5.7623,5.562,5.3065,5.2421,5.1879,5.1578,5.2131,5.2782,5.3393,0.0,0.0,0.0,0.0,1.7715,1.815,1.9569,1.9704,2.0448,2.2641,2.4507,2.6467,2.864,3.1582,3.3938,3.5316,3.6171,3.576,3.3732,3.0905,2.8966,2.8154,2.712,2.8621,3.3064,3.4632,3.6431,3.8551,3.9189,3.9712,4.0089,4.0089,4.0089,4.0089,3.9683,3.9247,3.8696,3.6629,3.4738,3.3006,3.1506,2.9577,2.7457,0.0,0.0,0.0,0.0,0.0,0.0,0.0,0.0,0.0,0.0,0.0,0.0,0.0,0.0,0.0,0.0,0.0,0.0,0.0,0.0,0.0,0.0,0.0,0.0,0.0,0.0,0.0,0.0,0.0,0.0,0.0,0.0,0.0,0.0,4.2034,4.5024,4.4356,4.7491,4.8885,4.6737,4.8856,5.0714,5.1556,5.3791,5.5503,5.6345,5.7797,5.8813,5.9248,6.0119,6.0584,6.0584,6.0584,6.0584,6.0584,6.0584,6.0584,6.0584,6.0351,6.0235,6.0235,6.0032,5.98,5.9597,5.9597,5.8232,5.6055,5.5317,5.5075,5.5017,5.4896,5.5171,5.5624,0.0,0.0,0.0,1.7726,1.7647,1.8112,1.9484,1.9671,2.0955,2.458,2.5788,2.7731,3.1364,3.3155,3.4719,3.6193,3.5758,3.5092,3.4298,3.1116,2.8891,2.8169,2.9202,3.1292,3.4457,3.6402,3.7999,3.9247,3.9857,4.0147,4.0147,4.0147,4.0147,4.0147,4.0147,4.0118,4.0089,3.9479,3.8025,3.6018,3.4476,3.3123,3.1574,0.0,0.0,0.0,0.0,0.0,0.0,0.0,0.0,0.0,0.0,0.0,0.0,0.0,0.0,0.0,0.0,0.0,0.0,0.0,0.0,0.0,0.0,0.0,0.0,0.0,0.0,0.0,0.0,0.0,0.0,0.0,0.0,0.0,4.2266,4.5518,4.7695,4.7172,5.0946,5.2659,5.0171,5.3326,5.5503,5.5533,5.7303,5.8406,5.8406,6.0206,6.1251,6.1251,6.2441,6.308,6.308,6.308,6.308,6.308,6.308,6.308,6.308,6.2412,6.2122,6.2093,6.1483,6.0845,6.0264,6.0235,5.9887,5.9219,5.7884,5.7361,5.7272,5.6267,5.607,5.6415,0.0,0.0,1.7772,1.7726,1.8083,1.8701,1.9584,2.0083,2.1334,2.3951,2.5632,2.7753,3.077,3.3037,3.4864,3.6228,3.5767,3.5461,3.5646,3.2105,3.0187,3.066,3.31,3.5299,3.7128,3.858,3.9741,4.0583,4.1221,4.1541,4.1541,4.1541,4.1541,4.1541,4.1047,4.0815,4.0786,4.0118,3.9499,3.8806,3.6902,3.4758,3.2496,0.0,0.0,0.0,0.0,0.0,0.0,0.0,0.0,0.0,0.0,0.0,0.0,0.0,0.0,0.0,0.0,0.0,0.0,0.0,0.0,0.0,0.0,0.0,0.0,0.0,0.0,0.0,0.0,0.0,0.0,0.0,4.3166,4.6214,4.6214,4.874,5.1178,5.2862,5.4575,5.5707,5.591,5.6897,5.771,5.8203,5.9568,6.0409,6.0409,6.1774,6.2558,6.2558,6.2906,6.308,6.308,6.308,6.308,6.308,6.308,6.308,6.308,6.2906,6.2819,6.279,6.2122,6.1745,6.1542,6.1106,6.0816,6.0555,5.9248,5.8755,5.8639,5.7854,5.7342,5.6986,0.0,1.8025,1.7772,1.7726,1.8239,1.8935,1.9617,2.0249,2.1713,2.4547,2.6186,2.8186,3.1011,3.2936,3.4333,3.5125,3.5094,3.4729,3.4121,3.202,3.154,3.3194,3.5479,3.7447,3.8957,4.0002,4.0844,4.1512,4.1918,4.2237,4.2469,4.2469,4.2615,4.2876,4.2179,4.1889,4.1831,4.1221,4.0786,4.0419,3.9203,3.7285,3.4999,3.3245,3.1957,3.0836,2.9192,2.8801,2.8922,2.7961,0.0,0.0,0.0,0.0,0.0,0.0,0.0,0.0,0.0,0.0,0.0,0.0,0.0,0.0,0.0,0.0,0.0,0.0,0.0,0.0,0.0,0.0,0.0,0.0,4.7027,5.0162,5.1236,5.2688,5.4255,5.5997,5.7042,5.7913,5.8639,5.919,5.9684,6.0061,6.128,6.2006,6.2006,6.2935,6.3486,6.3486,6.3748,6.3893,6.3893,6.3893,6.3893,6.3893,6.3893,6.3893,6.3864,6.3603,6.3486,6.3457,6.279,6.2499,6.247,6.1832,6.1571,6.1454,0.0,0.0,0.0,0.0,5.8456,5.7882,0.0,1.811,1.7772,1.7726,1.8318,1.9014,1.9617,2.0362,2.2144,2.5722,2.7059,2.8756,3.1583,3.2833,3.3516,3.3484,3.4023,3.354,3.1545,3.1827,3.3122,3.5508,3.6896,3.8434,4.0176,4.0873,4.1541,4.2208,4.2208,4.2498,4.3108,4.3108,4.3427,4.3979,4.3369,4.3108,4.3079,4.244,4.186,4.1308,4.1163,3.9973,3.8057,3.5735,3.4806,3.4428,3.2077,3.142,3.1367,2.9347,0.0,0.0,0.0,0.0,0.0,0.0,0.0,0.0,0.0,0.0,0.0,0.0,0.0,0.0,0.0,0.0,0.0,0.0,0.0,0.0,0.0,0.0,0.0,0.0,5.054,5.3878,5.6374,5.681,5.7042,5.7565,5.8668,5.9451,5.9597,6.0642,6.1338,6.1396,6.2529,6.3196,6.3196,6.3806,0.0,0.0,0.0,6.4996,6.4996,6.4996,6.4996,6.4996,6.4996,6.4996,6.4967,6.4386,6.4091,6.4125,6.3486,6.3196,6.3138,6.247,6.2151,6.1977,6.0787,6.0264,6.0178,5.9888,5.9332,5.8891,0.0,1.811,1.7772,1.7726,1.879,1.9667,1.9684,2.0802,2.2769,2.5806,2.7003,2.8475,3.0935,3.2516,3.3451,3.3516,3.3604,3.363,3.3465,3.466,3.5851,3.6896,3.8609,3.9973,4.0873,4.157,4.2208,4.2818,4.2818,4.3166,4.3805,4.3805,4.3863,4.3979,4.3863,4.3805,4.3747,4.3108,4.2731,4.2528,4.1512,4.0263,3.8899,3.7854,3.7157,3.6606,3.5561,3.5218,3.5258,3.4811,3.3333,3.168,3.1385,2.9463,0.0,0.0,0.0,0.0,0.0,0.0,0.0,0.0,0.0,0.0,0.0,0.0,0.0,0.0,0.0,0.0,0.0,0.0,0.0,5.0249,5.35,5.6374,5.8464,5.9161,5.951,5.9626,5.9858,6.0438,6.1454,6.1774,6.2151,6.2674,6.3428,6.3864,6.3864,6.4473,6.4793,6.4793,6.4909,6.4996,6.4996,6.4996,6.4996,6.4996,6.4996,0.0,6.4996,6.4851,6.4793,6.4764,6.4125,6.3864,6.3806,6.3167,6.2587,6.2035,6.128,6.0671,6.0177,6.012,5.983,5.9419,1.8551,1.8205,1.8029,1.8256,1.9185,1.9995,2.0271,2.1197,2.2784,2.5309,2.5902,2.6947,2.9257,3.0094,3.0519,3.0548,3.1006,3.2049,3.3844,3.4801,3.6228,3.8173,3.945,4.0554,4.157,4.2208,4.2702,4.2992,4.334,4.3805,4.4443,4.4443,4.4618,4.4937,4.4589,4.4443,4.4385,4.3747,4.3311,4.2934,4.2295,4.1482,4.0525,3.9538,3.8783,3.8173,3.7506,3.707,3.6751,3.6431,3.5473,3.437,3.4051,3.2396,3.0277,0.0,0.0,0.0,0.0,0.0,0.0,0.0,0.0,0.0,0.0,0.0,0.0,0.0,0.0,4.3108,4.5053,0.0,5.1033,5.3588,5.591,5.7913,5.951,6.0003,6.0206,6.0206,6.0758,6.1396,6.2035,6.2674,6.3196,6.3545,6.4154,6.4502,6.4502,6.4822,6.4996,6.4996,6.4996,6.4996,6.4996,6.4996,6.4996,6.4996,6.4996,6.4996,6.4996,6.4996,6.4996,6.4967,6.4648,6.4502,6.4473,6.3835,6.2993,6.2064,6.1774,6.1251,6.07,6.07,6.0383,5.9918,1.8561,1.8442,1.851,1.8834,1.9458,2.0155,2.0793,2.1473,2.2633,2.463,2.4774,2.5368,2.7188,2.741,2.75,2.7764,2.8936,3.0925,3.3897,3.4626,3.6286,3.9247,3.9973,4.0844,4.2063,4.2673,4.305,4.3195,4.3834,4.4472,4.5082,4.5082,4.5372,4.5866,4.5314,4.5082,4.5024,4.4414,4.3776,4.3166,4.305,4.2644,4.1976,4.0757,3.9915,3.9276,3.8492,3.7825,3.7215,3.6548,3.6315,3.6228,3.5741,3.4869,3.3678,3.1731,3.1179,0.0,0.0,0.0,0.0,0.0,0.0,0.0,0.0,3.977,4.1192,4.4531,4.6127,4.7782,5.0511,5.2484,5.44,5.6607,5.7913,5.9074,6.0235,6.038,6.038,6.038,6.1396,6.2151,6.2267,6.3341,6.4033,6.4212,6.4706,6.4996,6.4996,6.4996,6.4996,6.4996,6.4996,6.4996,6.4996,6.4996,6.4996,6.4996,6.4996,6.4996,6.4996,6.4996,6.4996,6.4996,6.4996,6.4996,6.4938,6.4299,6.3428,6.247,6.2325,6.1919,6.1367,6.1251,6.0845,6.044,0.0,1.9009,1.9306,1.8959,1.9507,2.0187,2.0793,2.1515,2.2508,2.3934,2.442,2.477,2.5195,2.609,2.7132,2.8389,3.0449,3.2575,3.4666,3.6143,3.7883,3.9915,4.0641,4.1337,4.2092,4.2673,4.3282,4.3892,4.4472,4.514,4.5779,4.5779,4.5808,4.5895,4.5808,4.5779,4.5721,4.5053,4.4443,4.3834,4.3224,4.2644,4.2005,4.1279,4.0583,3.9828,3.8638,3.7825,3.7215,3.6548,3.6315,3.6286,3.6228,3.6112,3.5619,3.3736,3.3184,3.3009,3.2193,3.3906,3.6431,3.8783,3.9915,4.2121,0.0,4.8682,4.8624,5.2426,5.3762,5.4517,5.5474,5.6752,5.7942,5.8842,5.9539,6.0235,6.099,6.1077,6.1077,6.1077,6.1687,6.2325,6.2935,6.3632,6.427,6.4822,6.4938,6.4996,6.4996,6.4996,6.4996,6.4996,6.4996,6.4996,6.4996,6.4996,6.4996,6.4996,6.4996,6.4996,6.4996,6.4996,6.4996,6.4996,6.4996,6.4996,6.4938,6.4299,6.3888,6.3714,6.3196,6.2587,6.1919,6.1396,6.1164,6.099,0.0,1.8986,1.9395,1.9534,2.0196,2.0901,2.1566,2.1859,2.2323,2.3267,2.3342,2.3474,2.3953,2.4382,2.4971,2.5955,2.8737,3.1073,3.2514,3.5312,3.7528,3.8928,3.9973,4.0815,4.1482,4.2498,4.3311,4.3979,4.4589,4.5227,4.5895,4.5895,4.5895,4.5895,4.5895,4.5895,4.5866,4.5576,4.4908,4.3979,4.3689,4.2731,4.1482,4.1221,4.0205,3.8928,3.8405,3.7564,0.0,3.6402,3.6315,3.6315,3.6315,3.5793,3.5038,3.4254,3.4806,3.6286,3.8986,4.0234,4.1395,4.3921,4.5634,4.7433,5.0394,5.1004,5.1846,5.4981,5.6084,5.6839,5.7884,5.8813,5.9626,6.0293,6.0903,6.1396,6.1687,6.1425,6.1048,6.0671,6.1193,6.1977,6.2993,6.3661,6.4299,6.4938,6.4996,6.4996,6.4996,6.4996,6.4996,6.4996,6.4996,6.4996,6.4996,6.4996,6.4996,6.4996,6.4996,6.4996,6.4996,6.4996,6.4996,6.4996,6.4996,6.4996,6.4967,6.4706,6.4357,6.3946,6.3748,6.2993,6.2064,6.1803,6.1483,6.1164,0.0,1.9258,1.9751,2.0234,2.0974,2.1671,2.2113,2.2075,2.2185,2.263,2.2294,2.2198,2.2629,2.2922,2.331,2.3866,2.7133,2.9701,3.0925,3.4178,3.6697,3.8144,3.9073,4.006,4.1076,4.2179,4.3079,4.3718,4.4327,4.4966,4.5605,4.5605,4.5721,4.5895,4.5895,4.5779,4.5605,4.5605,4.4879,4.3689,4.3544,4.2528,4.1047,4.0495,3.9218,3.768,3.768,3.6867,3.5706,3.5183,3.5328,3.5764,3.559,3.5241,3.5009,3.5357,3.6693,3.887,4.2557,4.4153,4.5314,4.7491,4.9901,5.1817,5.2165,5.2978,5.4313,5.6723,5.739,5.7942,5.9103,5.98,6.0409,6.1077,6.1716,6.2093,6.2093,6.1571,6.0961,6.0264,6.0467,6.1164,6.2441,6.3457,6.4299,6.4938,6.4996,6.4996,6.4996,6.4996,6.4996,6.4996,6.4996,6.4996,6.4996,6.4996,6.4996,6.4996,6.4996,6.4996,6.4996,6.4996,6.4996,6.4996,6.4996,6.4996,6.4996,6.4996,6.4706,6.4299,6.4299,6.3603,6.2616,6.2441,6.1861,6.1193,0.0,0.0,2.0767,2.11,2.1786,2.2251,2.2214,2.2075,2.1984,2.193,2.1589,2.1215,2.0923,2.2041,2.2929,2.3231,2.6694,2.9519,3.0925,3.3296,3.5735,3.8086,3.8231,3.916,4.1047,4.1773,4.2411,4.3021,4.3689,4.4327,4.4908,4.4908,4.5256,4.5895,4.5895,4.5518,4.4908,4.4908,4.4182,4.2963,4.2382,4.1715,4.0902,3.9015,3.7476,3.6373,3.6373,3.5561,3.4167,3.2278,3.2919,3.437,3.3794,3.4806,3.6489,3.7738,3.9015,4.0031,4.0205,4.3427,4.701,4.8315,5.1556,5.472,5.5968,5.6258,5.6839,5.8813,5.8726,5.8493,5.919,5.98,6.0409,6.1077,6.1716,6.2093,6.2093,6.1571,6.0961,6.0264,5.9713,5.9858,6.1135,6.2935,6.4299,6.4938,6.4996,6.4996,6.4996,6.4996,6.4996,6.4996,6.4996,6.4996,6.4996,6.4996,6.4996,6.4996,6.4996,6.4996,6.4996,6.4996,6.4996,6.4996,6.4996,6.4996,6.4996,6.4996,6.4967,6.4967,6.4967,6.4561,6.3893,6.3283,6.2267,6.1193,0.0,0.0,0.0,2.1223,2.182,2.2299,2.2285,2.218,2.2075,2.1969,2.218,0.0,0.0,0.0,0.0,0.0,2.6565,2.8646,2.9178,3.2308,3.4643,3.5758,3.6961,3.8115,3.916,3.9828,4.0699,4.1744,4.1976,4.2411,4.3021,4.3021,4.3166,4.3369,4.3369,4.3253,4.3021,4.3021,4.3021,4.2847,4.1366,4.0641,4.0263,3.8783,3.6896,3.5009,0.0,3.3587,3.2365,3.1698,3.193,3.26,3.33,3.3616,3.437,3.7331,3.9102,4.0931,4.4792,4.755,4.9988,5.2543,5.4778,5.649,5.6897,5.7332,5.771,5.7942,5.7129,5.6461,5.6665,5.7245,5.8174,5.9684,6.1164,6.2238,6.2703,6.2587,6.189,6.038,6.0409,6.0729,6.1164,6.1774,6.2761,6.4241,6.4357,6.4532,6.4967,6.4996,6.4996,6.4996,6.4996,6.4996,6.4996,6.4996,6.4996,6.4996,6.4996,6.4996,6.4996,6.4996,6.4996,6.4996,6.4996,6.4996,6.4996,6.4996,6.4996,6.4996,6.4996,6.459,6.3946,6.3806,6.2906,6.1745,0.0,0.0,0.0,0.0,0.0,0.0,0.0,0.0,0.0,0.0,0.0,0.0,0.0,0.0,0.0,0.0,0.0,2.7795,2.7925,3.0629,3.2867,3.4226,3.4908,3.6002,3.7506,3.7506,3.8231,3.9741,3.9741,4.0205,4.1047,4.1047,4.1163,4.1395,4.1395,4.1279,4.1047,4.1047,4.1163,4.1163,3.9683,3.8957,3.8609,3.7331,3.5561,0.0,3.2777,3.1758,3.077,3.0568,3.0945,3.1669,3.2803,3.4109,3.5764,3.8463,4.0641,4.3224,4.8101,5.054,5.2397,5.5358,5.6868,5.771,5.7971,5.7826,5.7507,5.7071,5.5591,5.44,5.44,5.4749,5.5736,5.7913,5.9858,6.1483,6.2587,6.2732,6.2267,6.1019,6.1077,6.128,6.1483,6.1513,6.2209,6.3922,6.4241,6.4561,6.4967,6.4996,6.4996,6.4996,6.4996,6.4996,6.4996,6.4996,6.4996,6.4996,6.4996,6.4996,6.4996,6.4996,6.4996,6.4996,6.4996,6.4996,6.4996,6.4996,6.4996,6.4996,6.4996,6.4735,6.4357,6.4125,6.337,6.2354,0.0,0.0,0.0,0.0,0.0,0.0,0.0,0.0,0.0,0.0,0.0,0.0,0.0,0.0,0.0,0.0,0.0,0.0,2.7208,2.8492,3.0511,3.3352,3.2324,3.3106,3.6054,3.498,3.527,3.7157,3.7157,3.7796,3.9015,3.9015,3.9334,3.9915,3.9915,3.9596,3.9044,3.9044,3.8696,3.8115,3.7418,3.6809,3.6112,3.4864,3.3587,3.2309,3.1061,3.0219,2.9552,2.9029,3.019,3.1959,3.2655,3.6257,4.035,4.1105,4.3602,4.6795,4.9988,5.2281,5.4342,5.6781,5.7884,5.8493,5.9074,5.7768,5.6345,5.6142,5.4081,5.2333,5.2158,5.2333,5.3239,5.5765,5.8,6.0032,6.189,6.2209,6.2209,6.2151,6.1658,6.1542,6.2093,6.218,6.2703,6.3888,6.459,6.4938,6.4996,6.4996,6.4996,6.4996,6.4996,6.4996,6.4996,6.4996,6.4996,6.4996,6.4996,6.4996,6.4996,6.4996,6.4996,6.4996,6.4996,6.4996,6.4996,6.4996,6.4996,6.4996,6.4996,6.4996,6.4909,6.4299,6.369,6.3051,0.0,0.0,0.0,0.0,0.0,0.0,0.0,0.0,0.0,0.0,0.0,0.0,0.0,0.0,0.0,0.0,0.0,0.0,2.604,2.7624,2.9117,3.0364,3.1367,3.2449,3.3576,3.3813,3.4301,3.5154,3.5154,3.5561,3.638,3.638,3.6664,3.7273,3.7273,3.7186,3.7041,3.7041,3.7244,3.7389,3.5793,3.5328,3.5508,3.423,3.289,3.1698,3.1409,3.0858,3.0364,3.0684,3.3325,3.6693,3.7825,3.9741,4.2005,4.4066,4.6592,4.9436,5.2659,5.5271,5.7361,5.8493,5.8929,5.8842,5.8,5.71,5.5591,5.2717,5.0452,4.8275,4.5866,4.8159,5.0946,5.2572,5.7274,6.1222,6.2645,6.3661,6.3893,6.2964,6.3109,6.3196,6.2877,6.3254,6.369,6.3946,6.4183,6.4473,6.4967,6.4996,6.4996,6.4996,6.4996,6.4996,6.4996,6.4996,6.4996,6.4996,6.4996,6.4996,6.4996,6.4996,6.4996,6.4996,6.4996,6.4996,6.4996,6.4996,6.4996,6.4996,6.4996,6.4996,6.4967,6.4793,6.4357,6.3777,0.0,0.0,0.0,0.0,0.0,0.0,0.0,0.0,0.0,0.0,0.0,0.0,0.0,0.0,0.0,0.0,0.0,0.0,0.0,2.6385,2.765,2.8788,2.9592,3.0483,3.1482,3.1893,3.2213,3.2375,3.2958,3.3278,3.33,3.33,3.3474,3.379,3.379,3.3935,3.4196,3.4196,3.4603,0.0,0.0,3.3616,3.3587,3.289,3.199,3.1119,3.1119,3.1961,3.3325,3.4777,3.7331,4.0176,4.1715,4.3311,4.5082,4.7637,5.0017,5.2397,5.501,5.739,5.9161,5.9277,5.9074,5.8232,5.5794,5.4517,5.2717,4.8595,4.6446,4.4647,4.2557,4.514,4.8188,5.0046,5.5474,6.0148,6.2006,6.3603,6.4415,6.398,6.4241,6.4328,6.3951,6.4241,6.4444,6.4444,6.4444,6.4619,6.4967,6.4996,6.4996,6.4996,6.4996,6.4996,6.4996,6.4996,6.4996,6.4996,6.4996,6.4996,6.4996,6.4996,6.4996,6.4996,6.4996,6.4996,6.4996,6.4996,6.4996,6.4996,6.4996,6.4996,6.4996,6.4996,6.459,6.3975,0.0,0.0,0.0,0.0,0.0,0.0,0.0,0.0,0.0,0.0,0.0,0.0,0.0,0.0,0.0,0.0,0.0,0.0,0.0,0.0,2.6422,2.7984,2.7743,2.8254,2.9747,2.9922,2.9895,2.9723,3.0866,3.1128,3.0511,3.0511,3.051,3.0598,3.0598,3.0887,3.138,3.138,3.1729,3.2251,3.2251,3.1903,3.138,0.0,3.1061,3.0627,3.0801,3.3093,3.6489,3.9392,4.1424,4.3079,4.5024,4.6911,4.8914,5.1497,5.35,5.53,5.7187,5.8987,6.0177,5.9568,5.8784,5.7187,5.3413,5.1381,4.903,4.4531,4.2586,4.1424,4.0495,4.2702,4.5518,4.8159,5.3442,5.8174,6.1048,6.2935,6.427,6.4909,6.4996,6.4996,6.4996,6.4996,6.4996,6.4996,6.4996,6.4996,6.4996,6.4996,6.4996,6.4996,6.4996,6.4996,6.4996,6.4996,6.4996,6.4996,6.4996,6.4996,6.4996,6.4996,6.4996,6.4996,6.4996,6.4996,6.4996,6.4996,6.4996,6.4996,6.4996,6.4996,6.4996,6.4996,6.4648,6.4091,0.0,0.0,0.0,0.0,0.0,0.0,0.0,0.0,0.0,0.0,2.5363,0.0,0.0,0.0,0.0,0.0,0.0,0.0,0.0,0.0,0.0,2.6877,2.7863,2.8472,2.861,2.9144,2.9358,2.9219,2.9425,2.9721,2.9929,2.9929,3.0163,3.0598,3.0598,3.0656,3.0772,3.0772,3.083,3.0946,3.0946,3.0859,3.0772,3.0772,0.0,0.0,3.1787,3.3267,3.5473,4.0176,4.366,4.6446,4.8885,5.0676,5.2252,5.4836,5.6171,5.7245,5.9161,6.0351,6.0874,6.0206,5.8755,5.6607,5.3326,5.0386,4.6998,4.2528,4.0583,3.9015,3.6816,4.0176,4.4327,4.7433,5.2775,5.8,6.218,6.3486,6.427,6.4909,6.4996,6.4996,6.4996,6.4996,6.4996,6.4996,6.4996,6.4996,6.4996,6.4996,6.4996,6.4996,6.4996,6.4996,6.4996,6.4996,6.4996,6.4996,6.4996,6.4996,6.4996,6.4996,6.4996,6.4996,6.4996,6.4996,6.4996,6.4996,6.4996,6.4996,6.4996,6.4996,6.4996,6.4996,6.4909,6.4822,0.0,0.0,0.0,0.0,0.0,0.0,0.0,0.0,0.0,0.0,2.8691,2.823,0.0,0.0,0.0,0.0,0.0,0.0,0.0,0.0,0.0,0.0,2.768,2.8013,2.7935,2.9247,2.9523,2.8761,0.0,2.945,2.8956,2.8523,2.8469,2.8706,2.865,2.8797,2.9116,2.9435,2.9784,3.0103,3.0481,3.0801,3.1061,0.0,0.0,0.0,3.2687,3.4051,3.588,3.9015,4.2644,4.6446,5.0046,5.2049,5.3442,5.5329,5.681,5.8116,5.9393,6.0438,6.0961,5.9974,5.8261,5.5474,5.0278,4.7404,4.424,3.8754,3.7389,3.6722,3.5154,3.8231,4.186,4.4414,4.9378,5.4604,5.9422,6.1193,6.2761,6.4764,6.4996,6.5112,6.546,6.5489,6.5606,6.5954,6.5983,6.5693,6.5025,6.4996,6.4996,6.4996,6.4996,6.4996,6.4996,6.4996,6.4996,6.4996,6.4996,6.4996,6.4996,6.4996,6.4996,6.4996,6.4996,6.4996,6.4996,6.4996,6.4996,6.4996,6.4996,6.4996,6.4996,6.4996,6.4996,6.4996,0.0,0.0,0.0,0.0,0.0,0.0,0.0,2.6404,2.7805,3.0384,3.1557,3.1207,2.871,2.7599,2.6836,0.0,0.0,0.0,0.0,0.0,0.0,0.0,0.0,2.7675,2.7824,0.0,0.0,0.0,2.9669,0.0,0.0,0.0,0.0,0.0,2.7188,2.7399,2.7982,2.836,2.8913,0.0,0.0,3.0945,0.0,0.0,0.0,0.0,0.0,3.4341,3.5764,3.7593,4.0466,4.4008,4.8246,5.112,5.321,5.4749,5.649,5.8145,5.919,6.0322,6.0874,5.9451,5.7623,5.4371,4.7462,4.4705,4.1889,3.5851,3.4922,3.5009,3.4516,3.6693,3.9392,4.1889,4.6011,5.0759,5.61,5.8668,6.1073,6.4006,6.4833,6.5373,6.5867,6.6041,6.6331,6.6854,6.6883,6.6389,6.5257,6.5054,6.4996,6.4996,6.4996,6.4996,6.4996,6.4996,6.4996,6.4996,6.4996,6.4996,6.4996,6.4996,6.4996,6.4996,6.4996,6.4996,6.4996,6.4996,6.4996,6.4996,6.4996,6.4996,6.4996,6.4996,6.4996,6.4996,0.0,0.0,0.0,0.0,0.0,0.0,0.0,2.6971,2.8691,3.2278,3.2332,3.1897,3.1608,3.0276,2.9057,0.0,0.0,0.0,0.0,0.0,0.0,0.0,0.0,0.0,0.0,0.0,0.0,0.0,0.0,0.0,0.0,0.0,0.0,0.0,0.0,0.0,2.8759,2.8097,0.0,0.0,0.0,0.0,0.0,0.0,0.0,0.0,0.0,3.3209,3.3412,3.6983,3.8115,3.858,4.1918,4.665,5.141,5.3878,5.5533,5.71,5.948,6.0642,6.0758,5.8871,5.6926,5.382,4.7346,4.4008,4.0931,3.6264,3.4864,3.4486,3.4428,3.559,3.797,4.2237,4.4792,4.8413,5.4629,5.7712,6.0136,6.2038,6.4404,6.5867,6.5925,6.6447,6.6825,6.6883,6.6883,6.6564,6.5896,6.5315,6.4996,6.4996,6.4996,6.4996,6.4996,6.4996,6.4996,6.4996,6.4996,6.4996,6.4996,6.4996,6.4996,6.4996,6.4996,6.4996,6.4996,6.4996,6.4996,6.4996,6.4996,6.4996,6.4996,6.4996,6.4996,6.4996,0.0,0.0,0.0,0.0,0.0,0.0,0.0,2.6808,2.8468,3.2681,3.3367,3.3424,3.3337,3.2378,3.0857,0.0,0.0,0.0,0.0,0.0,0.0,0.0,0.0,0.0,0.0,0.0,0.0,3.0761,0.0,0.0,0.0,0.0,0.0,0.0,0.0,0.0,2.8904,2.8853,0.0,0.0,0.0,0.0,0.0,0.0,0.0,0.0,0.0,0.0,3.3906,3.5415,3.6548,3.7447,3.8347,4.1221,4.5198,4.9698,5.2746,5.5213,5.7768,5.9248,5.9684,5.8087,5.5678,5.2223,4.6563,4.2992,3.9741,3.5648,3.4603,3.4399,3.4399,3.4399,3.5547,3.8996,4.0136,4.2868,4.9302,5.2463,5.5687,5.9864,6.2654,6.4822,6.636,6.6232,6.6247,6.6646,6.7199,6.7202,6.6535,6.5896,6.5373,6.4996,6.4996,6.4996,6.4996,6.4996,6.4996,6.4996,6.4996,6.4996,6.4996,6.4996,6.4996,6.4996,6.4996,6.4996,6.4996,6.4996,6.4996,6.4996,6.4996,6.4996,6.4996,6.4996,6.4996,6.4996,0.0,0.0,0.0,0.0,0.0,0.0,2.6168,2.6791,2.8373,3.2441,3.3409,3.3748,3.3874,3.3002,3.1633,2.9583,0.0,0.0,0.0,0.0,0.0,0.0,0.0,0.0,0.0,0.0,0.0,3.1809,3.1989,0.0,0.0,0.0,0.0,0.0,0.0,0.0,0.0,0.0,0.0,0.0,0.0,0.0,0.0,0.0,0.0,0.0,0.0,0.0,0.0,0.0,0.0,3.6112,3.5822,3.7099,3.9828,4.5634,4.9582,5.2688,5.5445,5.7419,5.8348,5.6868,5.4371,5.0888,4.5547,4.2121,3.9015,3.5183,3.4399,3.4399,3.4399,3.3928,3.4383,3.6874,3.7557,3.9743,4.5648,4.8904,5.2497,5.7283,6.0258,6.2778,6.4879,6.5114,6.5488,6.6454,6.7113,6.7372,6.7202,6.6564,6.5838,6.5025,6.4996,6.4996,6.4996,6.4996,6.4996,6.4996,6.4996,6.4996,6.4996,6.4996,6.4996,6.4996,6.4996,6.4996,6.4996,6.4996,6.4996,6.4996,6.4996,6.4996,6.4996,6.4996,6.4996,6.4996,0.0,0.0,0.0,0.0,0.0,0.0,0.0,2.7123,2.8755,3.1629,3.2093,3.2383,3.3048,3.1796,3.1091,3.1537,0.0,0.0,0.0,0.0,0.0,0.0,0.0,0.0,0.0,0.0,3.1809,3.2497,3.3155,3.3484,3.3455,3.2796,0.0,0.0,0.0,0.0,0.0,0.0,0.0,0.0,0.0,0.0,0.0,0.0,0.0,0.0,0.0,0.0,0.0,0.0,0.0,0.0,0.0,3.4893,3.6583,4.2353,4.6301,4.9465,5.2688,5.5387,5.6868,5.501,5.3065,5.0104,4.4327,4.1512,3.9015,3.5183,3.4399,3.4399,3.4399,3.4366,3.5004,3.6983,3.8376,4.0715,4.5112,4.8595,5.1615,5.4063,5.7282,5.9757,6.075,6.2921,6.4895,6.6413,6.6483,6.6952,6.7832,6.7231,6.6302,6.5025,6.4996,6.4996,6.4996,6.4996,6.4996,6.4996,6.4996,6.4996,6.4996,6.4996,6.4996,6.4996,6.4996,6.4996,6.4996,6.4996,6.4996,6.4996,6.4996,6.4996,6.4996,6.4996,6.4996,6.4996,0.0,0.0,0.0,0.0,0.0,0.0,0.0,2.4892,2.6218,2.8721,2.9475,3.0241,3.1461,3.116,3.0931,3.0979,0.0,0.0,0.0,0.0,0.0,0.0,0.0,0.0,0.0,0.0,3.2497,3.3185,3.3874,3.4173,3.4204,3.3994,3.3604,3.3155,0.0,0.0,0.0,0.0,0.0,0.0,0.0,0.0,0.0,0.0,0.0,0.0,0.0,0.0,0.0,0.0,0.0,0.0,0.0,0.0,0.0,3.7941,4.1947,4.5808,4.723,4.9175,5.0336,4.842,4.6824,4.4792,4.1221,3.9247,3.7476,3.4922,3.4399,3.4399,3.4399,3.3962,3.4818,3.862,3.8444,3.9434,4.405,4.7327,5.0078,5.2185,5.7776,6.1438,6.1479,6.4067,6.511,6.3446,6.6272,6.7358,6.5731,6.5475,6.546,6.5599,6.5228,6.4996,6.4996,6.4996,6.4996,6.4996,6.4996,6.4996,6.4996,6.4996,6.4996,6.4996,6.4996,6.4996,6.4996,6.4996,6.4996,6.4996,6.4996,6.4996,6.4996,6.4996,6.4996,6.4996,0.0,0.0,0.0,0.0,0.0,0.0,0.0,2.3912,2.5026,2.6975,2.7664,2.8669,3.0617,3.0349,3.0289,3.0991,0.0,0.0,0.0,0.0,0.0,0.0,0.0,0.0,0.0,3.1958,3.2946,3.3873,3.4532,3.5013,3.5252,3.5013,3.4502,3.3844,3.3094,0.0,0.0,0.0,0.0,0.0,0.0,0.0,0.0,0.0,0.0,0.0,0.0,0.0,0.0,0.0,0.0,0.0,0.0,0.0,0.0,0.0,3.7841,4.074,4.2878,4.4673,4.5636,4.4487,4.3224,4.1657,3.9363,3.7854,3.646,3.4748,3.4399,3.4399,3.4399,3.3997,3.4668,3.7653,3.7721,3.8812,4.2979,4.6098,4.9272,5.2842,5.7308,6.0525,6.1675,6.3064,6.3784,6.3592,6.5751,6.6521,6.5387,6.5454,6.5526,6.542,6.4626,6.4425,6.4996,6.4996,6.4996,6.4996,6.4996,6.4996,6.4996,6.4996,6.4996,6.4996,6.4996,6.4996,0.0,6.4996,6.4996,6.4996,6.4996,6.4996,6.4996,6.4996,6.4996,6.4996,0.0,0.0,0.0,0.0,0.0,0.0,0.0,0.0,0.0,0.0,2.6505,2.7583,3.0182,2.9335,2.9396,0.0,0.0,0.0,0.0,0.0,0.0,0.0,0.0,0.0,0.0,3.2228,3.3185,3.4444,3.519,3.5878,3.6477,3.5908,3.528,3.4623,3.3933,0.0,0.0,0.0,0.0,0.0,0.0,0.0,0.0,0.0,0.0,0.0,0.0,0.0,0.0,0.0,0.0,0.0,0.0,0.0,0.0,0.0,0.0,0.0,0.0,4.1378,4.2293,4.2389,4.1512,4.0205,3.8347,3.7041,0.0,3.4661,3.4399,3.4457,3.4603,3.4477,3.4634,3.5423,3.6761,3.8916,4.2322,4.5388,4.9437,5.5395,5.6172,5.7636,6.1132,6.046,6.1539,6.5766,6.4984,6.4857,6.6216,6.6471,6.5945,6.468,6.3458,6.3525,6.4996,6.4996,6.4996,6.4996,6.4996,6.4996,6.4996,6.4996,6.4996,6.4996,6.4996,6.4996,6.4996,6.4996,6.4996,6.4996,6.4996,6.4996,6.4996,6.4996,6.4996,6.4996,0.0,0.0,0.0,0.0,0.0,0.0,0.0,0.0,0.0,0.0,2.5329,2.6301,2.807,2.8415,2.9157,0.0,0.0,0.0,0.0,0.0,0.0,0.0,0.0,0.0,0.0,3.2884,3.3425,3.3724,3.5429,3.6327,3.6507,3.6806,3.6626,3.5998,3.534,3.455,0.0,0.0,0.0,0.0,0.0,0.0,0.0,0.0,0.0,0.0,3.2777,3.3064,0.0,0.0,0.0,0.0,0.0,0.0,0.0,0.0,3.2882,3.2444,3.4692,0.0,3.6892,3.6512,3.6577,3.6496,0.0,3.5444,3.5392,3.4574,3.4399,3.4864,3.6344,3.5296,3.561,4.0027,3.9671,4.025,4.4309,4.8006,5.1714,5.5692,5.6535,5.7353,5.8646,6.0974,6.2339,6.2266,6.4138,6.5013,6.4335,6.3387,6.3499,6.4821,6.3564,6.3525,6.4996,6.4996,6.4996,6.4996,6.4996,6.4996,6.4996,6.4996,6.4996,6.4996,6.4996,6.4996,6.4996,6.4996,6.4996,6.4996,6.4996,6.4996,6.4996,6.4996,6.4996,6.4996,0.0,0.0,0.0,0.0,0.0,0.0,0.0,0.0,0.0,0.0,0.0,0.0,0.0,0.0,0.0,0.0,0.0,0.0,0.0,0.0,0.0,0.0,0.0,0.0,3.1964,3.2675,3.3484,3.4412,3.5818,3.6776,3.7375,3.7404,3.7075,3.6447,3.569,3.5053,0.0,0.0,0.0,0.0,0.0,0.0,0.0,0.0,0.0,0.0,3.2048,3.2483,0.0,3.3416,3.3877,3.437,0.0,0.0,0.0,0.0,3.2025,3.126,3.3017,3.4317,3.5269,3.5645,3.5996,3.617,3.5822,3.5328,3.4835,3.4486,3.4399,3.4669,3.564,3.5534,3.6342,3.9713,4.0301,4.1983,4.6784,4.9888,5.2952,5.6468,5.6732,5.7435,5.9409,6.0974,6.1798,6.1654,6.3859,6.4579,6.3128,6.3369,6.3493,6.3356,6.298,6.3525,6.4996,6.4996,6.4996,6.4996,6.4996,6.4996,6.4996,6.4996,6.4996,6.4996,6.4996,6.4996,6.4996,6.4996,6.4996,6.4996,6.4996,6.4996,6.4996,6.4996,6.4996,6.4996,0.0,0.0,0.0,0.0,0.0,0.0,0.0,0.0,0.0,0.0,0.0,0.0,0.0,0.0,0.0,0.0,0.0,0.0,0.0,0.0,0.0,0.0,0.0,3.1475,3.1775,3.2347,3.3544,3.534,3.6297,3.7315,3.8392,3.8033,3.7434,3.6596,3.5773,3.5317,0.0,0.0,0.0,0.0,0.0,0.0,0.0,0.0,0.0,0.0,0.0,0.0,0.0,3.2977,3.3674,3.4167,3.3561,0.0,0.0,0.0,0.0,0.0,3.3194,3.4794,3.5983,3.6808,3.7244,3.7389,3.7186,3.588,3.469,3.469,3.469,3.4761,3.502,3.6168,3.7451,3.8628,4.1134,4.4575,4.9316,5.1423,5.3663,5.6858,5.6637,5.7435,6.0489,6.0294,6.0565,6.1895,6.3322,6.357,6.2209,6.4004,6.3922,6.1325,6.2292,6.3394,6.4647,6.4647,6.4775,6.4996,6.4996,6.4996,6.4996,6.4996,6.4996,6.4996,6.4996,6.4996,6.4996,6.4996,6.4996,6.4996,6.4996,6.4996,6.4996,6.4996,6.4996,6.4996,0.0,0.0,0.0,0.0,0.0,0.0,0.0,0.0,0.0,0.0,0.0,0.0,0.0,0.0,0.0,0.0,0.0,0.0,0.0,0.0,0.0,0.0,3.1758,3.1976,3.3102,3.3246,3.3784,3.4653,3.6956,3.8212,3.8422,3.9469,3.899,3.7255,3.6593,3.5896,3.5195,0.0,0.0,0.0,0.0,0.0,0.0,0.0,0.0,0.0,0.0,0.0,0.0,3.1787,3.2629,3.3532,3.2861,0.0,0.0,0.0,0.0,0.0,3.4283,3.6794,3.811,3.617,3.6867,3.7767,3.6722,3.6228,3.6025,3.6025,3.6025,3.6683,3.9017,3.9368,4.0414,4.3819,4.6777,4.9386,5.1447,5.3155,5.4628,5.5648,5.6012,5.6463,5.695,5.8497,5.9529,5.9672,6.1162,6.1711,6.0918,6.122,6.1234,6.0755,6.2069,6.2906,6.3131,6.3131,6.3749,6.4996,6.4996,6.4996,6.4996,6.4996,6.4996,6.4996,6.4996,6.4996,6.4996,6.4996,6.4996,6.4996,6.4996,6.4996,6.4996,6.4996,6.4996,6.4996,0.0,0.0,0.0,0.0,0.0,0.0,0.0,0.0,0.0,0.0,0.0,0.0,0.0,0.0,0.0,0.0,0.0,0.0,0.0,0.0,0.0,3.2934,3.2368,3.2315,3.291,3.4028,3.507,3.6058,3.8003,3.932,4.0008,3.9529,3.8452,3.6896,3.6237,3.5756,3.5359,3.5261,0.0,0.0,0.0,0.0,0.0,0.0,0.0,0.0,0.0,0.0,0.0,0.0,3.2492,3.3387,3.2716,0.0,0.0,0.0,0.0,0.0,3.3238,3.5444,3.7223,3.7389,3.9654,4.1657,4.1076,4.0147,3.9334,3.8957,3.8899,3.9265,4.0393,4.1207,4.3263,4.8121,5.0809,5.2685,5.3974,5.4163,5.4411,5.529,5.5616,5.6229,5.7277,5.8297,5.9166,5.9914,6.0612,6.0918,6.0647,6.062,6.062,6.062,6.1233,6.1975,6.2773,6.2773,6.3525,6.4996,6.4996,6.4996,6.4996,6.4996,6.4996,6.4996,6.4996,6.4996,6.4996,6.4996,6.4996,6.4996,6.4996,6.4996,6.4996,6.4996,6.4996,6.4996,0.0,0.0,0.0,0.0,0.0,0.0,0.0,0.0,0.0,0.0,0.0,0.0,0.0,0.0,0.0,0.0,0.0,0.0,0.0,0.0,3.3208,3.3196,3.2914,3.2886,3.3215,3.4861,3.6357,3.7644,3.914,4.0397,4.1354,3.9499,3.7943,3.6656,3.6028,3.5639,3.5519,3.5424,3.5359,0.0,0.0,0.0,0.0,0.0,0.0,0.0,0.0,0.0,0.0,0.0,0.0,0.0,0.0,0.0,0.0,3.1932,3.1293,3.1177,3.2919,3.4486,3.6264,3.8957,4.1482,4.3631,4.485,4.3544,4.2208,4.2586,4.2557,4.242,4.2301,4.3739,4.6652,5.175,5.4028,5.5445,5.6676,5.5942,5.5618,5.6488,5.6331,5.6841,5.8719,5.8276,5.863,6.0483,6.0276,6.007,6.007,6.007,6.007,6.007,6.0414,6.1301,6.2773,6.3131,6.3879,6.4996,6.4996,6.4996,6.4996,6.4996,6.4996,6.4996,6.4996,6.4996,6.4996,6.4996,6.4996,6.4996,6.4996,6.4996,6.4996,6.4996,6.4996,6.4996,0.0,0.0,0.0,0.0,0.0,0.0,0.0,0.0,0.0,0.0,0.0,0.0,0.0,0.0,0.0,0.0,0.0,0.0,0.0,0.0,3.3018,3.2586,3.3126,3.4023,3.528,3.6028,3.7045,3.8332,4.0277,4.1332,4.1354,3.9978,3.8631,3.7315,3.6686,3.6088,3.5519,3.5294,3.5326,3.5457,0.0,0.0,0.0,0.0,0.0,0.0,0.0,0.0,0.0,0.0,0.0,0.0,0.0,0.0,3.33,3.2629,3.1959,3.2135,3.5183,3.6141,3.7012,4.0176,3.9799,3.9944,4.4734,4.3892,4.3079,4.6592,4.6824,4.6443,4.6615,4.8538,5.1217,5.4522,5.6499,5.8085,5.9359,5.9873,6.0114,6.0195,5.9043,5.8789,6.0276,5.7947,5.7518,6.0414,5.9306,5.856,5.856,5.856,5.856,5.856,5.9862,6.1301,6.2773,6.4167,6.4903,6.4996,6.4996,6.4996,6.4996,6.4996,6.4996,6.4996,6.4996,6.4996,6.4996,6.4996,6.4996,6.4996,6.4996,6.4996,6.4996,6.4996,6.4996,6.4996,0.0,0.0,0.0,0.0,0.0,0.0,0.0,0.0,0.0,0.0,0.0,0.0,0.0,0.0,0.0,0.0,0.0,0.0,0.0,0.0,3.2715,3.3126,3.3365,3.4322,3.6088,3.7135,3.8512,4.0284,4.1452,4.1602,4.0756,3.9409,3.8093,3.6806,3.6178,3.5729,3.5519,3.5294,3.5326,3.5457,3.5294,0.0,0.0,0.0,0.0,0.0,0.0,0.0,0.0,0.0,3.1766,3.2454,3.1988,3.2629,3.3387,3.2716,3.2048,3.1961,3.3993,3.5182,3.6675,4.022,4.029,4.0787,4.5933,4.755,4.8537,5.0365,5.1207,5.1257,5.0094,5.1933,5.4241,5.6251,5.7594,5.9242,6.1381,6.1028,6.0276,5.9306,5.9515,6.0,6.0551,5.9584,6.0139,6.3131,6.0276,5.9166,6.1002,5.9375,5.9236,6.107,6.1706,6.2641,6.4167,6.4711,6.4996,6.4996,6.4996,6.4996,6.4996,6.4996,6.4996,6.4996,6.4996,6.4996,6.4996,6.4996,6.4996,6.4996,6.4996,6.4996,6.4996,6.4996,6.4996,6.4996,0.0,0.0,0.0,0.0,0.0,0.0,0.0,0.0,0.0,0.0,0.0,0.0,0.0,0.0,0.0,0.0,0.0,0.0,3.1047,3.1691,3.2412,3.3156,3.3395,3.4442,3.6447,3.7734,3.917,4.0756,4.1452,4.1175,4.0068,3.8721,3.7614,3.6746,3.5878,3.5609,3.5789,3.5448,3.5359,3.5519,3.5359,3.4974,0.0,0.0,0.0,0.0,0.0,0.0,0.0,0.0,3.1622,3.2256,3.2135,3.2745,3.3416,3.2948,3.2919,3.3238,3.4109,3.5196,3.6929,4.0498,4.1423,4.2732,4.7825,5.0046,5.1672,5.3907,5.4604,5.445,5.3347,5.4318,5.592,5.7923,5.9094,6.065,6.3187,6.2669,6.1639,6.0593,6.0961,6.1504,6.1908,6.0756,6.1301,6.4711,6.0455,5.9236,6.2641,5.9974,5.9793,6.2707,6.2773,6.3525,6.4996,6.4996,6.4996,6.4996,6.4996,6.4996,6.4996,6.4996,6.4996,6.4996,6.4996,6.4996,6.4996,6.4996,6.4996,6.4996,6.4996,6.4996,6.4996,6.4996,6.4996,6.4996,0.0,0.0,0.0,0.0,0.0,0.0,0.0,0.0,0.0,0.0,0.0,0.0,0.0,0.0,0.0,0.0,0.0,0.0,3.1016,3.1691,3.2195,3.2497,3.3155,3.4442,3.6417,3.7734,3.8721,3.9403,4.0068,4.0068,3.9343,3.8033,3.7404,3.7345,3.6088,3.5878,3.6447,3.5789,3.5519,3.5519,3.5519,3.51,0.0,0.0,0.0,0.0,0.0,0.0,0.0,0.0,3.1772,3.2006,3.31,3.3503,3.3503,3.3503,3.4806,3.6286,3.6286,3.6809,3.8115,4.1308,4.3108,4.5401,5.0511,5.0685,5.141,5.7158,5.6781,5.5649,5.6316,5.5794,5.6411,5.971,6.1183,6.2713,6.4688,6.4996,6.4967,6.4996,6.3684,6.3394,6.4839,6.1029,6.0276,6.4647,5.9558,5.8205,6.2575,6.0043,5.9793,6.2707,6.284,6.3525,6.4996,6.4996,6.4996,6.4996,6.4996,6.4996,6.4996,6.4996,6.4996,6.4996,6.4996,6.4996,6.4996,6.4996,6.4996,6.4996,6.4996,6.4996,6.4996,6.4996,6.4996,6.4996,0.0,0.0,0.0,0.0,0.0,0.0,0.0,0.0,0.0,0.0,0.0,0.0,0.0,0.0,0.0,0.0,0.0,0.0,3.0314,3.0641,3.1355,3.2437,3.3155,3.414,3.5561,3.6293,3.7788,4.0098,4.0159,3.9444,3.8003,3.7584,3.6926,3.6088,3.6148,3.6058,3.5789,3.5448,3.5359,3.5519,3.5359,3.524,0.0,0.0,0.0,0.0,0.0,0.0,0.0,0.0,0.0,0.0,3.199,3.3387,3.4578,3.318,3.4138,3.5566,3.5096,3.711,3.9996,4.2722,4.6135,4.9785,5.3405,5.4371,5.5562,5.951,5.9161,5.8058,5.7797,5.7876,5.8479,6.0,6.1183,6.2713,6.4688,6.4996,6.4647,6.3619,6.3944,6.4102,6.3525,6.3197,6.3619,6.4903,6.2442,6.188,6.4232,6.2508,6.2375,6.4296,6.4361,6.4583,6.4996,6.4996,6.4996,6.4996,6.4996,6.4996,6.4996,6.4996,6.4996,6.4996,6.4996,6.4996,6.4996,6.4996,6.4996,6.4996,6.4996,6.4996,6.4996,6.4996,6.4996,6.4996,0.0,0.0,0.0,0.0,0.0,0.0,0.0,0.0,0.0,0.0,2.8661,0.0,0.0,0.0,0.0,0.0,0.0,0.0,0.0,3.0387,3.0952,3.2437,3.3155,3.4201,3.5684,3.6035,3.7009,3.8734,3.8822,3.8234,3.7045,3.7216,3.6948,3.6267,3.6686,3.6626,3.6237,3.5866,3.563,3.5519,3.5359,3.5392,3.54,0.0,0.0,0.0,0.0,0.0,0.0,0.0,0.0,0.0,3.1438,3.2571,3.3819,3.3674,3.5009,3.6693,3.7593,3.9888,4.2849,4.6177,4.9293,5.2509,5.6411,5.7623,5.8552,6.0758,6.0177,5.9393,5.9742,5.9867,6.0341,6.1536,6.2509,6.3608,6.481,6.4996,6.4647,6.3814,6.4425,6.4647,6.3749,6.3944,6.4361,6.4996,6.3066,6.2868,6.4903,6.3619,6.3459,6.4967,6.4996,6.4996,6.4996,6.4996,6.4996,6.4996,6.4996,6.4996,6.4996,6.4996,6.4996,6.4996,6.4996,6.4996,6.4996,6.4996,6.4996,6.4996,6.4996,6.4996,6.4996,6.4996,6.4996,6.4996,0.0,0.0,0.0,0.0,0.0,0.0,0.0,0.0,0.0,0.0,2.9019,2.9661,0.0,0.0,0.0,0.0,0.0,0.0,0.0,0.0,3.1013,3.2437,3.3215,3.45,3.6357,3.6409,3.6334,3.6056,3.6596,3.6699,3.6384,3.6935,3.7233,3.728,3.7375,3.7345,3.7195,3.6567,3.5938,3.5307,3.5367,3.5337,3.5158,3.3992,0.0,0.0,0.0,0.0,0.0,0.0,0.0,0.0,3.1353,3.1553,3.2135,3.4462,3.6577,3.8841,4.1773,4.3776,4.6098,5.0452,5.2368,5.4429,5.919,6.0293,6.0467,6.1077,6.0293,6.0003,6.1774,6.1687,6.1948,6.3685,6.4561,6.4996,6.4996,6.4996,6.4996,6.4996,6.4996,6.4996,6.4996,6.3814,6.3525,6.4903,6.2536,6.2175,6.4839,6.3749,6.359,6.4996,6.4996,6.4996,6.4996,6.4996,6.4996,6.4996,6.4996,6.4996,6.4996,6.4996,6.4996,6.4996,6.4996,6.4996,6.4996,6.4996,6.4996,6.4996,6.4996,6.4996,6.4996,6.4996,6.4996,6.4996,0.0,0.0,0.0,0.0,0.0,0.0,0.0,0.0,0.0,0.0,0.0,0.0,0.0,0.0,0.0,0.0,0.0,0.0,0.0,0.0,3.1555,3.2437,3.3986,3.5023,3.5469,3.5322,3.5255,3.5174,3.6182,3.6187,3.527,3.659,3.6926,3.6484,3.7127,3.6836,3.5878,3.519,3.4468,3.3806,3.4282,3.4193,3.3776,3.3984,3.3481,0.0,0.0,0.0,0.0,0.0,0.0,0.0,3.1322,3.2222,3.3097,3.3122,3.5532,3.8347,3.9044,4.276,4.7143,5.0133,5.44,5.8406,6.0496,6.099,6.1019,6.1164,6.099,6.1048,6.1948,6.2412,6.2993,6.3893,6.4561,6.4996,6.4996,6.4996,6.4996,6.4996,6.4996,6.4996,6.4996,6.4711,6.4647,6.4996,6.4425,6.4296,6.4996,6.4711,6.4647,6.4996,6.4996,6.4996,6.4996,6.4996,6.4996,6.4996,6.4996,6.4996,6.4996,6.4996,6.4996,6.4996,6.4996,6.4996,6.4996,6.4996,6.4996,6.4996,6.4996,6.4996,6.4996,6.4996,6.4996,6.4996,0.0,0.0,0.0,0.0,0.0,0.0,0.0,0.0,0.0,0.0,0.0,0.0,0.0,0.0,0.0,0.0,0.0,0.0,0.0,3.057,3.1581,3.2916,3.4401,3.5195,3.5195,3.4738,3.4574,3.4802,3.5083,3.5297,3.5436,3.6768,3.7464,3.7604,3.7931,3.7441,3.6357,3.5207,3.4339,3.3743,3.4006,3.3915,3.3619,3.3293,3.2791,3.2169,3.1427,0.0,0.0,0.0,0.0,0.0,0.0,0.0,3.2283,3.3151,3.4835,3.7041,4.0147,4.3631,4.7579,5.2601,5.6607,5.9626,6.0903,6.1193,6.1193,6.1193,6.1193,6.1367,6.1977,6.2383,6.2935,6.3893,6.4299,6.4648,6.4938,6.4996,6.4996,6.4996,6.4996,6.4996,6.4996,6.4996,6.4996,6.4996,6.4996,6.4996,6.4996,6.4996,6.4996,6.4996,6.4996,6.4996,6.4996,6.4996,6.4996,6.4996,6.4996,6.4996,6.4996,6.4996,6.4996,6.4996,6.4996,6.4996,6.4996,6.4996,6.4996,6.4996,6.4996,6.4996,6.4996,6.4996,6.4996,6.4996,0.0,0.0,0.0,0.0,0.0,0.0,0.0,0.0,0.0,0.0,0.0,0.0,0.0,0.0,0.0,0.0,0.0,0.0,0.0,3.0672,3.1629,3.3425,3.4492,3.5083,3.505,3.4419,3.4227,3.4522,3.3999,3.4681,3.6481,3.7227,3.8098,3.898,3.8752,3.8003,3.6884,3.5307,3.4265,3.3619,3.361,3.3547,3.3311,3.2221,3.1721,3.1515,3.0191,3.0104,3.0631,3.0482,0.0,0.0,0.0,0.0,3.1033,3.3267,3.4138,3.5619,4.1163,4.4414,4.7985,5.5329,5.8058,5.9335,6.07,6.1019,6.1048,6.1164,6.1193,6.1367,6.1977,6.2093,6.247,6.369,6.3888,6.4212,6.4764,6.4909,6.4996,6.4996,6.4996,6.4996,6.4996,6.4996,6.4996,6.4996,6.4996,6.4996,6.4996,6.4996,6.4996,6.4996,6.4996,6.4996,6.4996,6.4996,6.4996,6.4996,6.4996,6.4996,6.4996,6.4996,6.4996,6.4996,6.4996,6.4996,6.4996,6.4996,6.4996,6.4996,6.4996,6.4996,6.4996,6.4996,6.4996,6.4996,0.0,0.0,0.0,0.0,0.0,0.0,0.0,0.0,0.0,0.0,3.0086,2.9881,2.9881,2.9065,0.0,0.0,0.0,0.0,2.9708,0.0,0.0,3.3455,3.4203,3.4496,3.4337,3.4375,3.4246,3.382,3.3924,3.5619,3.8743,3.7967,3.7952,3.8575,3.8135,3.691,3.5145,3.3846,3.2514,3.1306,3.1892,3.1744,3.1217,3.1041,3.072,3.0218,2.9341,2.946,2.9987,2.9813,3.0132,0.0,0.0,0.0,3.0772,3.1642,3.3061,3.4835,3.6809,4.2324,4.8972,5.501,5.7042,5.8058,5.9916,6.0322,6.0496,6.1077,6.1193,6.1367,6.1977,6.2093,6.2325,6.3109,6.369,6.4004,6.4091,6.4648,6.4996,6.4996,6.4996,6.4996,6.4996,6.4996,6.4996,6.4996,6.4996,6.4996,6.4996,6.4996,6.4996,6.4996,6.4996,6.4996,6.4996,6.4996,6.4996,6.4996,6.4996,6.4996,6.4996,6.4996,6.4996,6.4996,6.4996,6.4996,6.4996,6.4996,6.4996,6.4996,6.4996,6.4996,6.4996,6.4996,6.4996,6.4996,0.0,0.0,0.0,0.0,0.0,0.0,0.0,0.0,0.0,0.0,0.0,2.9845,2.9904,2.9225,0.0,0.0,0.0,0.0,3.0071,3.127,0.0,0.0,3.3574,3.3871,3.3654,3.3452,3.3476,3.3703,3.316,3.5234,3.9683,3.9246,3.9964,4.169,4.0276,3.8684,3.6934,3.4383,3.2735,3.1858,3.1678,3.2521,3.3627,3.1094,3.1095,3.2119,2.9259,2.8881,2.9726,2.9639,3.0045,3.0598,3.0598,0.0,0.0,0.0,3.1031,3.2803,3.768,4.3282,4.9001,5.4081,5.6084,5.7216,5.8784,5.9422,5.9771,6.0061,6.0148,6.0438,6.1425,6.16,6.1803,6.2441,6.2761,6.308,6.3457,6.3748,6.4067,6.4415,6.4444,6.459,6.4938,6.4996,6.4996,6.4996,6.4996,6.4996,6.4996,6.4996,6.4996,6.4996,6.4996,6.4996,6.4996,6.4996,6.4996,6.4996,6.4996,6.4996,6.4996,6.4996,6.4996,6.4996,6.4996,6.4996,6.4996,6.4996,6.4996,6.4996,6.4996,6.4996,6.4996,6.4996,6.4996,6.4996,0.0,0.0,0.0,0.0,0.0,0.0,0.0,0.0,0.0,0.0,0.0,0.0,2.9603,0.0,0.0,0.0,0.0,0.0,2.9981,0.0,0.0,0.0,0.0,3.3154,3.3,3.2616,3.2702,3.3206,3.2509,3.4902,4.0089,4.0263,4.2058,4.5113,4.2844,4.0567,3.8231,3.5409,3.3885,3.3343,3.2893,3.4167,3.6025,3.3325,3.3674,3.5067,3.0886,3.0016,3.0683,2.9871,3.0045,3.0569,3.0423,3.0016,0.0,0.0,0.0,3.0887,3.7767,4.2324,4.6359,5.1527,5.3762,5.5213,5.7129,5.8087,5.8668,5.8987,5.919,5.9597,6.0526,6.0845,6.1135,6.1774,6.2006,6.2267,6.2761,6.2993,6.3283,6.3748,6.3806,6.398,6.4473,6.4648,6.4764,6.4764,6.488,6.4996,6.4996,6.4996,6.4996,6.4996,6.4996,6.4996,6.4996,6.4996,6.4996,6.4996,6.4996,6.4996,6.4996,6.4996,6.4996,6.4996,6.4996,6.4996,6.4996,6.4996,6.4996,6.4996,6.4996,6.4996,6.4996,6.4996,6.4996,6.4996,0.0,0.0,0.0,0.0,0.0,0.0,0.0,0.0,0.0,0.0,0.0,0.0,2.8508,2.9002,2.8928,2.7745,0.0,0.0,0.0,0.0,0.0,0.0,0.0,0.0,3.2347,3.2317,3.2166,3.192,3.2416,3.5205,4.0118,4.0757,4.3398,4.7509,4.4966,4.1424,3.7339,3.6489,3.5793,3.5305,3.5822,3.617,3.6548,3.8725,3.9305,3.8522,3.5241,3.4076,3.367,3.0625,3.0045,3.051,2.9871,2.961,2.9494,0.0,0.0,0.0,3.4433,3.6722,3.9509,4.6417,4.9136,5.1004,5.472,5.6084,5.6897,5.8116,5.8871,5.9335,5.9393,5.9858,6.0467,6.1135,6.1716,6.2093,6.2151,6.2703,6.3109,6.3138,6.3138,6.3167,6.3196,6.3748,6.4033,6.4033,6.4648,6.4996,6.4996,6.4996,6.4996,6.4996,6.4996,6.4996,6.4996,6.4996,6.4996,6.4996,6.4996,6.4996,6.4996,6.4996,6.4996,6.4996,6.4996,6.4996,6.4996,6.4996,6.4996,6.4996,6.4996,6.4996,6.4996,6.4996,6.4996,6.4996,0.0,0.0,0.0,0.0,0.0,0.0,0.0,0.0,0.0,0.0,0.0,0.0,0.0,3.0201,2.9875,2.8381,2.8218,0.0,0.0,0.0,0.0,0.0,0.0,0.0,3.1781,3.2109,3.2167,3.1954,3.2068,3.4247,3.8347,3.977,4.1541,4.3456,4.2992,4.2092,4.0728,3.7186,3.5793,3.6025,3.6693,3.8405,4.0466,3.9305,4.0786,4.2905,3.8434,3.6606,3.6025,3.4457,3.2977,3.1642,3.0568,2.9668,2.8826,2.7781,2.8651,3.0539,3.3387,3.5706,3.8405,4.2992,4.6011,4.842,5.0627,5.3239,5.5416,5.6258,5.6984,5.7681,5.8523,5.951,6.0264,6.0526,6.1106,6.1513,6.1513,6.1716,6.2006,6.2412,6.2441,6.2616,6.3051,6.3312,6.3428,6.3428,6.4009,6.4386,6.4386,6.4764,6.4996,6.4996,6.4996,6.4996,6.4996,6.4996,6.4996,6.4996,6.4996,6.4996,6.4996,6.4996,6.4996,6.4996,6.4996,6.4996,6.4996,6.4996,6.4996,6.4996,6.4996,6.4996,6.4996,6.4996,6.4996,6.4996,0.0,0.0,0.0,0.0,0.0,0.0,0.0,0.0,0.0,3.1253,0.0,0.0,0.0,0.0,3.1181,2.9375,2.9056,2.9295,3.0133,0.0,0.0,0.0,0.0,0.0,3.1839,3.2287,3.2344,3.1986,3.2037,3.3598,3.6693,3.8144,3.9625,4.1076,4.0437,4.1105,4.2469,3.9315,3.7912,3.8057,3.9567,4.1308,4.2992,4.3021,4.4618,4.6359,4.2731,4.0873,3.9944,3.8434,3.6519,3.4428,3.2483,3.0248,2.8158,2.7111,2.8302,3.0307,3.1758,3.3906,3.6606,4.0466,4.2702,4.4821,4.8228,5.0714,5.2746,5.4429,5.53,5.6171,5.7448,5.8523,5.9364,5.9829,6.0438,6.0874,6.0874,6.1048,6.1338,6.1745,6.1803,6.1977,6.2412,6.2645,6.2761,6.2761,6.3545,6.3975,6.3975,6.4648,6.4996,6.4996,6.4996,6.4996,6.4996,6.4996,6.4996,6.4996,6.4996,6.4996,6.4996,6.4996,6.4996,6.4996,6.4996,6.4996,6.4996,6.4996,6.4996,6.4996,6.4996,6.4996,6.4996,6.4996,6.4996,6.4996,0.0,0.0,0.0,0.0,0.0,0.0,0.0,0.0,3.1332,3.1957,0.0,0.0,0.0,0.0,0.0,3.0786,3.0041,2.9708,2.9681,3.0223,0.0,0.0,0.0,0.0,3.2527,3.2849,3.2694,3.1987,3.2351,3.347,3.5305,3.5938,3.7912,4.0786,3.7738,3.8463,4.2005,4.2528,4.2121,4.1424,4.4531,4.4763,4.3921,5.0133,5.1033,4.8885,4.8217,4.7143,4.5576,4.244,4.0437,3.8696,3.5415,3.1321,2.7637,2.7055,2.7779,2.8912,0.0,0.0,0.0,3.8638,3.9015,4.0118,4.7637,4.8449,4.874,5.2543,5.3907,5.4778,5.6113,5.6839,5.7652,5.9016,5.9742,6.0177,6.0177,6.0758,6.1164,6.1164,6.1193,6.1193,6.1193,6.1716,6.2064,6.2064,6.3254,6.3917,6.3946,6.4648,6.4996,6.4996,6.4996,6.4996,6.4996,6.4996,6.4996,6.4996,6.4996,6.4996,6.4996,6.4996,6.4996,6.4996,6.4996,6.4996,6.4996,6.4996,6.4996,6.4996,6.4996,6.4996,6.4996,6.4996,6.4996,6.4996,0.0,0.0,0.0,0.0,0.0,3.3542,3.364,3.2656,3.2132,0.0,0.0,0.0,3.2824,3.3261,3.34,3.3262,3.228,3.1713,3.1688,3.1391,3.1212,3.1212,3.2527,3.3006,3.2497,3.3388,3.3262,3.1987,3.2476,3.2669,3.26,3.4196,3.5648,3.7019,3.7447,3.8289,3.916,3.7506,3.8986,4.2498,4.2963,4.5605,4.932,5.0162,5.2339,5.472,5.321,5.1527,4.9814,4.8478,4.4705,3.977,3.5183,3.1613,2.9029,2.8855,2.9755,3.0684,3.0393,0.0,0.0,0.0,0.0,0.0,4.0147,4.2586,4.5285,4.8682,5.0278,5.1875,5.4546,5.5184,5.5707,5.6984,5.8523,5.9539,5.9539,6.009,6.0467,6.0467,6.0903,6.1193,6.1193,6.1338,6.1454,6.1454,6.218,6.2848,6.3341,6.4386,6.4996,6.4996,6.4996,6.4996,6.4996,6.4996,6.4996,6.4996,6.4996,6.4996,6.4996,6.4996,6.4996,6.4996,6.4996,6.4996,6.4996,6.4996,6.4996,6.4996,6.4996,6.4996,6.4996,6.4996,6.4996,6.506,0.0,0.0,0.0,0.0,0.0,3.5555,3.5331,3.4535,3.4072,0.0,0.0,0.0,3.4592,3.5241,3.5337,3.482,3.3877,3.309,3.2557,3.2138,3.178,3.1511,3.2796,3.3305,3.2946,3.3951,3.3792,3.243,3.2593,3.2288,3.1495,3.2655,3.3558,3.4225,3.5038,3.588,3.6489,3.4486,3.678,4.2005,4.4618,4.7433,5.022,5.2136,5.4226,5.6084,5.5794,5.4807,5.353,5.2862,4.8217,4.1889,3.7302,3.408,3.1758,3.0422,3.1322,3.2542,3.1642,3.26,3.3964,3.4399,0.0,0.0,3.8986,4.0583,4.2615,4.6911,4.8391,4.9814,5.2775,5.3297,5.382,5.5358,5.6578,5.7681,5.8726,5.9422,5.9829,5.9829,6.0177,6.0496,6.0758,6.0787,6.0903,6.1164,6.1745,6.2499,6.3428,6.4183,6.4706,6.4967,6.4996,6.4996,6.4996,6.4996,6.4996,6.4996,6.4996,6.4996,6.4996,6.4996,6.4996,6.4996,6.4996,6.4996,6.4996,6.4996,6.4996,6.4996,6.4996,6.4996,6.506,6.5158,6.5222,6.5251,0.0,0.0,3.7168,3.7334,3.7897,3.8169,3.7661,3.704,3.6638,0.0,3.5736,3.5642,3.6896,3.7982,3.7927,3.6178,3.5224,3.4176,3.2916,3.2647,3.2228,3.163,3.2826,3.3514,3.3573,3.4478,3.4316,3.3077,3.2733,3.2222,3.1611,3.1496,3.1727,3.2336,3.1756,3.2481,3.4167,3.3409,3.5938,4.0873,4.7259,4.9349,4.9262,5.4923,5.6316,5.5474,5.7042,5.7245,5.6578,5.5533,5.0946,4.4937,4.0989,3.8115,3.5595,3.2312,3.3093,3.4777,3.3467,3.408,3.5386,3.6838,3.5648,0.0,4.0728,4.0408,4.0466,4.5663,4.6766,4.7608,5.0191,5.0772,5.1468,5.3268,5.3907,5.5097,5.771,5.8668,5.9103,5.919,5.9248,5.951,6.0032,6.0148,6.0438,6.1048,6.1716,6.2587,6.3748,6.3888,6.4299,6.4851,6.4938,6.4996,6.4996,6.4996,6.4996,6.4996,6.4996,6.4996,6.4996,6.4996,6.4996,6.4996,6.4996,6.4996,6.4996,6.4996,6.4996,6.4996,6.4996,6.4996,6.506,6.5348,6.5475,6.5538,0.0,3.6903,3.7466,3.8685,3.8984,3.9451,4.0547,3.9223,3.8463,3.9587,3.9477,3.9529,4.0337,4.0182,3.9864,3.9475,3.7367,3.5702,3.4953,3.3425,3.2467,3.2288,3.3066,3.3662,3.4074,3.478,3.4617,3.3563,3.303,3.2582,3.2278,3.1264,3.109,3.1669,3.1553,3.1988,3.3064,3.5909,3.887,4.186,4.3747,4.8275,5.4052,5.53,5.7507,5.9858,5.9684,5.9248,5.8232,5.4981,5.2281,4.9465,4.4589,4.2353,4.0786,3.707,3.7418,3.8725,3.7447,3.8028,3.858,3.6925,3.7302,0.0,3.577,3.6548,3.8144,3.9741,4.0495,4.1657,4.4211,4.5518,4.6505,4.7433,5.0162,5.3268,5.6345,5.7303,5.7884,5.8435,5.8958,5.9364,5.9451,5.9916,6.0264,6.038,6.1454,6.2209,6.247,6.3457,6.4033,6.4212,6.4706,6.4996,6.4996,6.4996,6.4996,6.4996,6.4996,6.4996,6.4996,6.4996,6.4996,6.4996,6.4996,6.4996,6.4996,6.4996,6.4996,6.4996,6.4996,6.4996,6.4996,6.5031,6.5285,6.5538,0.0,3.793,3.8526,3.968,4.0144,4.0616,4.1383,4.0979,4.0801,4.1353,4.2229,4.2581,4.1991,4.2168,4.1821,4.0524,3.8887,3.7201,3.5612,3.4562,3.3694,3.3036,3.3634,3.408,3.4188,3.4774,3.461,3.3703,3.2993,3.2431,3.1959,3.1032,3.1644,3.3383,3.2106,3.2948,3.5386,3.6025,3.8347,4.1947,4.6098,5.083,5.562,5.7565,5.951,6.1164,6.0816,6.0293,5.9219,5.5649,5.3181,5.0946,4.7085,4.543,4.4211,4.0728,4.0815,4.1628,3.9683,3.9596,3.9857,3.8928,3.8696,0.0,0.0,3.678,3.7535,4.006,3.9857,4.0089,4.2963,4.3485,4.3921,4.5169,4.7811,5.0162,5.1439,5.411,5.6142,5.6781,5.6897,5.7274,5.8203,5.8581,5.9161,6.0119,6.0787,6.1425,6.2064,6.2703,6.337,6.3946,6.4357,6.4677,6.4996,6.4996,6.4996,6.4996,6.4996,6.4996,6.4996,6.4996,6.4996,6.4996,6.4996,6.4996,6.4996,6.5158,6.5222,6.5222,6.5222,6.5222,6.5285,6.5601,6.5756,6.5819,3.8063,3.8791,3.9547,4.0276,4.0932,4.1501,4.1777,4.2269,4.2704,4.2849,4.47,4.546,4.4157,4.4762,4.4631,4.2981,4.1313,3.9503,3.7421,3.6466,3.5514,3.4439,3.444,3.4584,3.4833,3.4846,3.4505,3.3813,3.2954,3.2309,3.1874,3.1119,3.2312,3.4956,3.3209,3.4516,3.7912,3.6373,3.8434,4.3311,4.993,5.3181,5.4575,5.8697,6.0264,6.0351,6.099,6.0845,5.9887,5.6694,5.4226,5.1991,4.8798,4.7782,4.701,4.3515,4.3631,4.4327,4.1715,4.1279,4.1512,4.1163,4.0379,3.9625,0.0,0.0,0.0,4.1047,4.006,3.945,4.2034,4.1773,4.1628,4.3021,4.5285,4.6563,4.5663,4.964,5.2978,5.3849,5.4168,5.4865,5.6258,5.6287,5.7216,5.9655,5.9393,5.9858,6.1629,6.1948,6.2645,6.3806,6.3917,6.4328,6.4967,6.4996,6.4996,6.4996,6.4996,6.4996,6.4996,6.4996,6.4996,6.4996,6.4996,6.4996,6.506,6.5285,6.5475,6.5601,6.5601,6.5601,6.5664,6.6195,6.6257,6.6195,3.8063,3.8791,3.9547,4.0276,4.0958,4.1842,4.3137,4.2813,4.3039,4.474,4.6957,4.8773,4.9753,4.9225,4.9646,5.1552,4.6948,4.3879,4.3749,3.9928,3.7653,3.7575,3.5439,3.5123,3.7067,3.5551,3.4572,3.4346,3.3093,3.2774,3.3242,3.199,3.2222,3.3794,3.5154,3.6373,3.7535,3.9509,4.3573,4.8914,5.1577,5.1323,5.0017,5.5039,5.6955,5.7332,6.0177,6.1164,6.0584,5.739,5.6113,5.4923,4.9494,4.9291,5.0104,4.5198,4.5866,4.7637,4.5053,4.5605,4.5982,4.2063,4.3079,4.3573,3.7999,0.0,3.8522,3.7331,0.0,3.6751,3.7099,0.0,0.0,3.7331,4.0786,4.2905,4.1105,4.3805,4.665,4.842,5.1585,5.35,5.3204,5.2601,5.3994,5.8203,5.6432,5.6694,6.0235,6.1483,6.2441,6.3167,6.3748,6.4328,6.4967,6.4996,6.4996,6.4996,6.4996,6.4996,6.4996,6.4996,6.4996,6.4996,6.4996,6.4996,6.4996,6.506,6.5441,6.5945,6.5945,6.5945,6.5945,6.6007,6.6195,6.6444,3.8063,3.8791,3.9547,4.0276,4.0304,4.0818,4.2487,4.4841,4.6676,4.7177,4.934,5.1069,5.1581,5.0629,5.0728,5.2503,4.971,4.7109,4.5341,4.2718,4.0781,3.9668,3.7482,3.6663,3.7463,3.5979,3.4947,3.4399,3.3119,3.2658,3.289,3.1961,3.3209,3.6257,3.7041,3.9625,4.3369,4.2963,4.4589,4.7637,4.9582,4.9465,4.9059,5.7187,6.0293,6.0409,6.1367,6.1716,6.1222,5.8,5.5939,5.4429,5.2746,5.1149,4.9669,4.8275,4.8014,4.7695,4.5488,4.6301,4.6969,4.3602,4.4037,4.4124,3.9538,3.8289,3.8173,3.8463,0.0,0.0,0.0,0.0,0.0,0.0,3.9073,4.0118,3.8173,4.0989,4.3834,4.5401,4.6998,4.874,5.0763,5.1323,5.2862,5.5881,5.5126,5.5852,5.8929,6.0293,6.1454,6.247,6.3138,6.3777,6.4415,6.4793,6.4996,6.4996,6.4996,6.4996,6.4996,6.4996,6.4996,6.4996,6.4996,6.4996,6.506,6.5222,6.5567,6.6007,6.6195,6.6319,6.6319,6.6506,6.6568,6.6506,3.8096,0.0,3.9171,3.9732,3.9544,4.0072,4.2186,4.5867,4.8502,4.8865,5.0846,5.2452,5.3187,5.2696,5.3026,5.4791,5.3444,5.1414,4.8764,4.6387,4.4422,4.3054,4.0118,3.8692,3.9031,3.7077,3.5613,3.4661,3.3412,3.2861,3.3035,3.2367,3.3964,3.7476,3.8725,4.215,4.6911,4.5953,4.6998,4.9407,5.0598,5.1643,5.3181,5.9422,6.2441,6.3254,6.2616,6.2238,6.1629,5.861,5.6229,5.4604,5.4807,5.2775,5.0423,5.1033,5.0307,4.8856,4.6563,4.723,4.7753,4.4327,4.4066,4.3747,4.035,3.8928,3.8638,3.9625,3.8812,0.0,0.0,0.0,0.0,0.0,0.0,3.8405,3.6112,3.8522,4.0931,4.2034,4.2934,4.4705,4.7811,4.8478,4.9988,5.2978,5.2717,5.3994,5.7594,5.8987,6.0351,6.1803,6.2645,6.3399,6.3975,6.4677,6.4996,6.4996,6.4996,6.4996,6.4996,6.4996,6.4996,6.4996,6.4996,6.4996,6.506,6.5348,6.5664,6.6007,6.6382,6.6568,6.6691,6.6937,6.6876,6.6691,3.8202,3.827,3.8334,3.8367,3.878,4.0152,4.3186,4.4811,4.6594,4.9144,5.0965,5.2931,5.5416,5.6511,5.8319,6.1483,5.948,5.7561,5.6443,5.1625,4.8792,4.8752,4.3316,4.1102,4.276,3.916,3.6606,3.5363,3.4084,3.3794,3.4341,3.3703,3.4172,3.5683,4.0031,4.3079,4.5169,4.8246,5.2775,5.7855,5.7274,6.0003,6.4009,5.9974,6.0758,6.3859,6.3283,6.2645,6.1716,5.9132,5.7768,5.6752,5.4342,5.3936,5.4081,5.2862,5.2891,5.263,4.9465,4.9582,4.9233,4.3573,4.3108,4.3021,3.9131,3.9683,4.0641,3.9479,4.067,4.1715,4.1134,0.0,0.0,0.0,0.0,0.0,0.0,3.5648,3.6751,3.7447,4.0263,4.2673,4.4037,4.2498,4.3776,4.9465,4.8083,4.9765,5.6142,5.7681,5.9248,6.1164,6.2441,6.3399,6.3975,6.4677,6.4996,6.4996,6.4996,6.4996,6.4996,6.4996,6.4996,6.4996,6.4996,6.4996,6.506,6.5348,6.5664,6.6007,6.6382,6.6691,6.6999,6.6999,6.6999,6.6999,3.9553,3.9336,3.888,3.8383,3.818,3.9321,4.2913,4.6209,4.9533,5.2975,5.4619,5.6805,6.0237,6.0556,6.1251,6.3225,6.2209,6.0643,5.8579,5.4798,5.2646,5.2646,4.7119,4.4531,4.5518,4.1773,3.8957,3.7244,3.5595,3.4869,3.5043,3.3997,3.4404,3.617,4.0263,4.4327,4.8275,5.1062,5.4081,5.71,5.771,6.0526,6.4241,6.3138,6.3545,6.459,6.3951,6.3574,6.3109,6.1396,5.9539,5.7971,5.7942,5.6055,5.3936,5.4342,5.3994,5.3181,5.1672,5.2833,5.3094,4.7288,4.6505,4.5779,4.0641,4.0641,4.1279,3.9567,4.1197,4.2548,4.132,0.0,0.0,0.0,0.0,0.0,0.0,3.545,3.5799,3.6031,3.8086,3.9857,4.0728,4.1395,4.3253,4.6911,4.7753,4.9785,5.3675,5.6694,5.861,5.9248,6.1745,6.3196,6.3399,6.4473,6.4996,6.4996,6.4996,6.4996,6.4996,6.4996,6.4996,6.4996,6.4996,6.5124,6.5348,6.5475,6.579,6.6319,6.6444,6.6691,6.6999,6.6999,6.6999,6.6999,4.0713,4.0557,3.9994,3.89,3.9151,4.0691,4.4158,4.822,5.2035,5.5329,5.7071,5.9306,6.2732,6.2906,6.3312,6.4526,6.4532,6.3167,6.0177,5.8029,5.649,5.5562,5.1497,4.9262,4.9204,4.5663,4.2411,3.9596,3.768,3.6525,3.606,3.4782,3.5072,3.6809,4.0234,4.4472,4.9233,5.2484,5.562,5.8552,6.0061,6.2151,6.4415,6.4822,6.4851,6.4619,6.4444,6.4241,6.3801,6.279,6.1193,5.9742,6.0351,5.8406,5.6055,5.6868,5.6374,5.5329,5.4226,5.5155,5.5242,5.0365,4.9291,4.8072,4.2963,4.2818,4.3282,4.157,4.2478,4.3772,4.453,0.0,0.0,0.0,0.0,0.0,0.0,3.5247,3.5305,3.5072,3.6315,3.7738,3.9073,3.9509,4.1337,4.5227,4.6243,4.8304,5.202,5.5445,5.7594,5.829,6.1193,6.2848,6.308,6.4125,6.4764,6.4996,6.4996,6.4996,6.4996,6.4996,6.506,6.5187,6.5187,6.5348,6.5664,6.579,6.6103,6.6506,6.6629,6.6814,6.6999,6.6999,6.6999,6.6999,4.1678,4.2008,4.1864,4.0135,4.1614,4.4004,4.6884,5.0584,5.3873,5.6343,5.8348,6.0526,6.3109,6.3922,6.4671,6.5925,6.6593,6.5373,6.1716,6.1396,6.0235,5.7797,5.6345,5.501,5.3791,5.0511,4.6708,4.2424,4.0263,3.8609,3.736,3.606,3.6089,3.7331,3.9944,4.3573,4.8043,5.2572,5.7477,6.2354,6.4241,6.4967,6.4938,6.4967,6.459,6.4125,6.4764,6.459,6.398,6.3341,6.2703,6.2035,6.1425,6.0787,6.0235,6.0206,5.9829,5.8987,5.71,5.6607,5.5881,5.2688,5.141,4.9901,4.604,4.6185,4.6737,4.5343,4.4749,4.5797,5.0116,4.6357,0.0,0.0,0.0,0.0,0.0,0.0,3.5247,3.4661,3.5096,0.0,0.0,3.6903,3.8094,4.424,4.3631,4.5488,5.1178,5.3849,5.6113,5.8087,6.07,6.2383,6.308,6.3719,6.4357,6.4996,6.4996,6.4996,6.4996,6.506,6.5158,6.5475,6.5538,6.5727,6.607,6.6382,6.6506,6.6568,6.6876,6.6999,6.6999,6.6999,6.6999,6.6999,4.3893,4.5112,4.6212,4.6229,4.468,4.4798,4.8758,5.1283,5.4449,5.9306,6.1629,6.398,6.7028,6.7492,6.7551,6.7405,6.7522,6.6999,6.5519,6.4096,6.3225,6.3022,5.9974,5.7913,5.71,5.2543,4.901,4.6573,4.2058,3.9557,3.8894,3.6968,3.5996,3.606,3.9538,4.3311,4.7404,5.2397,5.8,6.3632,6.459,6.4706,6.4328,6.4793,6.459,6.4125,6.4764,6.488,6.4648,6.4009,6.337,6.2732,6.2064,6.1425,6.0845,6.0351,6.0438,6.0496,5.951,5.9597,5.9306,5.6549,5.501,5.3326,4.9959,5.0191,5.0452,4.8188,4.9406,5.0348,4.8506,4.7227,4.5486,0.0,0.0,0.0,0.0,0.0,0.0,3.7128,3.6983,3.6489,3.5706,3.6751,3.8754,4.1831,4.2644,4.4879,4.9185,5.1439,5.3675,5.6084,5.9568,6.1977,6.308,6.3719,6.4357,6.4996,6.4996,6.4996,6.4996,6.5222,6.5412,6.5538,6.5756,6.607,6.6382,6.6444,6.6629,6.6876,6.6999,6.6999,6.6999,6.6999,6.6999,6.6999,4.6093,4.8363,5.0596,5.1588,5.0321,4.9963,5.2423,5.3721,5.6074,6.0584,6.3109,6.5257,6.7347,6.8828,6.9525,6.9147,6.8857,6.8073,6.6564,6.5983,6.5373,6.4619,6.3051,6.1774,6.0816,5.6636,5.2856,4.963,4.472,4.1324,3.9323,3.707,3.5921,3.5944,3.9189,4.2498,4.604,5.3152,5.8726,6.2935,6.4386,6.4764,0.0,6.4851,6.4764,6.4502,6.4851,6.4996,6.488,6.4241,6.3603,6.2964,6.2296,6.1687,6.1135,6.0758,6.0903,6.1106,6.0729,6.0903,6.0845,5.9364,5.8261,5.6752,5.3849,5.3297,5.3059,5.1678,5.1687,5.1856,5.1807,4.9182,4.5611,0.0,0.0,0.0,0.0,0.0,0.0,0.0,3.7178,3.6476,3.4777,3.627,3.8289,4.0495,4.1599,4.3602,4.6882,5.022,5.3065,5.5329,5.8639,6.1251,6.308,6.3457,6.413,6.5222,6.506,6.5187,6.5441,6.5475,6.5664,6.5915,6.6132,6.6382,6.6753,6.6753,6.6814,6.6999,6.6999,6.6999,6.6999,6.6999,6.6999,6.6999,4.8683,5.1829,5.4769,5.57,5.6384,5.6873,5.7143,5.7456,5.8751,6.1602,6.4154,6.5954,6.6506,6.906,7.0715,7.0715,7.0221,6.8915,6.6593,6.7492,6.7057,6.4648,6.5606,6.5548,6.4183,6.1048,5.6955,5.1926,4.7474,4.319,3.9199,3.6902,3.5933,0.0,0.0,4.1976,4.5692,5.4546,5.951,6.1658,6.4038,6.4996,6.4996,6.4996,6.4996,6.4996,6.4996,6.4996,6.4909,6.4357,6.3748,6.3109,6.2441,6.1803,6.1309,6.1222,6.1193,6.1193,6.1193,6.1193,6.1193,6.1193,6.0758,5.9742,5.7419,5.5997,5.5151,5.5357,5.3122,5.2414,5.6538,5.1298,4.4953,0.0,0.0,0.0,3.8132,0.0,0.0,0.0,0.0,0.0,3.5284,3.5892,3.7346,3.9605,4.0157,4.1727,4.4734,4.9059,5.263,5.5213,5.7826,6.038,6.2935,6.3051,6.3906,6.5475,6.5222,6.5378,6.6007,6.5727,6.5915,6.6506,6.6568,6.6753,6.6999,6.6999,6.6999,6.6999,6.6999,6.6999,6.6999,6.6999,6.6999,6.6999,5.2805,5.5782,5.7774,5.6586,5.8049,6.0058,6.1936,6.2511,6.352,6.5606,6.8131,6.9757,6.9873,7.0395,7.0715,7.0715,7.0628,7.0134,6.9176,6.9321,6.877,6.726,6.7434,6.668,6.4851,6.1687,5.791,5.3523,4.8301,4.3613,3.9399,3.7761,3.6496,0.0,0.0,0.0,5.1381,5.6258,6.0032,6.2906,6.4386,6.4996,6.4996,6.4996,6.4996,6.4996,6.4996,6.4996,6.4967,6.4851,6.4415,6.3748,6.3109,6.247,6.1832,6.1338,6.1193,6.1193,6.1193,6.1193,6.1193,6.1193,6.1106,6.0758,5.9771,5.8987,5.8348,5.8105,5.7331,5.648,5.5412,5.1553,4.748,4.4477,4.3437,4.3237,4.4051,0.0,0.0,0.0,0.0,3.9702,3.6757,3.6693,3.7145,3.7901,3.7083,3.8993,4.4589,4.5285,4.8304,5.4458,5.7158,5.9684,6.2238,6.2819,6.3906,6.5475,6.5412,6.5601,6.6007,6.6257,6.6382,6.6506,6.6814,6.6937,6.6999,6.6999,6.6999,6.6999,6.6999,6.6999,6.6999,6.6999,6.6999,6.6999,5.7604,5.9393,6.0683,6.0434,6.1597,6.3531,6.6254,6.7406,6.7725,6.697,6.8276,6.9234,6.9234,7.0715,7.1702,7.1702,7.1411,7.1092,7.0773,7.0134,6.9495,6.8886,6.8247,6.7289,6.5983,6.3486,5.9713,5.4677,5.0193,4.523,3.978,3.814,3.6852,3.6054,0.0,4.6127,5.2339,5.652,5.9771,6.2267,6.4212,6.4996,6.4996,6.4996,6.4996,6.4996,6.4996,6.4996,6.4996,6.4996,6.4561,6.3917,6.369,6.3138,6.247,6.1832,6.1658,6.16,6.128,6.1193,6.1193,6.1193,6.1193,6.1106,6.0787,5.9974,5.9306,5.9416,5.8791,5.7537,5.5351,5.2025,4.9119,4.7507,4.5806,4.4989,4.5917,4.5275,4.4094,0.0,0.0,0.0,0.0,3.6565,3.631,3.6652,3.6635,3.8631,4.3306,4.4109,4.723,5.3297,5.6133,5.8869,6.16,6.2983,6.4341,6.5756,6.5756,6.6007,6.6506,6.6506,6.6568,6.6753,6.6937,6.6999,6.6999,6.6999,6.6999,6.6999,6.6999,6.6999,6.6999,6.6999,6.6999,6.6999,6.1992,6.287,6.3797,6.4392,6.5293,6.6749,6.9114,7.0848,7.0976,6.8421,6.8567,6.8886,6.8886,7.1121,7.2602,7.2602,7.2166,7.1818,7.1673,7.0744,7.0047,6.9786,6.8828,6.7899,6.7115,6.5344,6.1745,5.6229,5.2406,4.7328,4.1076,3.9159,3.8227,3.8347,4.3282,4.8159,5.2891,5.6839,5.98,6.1977,6.4125,6.4996,6.4996,6.4996,6.4996,6.4996,6.4996,6.4996,6.4996,6.4996,6.4648,6.4212,6.4004,6.369,6.3167,6.2499,6.2296,6.218,6.1542,6.1396,6.1367,6.1222,6.1193,6.1193,6.1193,6.0265,5.951,6.0027,5.9221,5.7754,5.5556,5.3264,5.1259,4.9912,4.8027,4.689,4.7309,4.7206,4.6232,0.0,0.0,0.0,3.8631,3.6806,3.5896,3.6399,3.6928,3.881,4.2404,4.3728,4.6845,5.2093,5.506,5.7839,6.047,6.2908,6.4801,6.6132,6.6132,6.6444,6.6999,6.6753,6.6753,6.6999,6.6999,6.6999,6.6999,6.6999,6.6999,6.6999,6.6999,6.6999,6.6999,6.6999,6.6999,6.6999,6.4945,6.6448,6.7488,6.645,6.7972,6.9222,6.8952,7.0958,7.2427,7.2108,7.2137,7.2166,7.2166,7.2427,7.2602,7.2602,7.2573,7.2282,7.1702,7.1557,7.0976,6.9815,6.967,6.9031,6.7812,6.6447,6.3516,5.8929,5.4541,4.9659,4.4385,4.193,4.1947,4.4182,4.6475,5.0656,5.6113,5.829,6.0961,6.3772,6.4648,6.4996,6.4996,6.4996,6.4996,6.4996,6.4996,6.4996,6.4996,6.4996,6.4938,6.4793,6.4212,6.3946,6.3835,6.3196,6.2993,6.2848,6.218,6.2006,6.189,6.1338,6.1193,6.1193,6.1193,6.0413,5.974,6.0027,5.95,5.8238,5.5688,5.5867,5.5269,5.1618,5.1319,5.1379,5.084,5.0196,4.906,4.707,0.0,0.0,4.2021,3.8607,3.6896,3.8088,3.702,3.844,4.3307,4.3148,4.5463,5.1052,5.4002,5.6324,5.8132,6.2116,6.4924,6.6444,6.6444,6.6629,6.6999,6.6999,6.6999,6.6999,6.6999,6.6999,6.6999,6.6999,6.6999,6.6999,6.6999,6.6999,6.6999,6.6999,6.6999,6.6999,6.8324,6.8223,6.8349,6.8683,6.9089,6.9942,7.1482,7.2863,7.3763,7.3763,7.3095,7.2602,7.2602,7.2602,7.2602,7.2602,7.2602,7.2515,7.2253,7.1876,7.144,7.0947,7.0192,6.935,6.8479,6.7551,6.4909,6.0438,5.7071,5.2804,4.7753,4.633,4.7056,4.9582,5.1933,5.4894,5.829,6.0584,6.2529,6.4033,6.4735,6.4996,6.4996,6.4996,6.4996,6.4996,6.4996,6.4996,6.4996,6.4996,6.4996,6.4938,6.4677,6.4619,6.4473,6.3835,6.3661,6.3516,6.2877,6.2412,6.2035,6.1803,6.1575,6.1464,6.1464,6.0999,6.0584,6.04,5.9696,5.877,5.7723,5.6675,5.5688,5.488,5.3653,5.2695,5.2426,5.2187,0.0,4.8775,0.0,4.4736,4.3629,4.0337,3.896,4.0673,3.7953,3.7747,4.1281,4.2651,4.521,4.9398,5.42,5.7331,5.8647,6.2617,6.5259,6.6506,6.6691,6.6876,6.6999,6.6999,6.6999,6.6999,6.6999,6.6999,6.6999,6.6999,6.6999,6.6999,6.6999,6.6999,6.6999,6.6999,6.6999,6.6999,7.1046,7.0159,6.9903,7.116,7.0994,7.1382,7.3574,7.4227,7.4518,7.4518,7.3734,7.3182,7.3182,7.3182,7.3182,7.3182,7.3008,7.2892,7.2892,7.2311,7.1876,7.1673,7.0802,6.996,6.9118,6.8479,6.6418,6.2877,5.9887,5.6432,5.2514,5.1091,5.1788,5.4342,5.6374,5.8435,6.0555,6.2529,6.3719,6.4357,6.4793,6.4996,6.4996,6.4996,6.4996,6.4996,6.4996,6.4996,6.4996,6.4996,6.4996,6.4996,6.4996,6.4996,6.4909,6.4444,6.4328,6.4183,6.3545,6.3084,6.268,6.2241,6.2047,6.1966,6.1642,6.1468,6.1138,6.0562,5.9712,5.9099,5.9099,5.7423,5.6166,5.6496,5.5149,5.3713,5.2725,5.2935,0.0,4.9629,4.7339,4.5813,4.5244,4.2222,4.1115,4.3099,4.0703,4.0115,4.2346,4.392,4.6282,4.9681,5.501,5.8308,5.9365,6.3324,6.5771,6.6629,6.6876,6.6999,6.6999,6.6999,6.6999,6.6999,6.6999,6.6999,6.6999,6.6999,6.6999,6.6999,6.6999,6.6999,6.6999,6.7208,6.7268,6.7298,7.288,7.2928,7.3224,7.3992,7.4105,7.4196,7.4474,7.4518,7.4518,7.4518,7.4488,7.4488,7.4547,7.4518,7.4488,7.4488,7.3937,7.3618,7.3618,7.2979,7.2311,7.1702,7.1673,7.1063,6.9786,6.9147,6.816,6.6825,6.3022,6.0467,5.9103,5.5939,5.5794,5.8261,5.8958,6.0671,6.308,6.3748,6.4386,6.4967,6.4996,6.4996,6.4996,6.4996,6.4996,6.4996,6.4996,6.4996,6.4996,6.4996,6.4996,6.4996,6.4996,6.4996,6.4996,6.4967,6.4967,6.4822,6.4212,6.4197,6.4064,6.2474,6.2579,6.2823,6.1819,6.1585,6.1332,6.0301,5.9578,5.9099,5.9099,5.856,5.7453,5.5538,5.5718,5.4999,5.1708,5.2366,0.0,4.9629,4.692,4.5813,4.713,4.4297,4.3189,4.5125,4.5843,4.68,4.8117,4.7608,4.8985,5.2732,5.6273,5.8662,5.9755,6.3919,6.634,6.6999,6.6999,6.6999,6.6999,6.6999,6.6999,6.6999,6.6999,6.6999,6.6999,6.6999,6.6999,6.6999,6.6999,6.6999,6.7059,6.7717,6.7956,6.8046,7.3439,7.3694,7.3772,7.3803,7.4533,7.51,7.5156,7.5563,7.5824,7.5824,7.5824,7.5853,7.5853,7.504,7.4518,7.4518,7.3966,7.3618,7.3618,7.2979,7.2515,7.2311,7.1905,7.1469,7.1063,7.0018,6.906,6.8218,6.5228,6.2906,6.1193,6.0148,6.0584,6.2209,6.2441,6.3225,6.4386,6.459,6.4793,6.4996,6.4996,6.4996,6.4996,6.4996,6.4996,6.4996,6.4996,6.4996,6.4996,6.4996,6.5158,6.5348,6.5348,6.5348,6.5348,6.5348,6.5348,6.5319,6.5115,6.4798,6.4422,6.4168,6.3737,6.3357,6.3002,6.2407,6.1709,6.0954,6.0236,5.9638,5.9189,5.8949,5.8291,5.6735,5.6645,5.5807,5.2965,5.2905,5.2546,5.081,4.9464,4.879,4.9209,4.7549,4.6292,4.6022,4.6202,4.6112,4.5603,4.8805,5.0973,5.1733,5.7191,6.051,6.135,6.4426,6.634,6.6999,6.6999,6.6999,6.6999,6.6999,6.6999,6.6999,6.6999,6.6999,6.6999,6.6999,6.6999,6.6999,6.6999,6.6999,6.7059,6.7717,6.7956,6.8076,7.3985,7.4248,7.4459,7.4358,7.4982,7.5592,7.5824,7.6201,7.6538,7.6538,7.6538,7.6538,7.6538,7.5737,7.5243,7.5243,7.4459,7.4039,7.4184,7.3196,7.2702,7.2844,7.2324,7.1905,7.1673,7.0889,7.0047,6.9176,6.7086,6.5315,6.3893,6.3893,6.4328,6.5112,6.5112,6.5315,6.5693,6.5693,6.5548,6.5344,6.5344,6.5199,6.4996,6.4996,6.4996,6.4996,6.4996,6.5094,6.5158,6.5158,6.5412,6.5664,6.5853,6.5853,6.5853,6.5727,6.5664,6.5664,6.5664,6.5433,6.5205,6.5064,6.4781,6.4368,6.3862,6.2903,6.1972,6.1553,6.0745,5.9967,5.9548,5.9279,5.859,5.7004,5.6944,5.6107,5.3204,5.3025,5.2606,5.0973,5.0674,5.0465,5.0226,5.0152,4.9793,4.8955,4.9823,4.9793,4.8476,5.105,5.3174,5.4491,5.9518,6.263,6.3558,6.5443,6.658,6.6999,6.6999,6.6999,6.6999,6.6999,6.6999,6.6999,6.6999,6.6999,6.6999,6.6999,6.6999,6.6999,6.6999,6.7148,6.7448,6.8106,6.8525,6.8824,7.4395,7.4749,7.5247,7.5491,7.5534,7.5766,7.6375,7.6538,7.6538,7.6538,7.6538,7.6538,7.6538,7.6538,7.6538,7.6538,7.5301,7.4722,7.5115,7.363,7.2831,7.3216,7.2802,7.234,7.1731,7.1702,7.1063,6.9786,6.8596,6.7638,6.6941,6.6941,6.6912,6.6883,6.6883,6.6883,6.6883,6.6883,6.6535,6.5983,6.5954,6.5577,6.5054,6.4996,6.4996,6.4996,6.4996,6.5222,6.5475,6.5475,6.5756,6.607,6.6382,6.6506,6.6444,6.6132,6.6007,6.6007,6.6007,6.6257,6.6295,6.5335,6.5586,6.5652,6.4366,6.3109,6.2211,6.2181,6.1134,6.0206,6.0116,5.9578,5.853,5.6555,5.6675,5.5927,5.2725,5.2845,5.2546,5.0614,5.1033,5.1259,5.0584,5.2247,5.3264,5.3114,5.5508,5.6436,5.5239,5.4221,5.5628,5.9937,6.263,6.4635,6.6011,6.667,6.6999,6.6999,6.6999,6.6999,6.6999,6.6999,6.6999,6.6999,6.6999,6.6999,6.6999,6.6999,6.6999,6.6999,6.7029,6.7418,6.8076,6.8794,6.9453,7.0081,7.4968,7.513,7.5404,7.5475,7.5911,7.6288,7.6508,7.6538,7.6538,7.6538,7.6538,7.6538,7.6538,7.6538,7.6538,7.6538,7.5737,7.542,7.5861,7.43,7.3385,7.3529,7.2892,7.2544,7.2398,7.1934,7.1063,6.9786,6.9466,6.8741,6.7638,6.7638,6.7376,6.6883,6.6883,6.6883,6.6883,6.6883,6.6796,6.6622,6.6128,6.5838,6.5664,6.517,6.4996,6.4996,6.4996,6.5222,6.5475,6.5475,6.5853,6.6382,6.6506,6.6691,6.6814,6.6506,6.6382,6.6382,6.6382,6.6444,6.6508,6.6544,6.6249,6.5802,6.4964,6.4126,6.3408,6.2959,6.2181,6.1313,6.0266,5.9967,5.9189,5.7184,5.6585,5.5598,5.3264,5.3533,5.3593,5.2606,5.3533,5.4192,5.4042,5.4431,5.4072,5.2546,5.4431,5.5508,5.5209,5.7274,5.8949,6.0057,6.263,6.4635,6.6011,6.667,6.6999,6.6999,6.6999,6.6999,6.6999,6.6999,6.6999,6.6999,6.6999,6.6999,6.6999,6.6999,6.6999,6.7029,6.7537,6.7837,6.8106,6.9303,6.9842,7.0081,7.5641,7.58,7.594,7.594,7.638,7.6762,7.6762,7.6911,7.6957,7.6957,7.6957,7.6957,7.6957,7.6957,7.7031,7.7254,7.6372,7.5948,7.6315,7.4823,7.3949,7.4092,7.3165,7.2602,7.2602,7.2282,7.1615,7.0657,7.0076,6.9437,6.8741,6.845,6.8131,6.7783,6.7783,6.7783,6.7783,6.7783,6.7609,6.7318,6.697,6.6651,6.6331,6.5983,6.5867,6.5873,6.5711,6.585,6.6109,6.6033,6.629,6.6753,6.6753,6.6876,6.6999,6.6814,6.6753,6.6753,6.6753,6.6753,6.6753,6.6937,6.649,6.5922,6.5562,6.4964,6.4366,6.4036,6.3199,6.2331,6.1583,6.0715,5.9338,5.7034,5.6376,5.5359,5.3054,5.3593,5.4281,5.4521,5.5718,5.6645,5.6944,5.7543,5.7184,5.5478,5.7214,5.8201,5.7902,6.0416,6.1882,6.1882,6.3857,6.5413,6.646,6.6819,6.6999,6.6999,6.6999,6.6999,6.6999,6.6999,6.6999,6.6999,6.6999,6.7148,6.7448,6.7448,6.7627,6.7956,6.8315,6.8615,6.8974,6.9722,7.0171,7.044,7.6388,7.6532,7.6687,7.6687,7.6911,7.7164,7.7164,7.7431,7.7623,7.7623,7.7623,7.7623,7.7623,7.7623,7.777,7.8063,7.7049,7.6535,7.6929,7.5419,7.4541,7.4751,7.3453,7.2718,7.2602,7.2602,7.2311,7.1673,7.0599,7.0018,6.9902,6.9263,6.8973,6.8973,6.8886,6.8828,6.8895,6.8828,6.8509,6.8082,6.7995,6.7617,6.7028,6.6978,6.7014,6.6927,6.6633,6.6814,6.7107,6.6737,6.6902,6.7119,6.7029,6.6999,6.6999,6.6999,6.6999,6.6999,6.6999,6.6999,6.6999,6.6999,6.658,6.6161,6.6161,6.5652,6.5173,6.5173,6.4216,6.3318,6.3109,6.1613,5.9458,5.6697,5.6218,5.5239,5.2576,5.3623,5.5059,5.6166,5.7663,5.88,5.9368,6.0356,6.0595,5.9757,6.1194,6.1972,6.1732,6.3348,6.4306,6.4306,6.5413,6.6311,6.6969,6.6999,6.6999,6.6999,6.6999,6.7029,6.7148,6.7148,6.7208,6.7298,6.7298,6.7597,6.8136,6.8136,6.8465,6.9004,6.9123,6.9482,6.9991,7.0081,7.044,7.0889,7.7475,7.7417,7.7402,7.7402,7.7475,7.7549,7.7549,7.7549,7.7623,7.7623,7.7623,7.7623,7.7623,7.7623,7.7623,7.7696,7.7828,7.7915,7.7987,7.6622,7.5612,7.5026,7.398,7.3182,7.2631,7.2602,7.2311,7.1673,7.1469,7.1092,7.057,6.9931,6.9641,6.9612,6.906,6.8963,6.9203,6.8895,6.8905,6.9028,6.8539,6.8078,6.7733,6.7415,6.7312,6.7312,6.726,6.7712,6.8135,6.7545,6.7588,6.7717,6.7178,6.6999,6.6999,6.6999,6.6999,6.6999,6.6999,6.6999,6.6999,6.6999,6.6909,6.6849,6.6849,6.634,6.5862,6.5862,6.5263,6.4395,6.3288,6.2361,6.0565,5.6795,5.6218,5.5239,5.2576,5.476,5.6735,5.6944,5.9129,6.0685,6.0805,6.0475,6.0864,6.2361,6.2241,6.278,6.4336,6.5233,6.5712,6.5712,6.5892,6.6311,6.6969,6.6999,6.6999,6.6999,6.6999,6.7298,6.7807,6.7807,6.8136,6.8704,6.8704,6.8734,6.8824,6.8824,6.8914,6.9064,6.9602,6.9871,6.9991,7.056,7.0829,7.0889,7.799,7.7623,7.7475,7.7549,7.7696,7.7843,7.7917,7.8136,7.8282,7.8282,7.8282,7.8282,7.8282,7.8282,7.8282,7.8282,7.8427,7.8499,7.8499,7.7397,7.6385,7.5491,7.4443,7.3514,7.2631,7.2602,7.2456,7.2166,7.1847,7.1528,7.1208,7.057,7.0105,6.9757,6.9466,6.9215,6.903,6.8895,6.903,6.927,6.9015,6.8898,6.8935,6.8811,6.8759,6.873,6.8572,6.8713,6.8946,6.8419,6.8399,6.8465,6.8166,6.8076,6.8016,6.7627,6.7268,6.6999,6.6999,6.6999,6.6999,6.6999,6.6999,6.6999,6.6999,6.6759,6.655,6.655,6.6011,6.5383,6.4755,6.3528,6.1912,5.9727,5.8171,5.6915,5.6047,5.6915,5.8171,5.9608,6.1194,6.245,6.3139,6.2929,6.3139,6.4066,6.3857,6.4216,6.5473,6.5832,6.6161,6.652,6.655,6.67,6.6999,6.6999,6.7178,6.7508,6.7508,6.7867,6.8525,6.8525,6.8704,6.9004,6.9004,6.9183,6.9542,6.9542,6.9722,7.0051,7.035,7.047,7.05,7.0799,7.0889,7.0889,7.8354,7.7887,7.7593,7.7843,7.8063,7.8209,7.8354,7.8572,7.8789,7.8789,7.8789,7.8789,7.8789,7.8789,7.8789,7.8789,7.8789,7.8789,7.8789,7.8052,7.7127,7.5942,7.4864,7.379,7.2863,7.2834,7.2776,7.2602,7.2137,7.1905,7.1876,7.1307,7.0824,7.0359,7.0253,6.9914,6.9369,6.9331,6.9416,6.9537,6.9537,6.967,6.9936,7.0002,7.0002,7.0009,6.9738,6.9689,6.9729,6.9646,6.9436,6.9247,6.9411,6.9226,6.8884,6.8375,6.7867,6.7388,6.7059,6.6999,6.6999,6.6999,6.6999,6.6999,6.6999,6.6999,6.6999,6.6999,6.658,6.6191,6.6041,6.4665,6.3109,6.1822,6.0057,5.883,5.886,5.8979,5.9847,6.2061,6.3049,6.3917,6.4934,6.5024,6.5084,6.5233,6.5263,6.5533,6.6191,6.6251,6.646,6.6969,6.6999,6.6999,6.6999,6.7148,6.7478,6.7956,6.8136,6.8555,6.9243,6.9243,6.9303,6.9453,6.9453,6.9722,7.0201,7.0201,7.047,7.0889,7.0889,7.0889,7.0889,7.0889,7.0889,7.0889,7.8789,7.8717,7.8717,7.8717,7.8717,7.8717,7.8789,7.8789,7.8789,7.8789,7.8789,7.8789,7.8789,7.8789,7.8789,7.8789,7.8789,7.8789,7.8789,7.8759,7.807,7.6693,7.5218,7.4169,7.356,7.3531,7.324,7.2602,7.2573,7.2544,7.2544,7.2228,7.2046,7.1988,7.1787,7.1508,7.1214,7.088,7.0563,7.0331,7.0331,7.0134,6.9936,7.0265,7.0397,7.0397,7.0337,7.0504,7.0839,7.1442,7.0823,7.0037,7.0587,6.9943,6.9004,6.8944,6.8884,6.8585,6.7328,6.6999,6.6999,6.6999,6.6999,6.6999,6.6999,6.6999,6.6999,6.6999,6.6939,6.6729,6.6131,6.5383,6.3857,6.0745,6.0595,6.0266,5.8441,6.0266,6.2091,6.2899,6.4126,6.4934,6.5024,6.5024,6.5293,6.5892,6.5951,6.6221,6.6879,6.6909,6.6939,6.6999,6.6999,6.6999,6.6999,6.7597,6.7926,6.7986,6.8615,6.9273,6.9901,6.9901,7.0231,7.0769,7.0769,7.0799,7.0829,7.0829,7.0859,7.0889,7.0889,7.0889,7.0889,7.0889,7.0889,7.0889,7.8789,7.8789,7.8789,7.8789,7.8789,7.8789,7.8789,7.8789,7.8789,7.8789,7.8789,7.8789,7.8789,7.8789,7.8789,7.8789,7.8789,7.8789,7.8789,7.8789,7.8129,7.6752,7.5524,7.462,7.4169,7.3792,7.3501,7.324,7.3048,7.2986,7.2986,7.3076,7.2963,7.2581,7.2454,7.2119,7.1635,7.15,7.128,7.1021,7.1021,7.0819,7.0528,7.0658,7.0724,7.0724,7.0724,7.1311,7.1985,7.1456,7.1491,7.165,7.1092,7.0588,7.0111,6.9722,6.9333,6.8884,6.8375,6.7926,6.7508,6.7089,6.6999,6.6999,6.6999,6.6999,6.6999,6.6999,6.6999,6.6909,6.667,6.6071,6.5353,6.4515,6.3558,6.2929,6.2989,6.3169,6.3677,6.4755,6.5323,6.5802,6.6191,6.6251,6.634,6.661,6.661,6.6729,6.6969,6.6999,6.6999,6.6999,6.7388,6.7597,6.7597,6.7837,6.8375,6.9213,6.9482,6.9931,7.056,7.056,7.0679,7.0889,7.0889,7.0889,7.0889,7.0889,7.0889,7.0889,7.0889,7.0889,7.0889,7.0889,7.0889,7.0889,7.8789,7.8789,7.8789,7.8789,7.8789,7.8789,7.8789,7.8789,7.8789,7.8789,7.8789,7.8789,7.8789,7.8789,7.8789,7.8789,7.8789,7.8789,7.8789,7.8789,7.8291,7.7193,7.6387,7.567,7.5174,7.462,7.4213,7.3949,7.3654,7.3474,7.3439,7.3761,7.3734,7.3251,7.3389,7.3073,7.2451,7.2451,7.223,7.1837,7.1837,7.1768,7.1547,7.1547,7.1547,7.1547,7.1547,7.2365,7.3352,7.2664,7.3012,7.3571,7.2454,7.1567,7.0829,7.038,6.9961,6.9572,6.9363,6.8974,6.8435,6.7777,6.7448,6.7298,6.7298,6.7148,6.6999,6.6999,6.6999,6.6999,6.6999,6.661,6.64,6.664,6.5533,6.4964,6.5892,6.5203,6.5054,6.6191,6.6311,6.649,6.6939,6.6999,6.6999,6.6999,6.6999,6.6999,6.6999,6.7178,6.7298,6.7298,6.7956,6.8405,6.8615,6.8615,6.9064,6.9991,7.0171,7.05,7.0889,7.0889,7.0889,7.0889,7.0889,7.0889,7.0889,7.0889,7.0889,7.0889,7.0889,7.0889,7.0889,7.0889,7.0889,7.0889,7.8789,7.8789,7.8789,7.8789,7.8789,7.8789,7.8789,7.8789,7.8789,7.8789,7.8789,7.8789,7.8789,7.8789,7.8789,7.8789,7.8789,7.8789,7.8789,7.8789,7.8644,7.8209,7.7843,7.7328,7.6679,7.6315,7.5669,7.4704,7.4378,7.4056,7.3831,7.4179,7.4318,7.4318,7.4731,7.451,7.3911,7.3911,7.3522,7.2924,7.2924,7.2924,7.2924,7.2924,7.2924,7.2924,7.2924,7.3759,7.4992,7.5518,7.575,7.5715,7.496,7.2953,7.0919,7.0919,7.0889,7.0769,7.0141,6.9991,6.9842,6.9183,6.8495,6.7986,6.7986,6.7478,6.6999,6.6999,6.6999,6.6999,6.6999,6.6999,6.6789,6.6131,6.6011,6.6011,6.6011,6.6011,6.6251,6.6909,6.6999,6.6999,6.6999,6.6999,6.6999,6.6999,6.6999,6.6999,6.6999,6.7627,6.7986,6.7986,6.8645,6.9333,6.9961,6.9991,6.9991,6.9991,7.062,7.0889,7.0889,7.0889,7.0889,7.0889,7.0889,7.0889,7.0889,7.0889,7.0889,7.0889,7.0889,7.0889,7.0889,7.0889,7.0889,7.0889,7.8789,7.8789,7.8789,7.8789,7.8789,7.8789,7.8789,7.8789,7.8789,7.8789,7.8789,7.8789,7.8789,7.8789,7.8789,7.8789,7.8789,7.8789,7.8789,7.8789,7.8717,7.8644,7.8209,7.7828,7.7328,7.6813,7.6165,7.5382,7.5082,7.4691,7.4179,7.4525,7.4731,7.4731,7.4869,7.4779,7.4569,7.4569,7.421,7.3612,7.3612,7.3343,7.2924,7.2924,7.2924,7.2924,7.2924,7.4314,7.6087,7.5403,7.6356,7.7521,7.5524,7.3367,7.1577,7.1577,7.1278,7.0859,7.0679,7.062,7.038,6.9273,6.8854,6.8704,6.8704,6.8555,6.8405,6.8405,6.8016,6.7687,6.7687,6.7298,6.6939,6.6729,6.67,6.67,6.67,6.67,6.6759,6.6969,6.6999,6.6999,6.6999,6.6999,6.6999,6.6999,6.7418,6.7687,6.7687,6.8315,6.8704,6.8704,6.9333,6.9782,6.9991,6.9991,7.0201,7.062,7.0799,7.0889,7.0889,7.0889,7.0889,7.0889,7.0889,7.0889,7.0889,7.0889,7.0889,7.0889,7.0889,7.0889,7.0889,7.0889,7.0889,7.0889,7.8789,7.8789,7.8789,7.8789,7.8789,7.8789,7.8789,7.8789,7.8789,7.8789,7.8789,7.8789,7.8789,7.8789,7.8789,7.8789,7.8789,7.8789,7.8789,7.8789,7.8789,7.8789,7.8572,7.8354,7.8063,7.7532,7.7029,7.6492,7.594,7.5427,7.4942,7.492,7.4869,7.4869,7.4869,7.4869,7.4869,7.4869,7.4659,7.43,7.43,7.4031,7.3702,7.3702,7.3702,7.3702,7.3702,7.5042,7.6745,7.6212,7.6892,7.7755,7.6118,7.4137,7.2295,7.2295,7.2026,7.1697,7.1697,7.1487,7.1098,7.032,6.9752,6.9393,6.9393,6.9183,6.9004,6.9004,6.8675,6.8375,6.8375,6.8046,6.7777,6.7777,6.7777,6.7777,6.7777,6.7537,6.7478,6.7747,6.7537,6.7388,6.7388,6.7627,6.7777,6.7777,6.8166,6.8375,6.8375,6.9004,6.9393,6.9393,7.0021,7.035,7.035,7.035,7.053,7.0889,7.0889,7.0889,7.0889,7.0889,7.0889,7.0889,7.0889,7.0889,7.0889,7.0889,7.0889,7.0889,7.0889,7.0889,7.0889,7.0889,7.0889,7.0889,7.8789,7.8789,7.8789,7.8789,7.8789,7.8789,7.8789,7.8789,7.8789,7.8789,7.8789,7.8789,7.8789,7.8789,7.8789,7.8789,7.8789,7.8789,7.8789,7.8789,7.8789,7.8789,7.8789,7.8861,7.8975,7.8499,7.8244,7.8197,7.7132,7.6504,7.6271,7.5639,7.524,7.5074,7.5074,7.5006,7.4869,7.4869,7.4869,7.4869,7.4869,7.4869,7.4869,7.4869,7.4869,7.4869,7.4869,7.5759,7.6996,7.7779,7.7581,7.6983,7.6983,7.5112,7.3013,7.3013,7.2954,7.2924,7.2924,7.2445,7.1966,7.1966,7.1098,7.0201,7.0081,6.9602,6.9183,6.9183,6.9123,6.9093,6.9093,6.9034,6.9004,6.9004,6.9004,6.9004,6.9004,6.8465,6.8286,6.8914,6.8435,6.8076,6.8076,6.8645,6.9004,6.9004,6.9064,6.9093,6.9093,6.9722,7.0051,7.0051,7.062,7.0889,7.0889,7.0889,7.0889,7.0889,7.0889,7.0889,7.0889,7.0889,7.0889,7.0889,7.0889,7.0889,7.0889,7.0889,7.0889,7.0919,7.0979,7.0979,7.1009,7.1068,7.1038,7.0979,7.8789,7.8789,7.8789,7.8789,7.8789,7.8789,7.8789,7.8789,7.8789,7.8789,7.8789,7.8789,7.8789,7.8789,7.8789,7.8789,7.8789,7.8789,7.8789,7.8789,7.8789,7.8789,7.8789,7.9332,8.044,7.9302,7.9466,8.1186,7.9755,7.9145,7.9122,7.8965,7.804,7.6462,7.6462,7.5893,7.4869,7.4869,7.4869,7.4869,7.4869,7.4869,7.4869,7.4869,7.4869,7.4869,7.4869,7.5759,7.7253,7.9495,7.9425,7.8437,7.8437,7.6255,7.3672,7.3672,7.3313,7.2924,7.2924,7.2804,7.2684,7.2684,7.2475,7.1996,7.0949,7.059,7.05,7.05,7.0111,6.9782,6.9782,6.9333,6.9004,6.9004,6.9004,6.9004,6.9004,6.8884,6.8824,6.8974,6.8854,6.8764,6.8764,6.8914,6.9004,6.9004,6.9482,6.9782,6.9782,7.038,7.0709,7.0709,7.0829,7.0889,7.0889,7.0889,7.0889,7.0889,7.0889,7.0889,7.0889,7.0889,7.0889,7.0889,7.0889,7.0889,7.0889,7.0889,7.0889,7.0949,7.1457,7.1667,7.1727,7.2265,7.2146,7.1607,7.8789,7.8789,7.8789,7.8789,7.8789,7.8789,7.8789,7.8789,7.8789,7.8789,7.8789,7.8789,7.8789,7.8789,7.8789,7.8789,7.8789,7.8789,7.8789,7.8789,7.8789,7.8789,7.8789,7.9769,8.1886,8.0509,8.0671,8.2547,8.1412,8.0977,8.0997,8.0649,7.9761,7.8333,7.7714,7.6834,7.5826,7.518,7.4869,7.4869,7.4869,7.4869,7.4869,7.4869,7.4869,7.4869,7.4869,7.6197,7.809,7.947,7.947,7.8879,7.8879,7.6842,7.436,7.436,7.4121,7.3851,7.3851,7.3612,7.3373,7.3373,7.3163,7.2744,7.2026,7.1846,7.1757,7.1427,7.1128,7.0799,7.047,7.0141,6.9901,6.9901,6.9901,6.9901,6.9901,6.9662,6.9572,6.9871,6.9662,6.9572,6.9871,6.9632,6.9602,6.9871,7.0231,7.041,7.041,7.0739,7.0889,7.0889,7.0889,7.1038,7.1368,7.1368,7.1547,7.1846,7.1517,7.1368,7.1398,7.1727,7.1846,7.1846,7.1846,7.1846,7.1846,7.1846,7.1846,7.1906,7.2235,7.2385,7.2415,7.2774,7.2684,7.2325,7.8789,7.8789,7.8789,7.8789,7.8789,7.8789,7.8789,7.8789,7.8789,7.8789,7.8789,7.8789,7.8789,7.8789,7.8789,7.8789,7.8789,7.8789,7.8789,7.8789,7.8789,7.8789,7.8789,7.998,8.2591,8.1751,8.2088,8.3737,8.2938,8.262,8.278,8.2206,8.1442,8.0491,7.9374,7.8281,7.7196,7.6055,7.5472,7.5198,7.5078,7.5108,7.5198,7.5078,7.5108,7.5198,7.5198,7.6707,7.8754,7.8754,7.866,7.8597,7.8597,7.6892,7.4869,7.4869,7.4869,7.4869,7.4869,7.448,7.4061,7.4061,7.3642,7.3253,7.3253,7.3073,7.2744,7.2176,7.2056,7.1906,7.1338,7.1248,7.1248,7.1248,7.1158,7.1068,7.1068,7.053,7.032,7.0829,7.044,7.035,7.0859,7.044,7.035,7.0859,7.0889,7.0889,7.0889,7.0889,7.0949,7.1068,7.1068,7.1398,7.2056,7.2056,7.2355,7.2894,7.2445,7.2176,7.2086,7.2654,7.2924,7.2924,7.2924,7.2924,7.2924,7.2924,7.2924,7.2924,7.3043,7.3073,7.3073,7.3073,7.3073,7.3073,7.8789,7.8789,7.8789,7.8789,7.8789,7.8789,7.8789,7.8789,7.8789,7.8789,7.8789,7.8789,7.8789,7.8789,7.8789,7.8789,7.8789,7.8789,7.8789,7.8789,7.8789,7.8789,7.8789,7.9516,8.1169,8.2222,8.3995,8.6744,8.5353,8.4995,8.5657,8.5558,8.4468,8.2688,8.2504,8.103,7.8745,7.8543,7.7692,7.6514,7.5976,7.6096,7.6514,7.5976,7.6096,7.6574,7.6574,7.716,7.8019,7.8019,7.7648,7.7154,7.7154,7.616,7.4869,7.4869,7.4869,7.4869,7.4869,7.4809,7.4749,7.4749,7.4689,7.4599,7.4599,7.3732,7.2894,7.2804,7.2774,7.2744,7.2654,7.2654,7.2654,7.2654,7.2146,7.1757,7.1757,7.1188,7.0799,7.0889,7.0829,7.0799,7.0889,7.0829,7.0799,7.0889,7.0889,7.0889,7.0889,7.0889,7.1158,7.1727,7.1757,7.2086,7.2774,7.2774,7.2834,7.2924,7.3402,7.3343,7.2774,7.2864,7.2924,7.2924,7.2924,7.2924,7.2924,7.2924,7.2924,7.2984,7.3552,7.3762,7.3762,7.3762,7.3762,7.3672,7.8789,7.8789,7.8789,7.8789,7.8789,7.8789,7.8789,7.8789,7.8789,7.8789,7.8789,7.8789,7.8789,7.8789,7.8789,7.8789,7.8789,7.8789,7.8789,7.8789,7.8789,7.8789,7.8789,7.9445,8.0894,8.2289,8.3995,8.6038,8.6254,8.6486,8.6792,8.6792,8.6125,8.4773,8.4077,8.2363,8.0088,7.9326,7.8141,7.6814,7.6544,7.6574,7.6784,7.6514,7.6604,7.6814,7.6814,7.7478,7.8493,7.8493,7.8278,7.8031,7.8031,7.7054,7.5976,7.5976,7.5976,7.5886,7.5557,7.5437,7.5347,7.4958,7.4869,7.4869,7.4869,7.442,7.3911,7.3552,7.3462,7.3343,7.2984,7.2924,7.2924,7.2924,7.2654,7.2445,7.2445,7.2206,7.1876,7.1487,7.1457,7.1308,7.0949,7.0889,7.0889,7.0889,7.0889,7.1068,7.1427,7.1457,7.1757,7.2445,7.2445,7.2774,7.3462,7.3462,7.3642,7.4001,7.43,7.4091,7.3462,7.3851,7.4001,7.4001,7.4001,7.4001,7.4001,7.4001,7.4001,7.4031,7.433,7.445,7.445,7.445,7.445,7.439]}]]